<?xml version="1.0" encoding="UTF-8" standalone="no" ?>
<gpx xmlns="http://www.topografix.com/GPX/1/1" xmlns:xsi="http://www.w3.org/2001/XMLSchema-instance" xsi:schemaLocation="http://www.topografix.com/GPX/1/1 http://www.topografix.com/GPX/1/1/gpx.xsd" version="1.1" creator="VisuGPX - https://www.visugpx.com">
  <metadata>
    <name>Les coullées du Cellier</name>
    <desc><![CDATA[Sortie VTT ]]></desc>
  </metadata>
  <trk>
    <name><![CDATA[02_10_201108_46_54_history on GPSies.com]]></name>
    <trkseg>
      <trkpt lat="47.30465" lon="-1.37498">
        <ele>61.661743</ele>
        <time>2011-10-02T06:46:55Z</time>
      </trkpt>
      <trkpt lat="47.30462" lon="-1.37489">
        <ele>62.622924</ele>
        <time>2011-10-02T06:46:59Z</time>
      </trkpt>
      <trkpt lat="47.30461" lon="-1.37487">
        <ele>62.622924</ele>
        <time>2011-10-02T06:47:02Z</time>
      </trkpt>
      <trkpt lat="47.30458" lon="-1.37488">
        <ele>62.622924</ele>
        <time>2011-10-02T06:47:20Z</time>
      </trkpt>
      <trkpt lat="47.30452" lon="-1.37479">
        <ele>62.622924</ele>
        <time>2011-10-02T06:47:23Z</time>
      </trkpt>
      <trkpt lat="47.30447" lon="-1.37471">
        <ele>62.622924</ele>
        <time>2011-10-02T06:47:29Z</time>
      </trkpt>
      <trkpt lat="47.30436" lon="-1.3746">
        <ele>63.103637</ele>
        <time>2011-10-02T06:47:35Z</time>
      </trkpt>
      <trkpt lat="47.30423" lon="-1.3745">
        <ele>63.58435</ele>
        <time>2011-10-02T06:47:39Z</time>
      </trkpt>
      <trkpt lat="47.30406" lon="-1.37435">
        <ele>65.026367</ele>
        <time>2011-10-02T06:47:44Z</time>
      </trkpt>
      <trkpt lat="47.30383" lon="-1.37404">
        <ele>65.50708</ele>
        <time>2011-10-02T06:47:52Z</time>
      </trkpt>
      <trkpt lat="47.30367" lon="-1.37374">
        <ele>65.50708</ele>
        <time>2011-10-02T06:47:59Z</time>
      </trkpt>
      <trkpt lat="47.3035" lon="-1.3734">
        <ele>64.545654</ele>
        <time>2011-10-02T06:48:06Z</time>
      </trkpt>
      <trkpt lat="47.30338" lon="-1.37317">
        <ele>64.065063</ele>
        <time>2011-10-02T06:48:12Z</time>
      </trkpt>
      <trkpt lat="47.30329" lon="-1.37299">
        <ele>63.58435</ele>
        <time>2011-10-02T06:48:16Z</time>
      </trkpt>
      <trkpt lat="47.30318" lon="-1.37282">
        <ele>62.142334</ele>
        <time>2011-10-02T06:48:21Z</time>
      </trkpt>
      <trkpt lat="47.30304" lon="-1.37269">
        <ele>62.622924</ele>
        <time>2011-10-02T06:48:25Z</time>
      </trkpt>
      <trkpt lat="47.30295" lon="-1.37262">
        <ele>62.142334</ele>
        <time>2011-10-02T06:48:27Z</time>
      </trkpt>
      <trkpt lat="47.30271" lon="-1.3724">
        <ele>61.661743</ele>
        <time>2011-10-02T06:48:32Z</time>
      </trkpt>
      <trkpt lat="47.30248" lon="-1.37217">
        <ele>59.739135</ele>
        <time>2011-10-02T06:48:38Z</time>
      </trkpt>
      <trkpt lat="47.30244" lon="-1.37216">
        <ele>59.258422</ele>
        <time>2011-10-02T06:48:39Z</time>
      </trkpt>
      <trkpt lat="47.30226" lon="-1.37221">
        <ele>57.816528</ele>
        <time>2011-10-02T06:48:43Z</time>
      </trkpt>
      <trkpt lat="47.30203" lon="-1.37224">
        <ele>54.932373</ele>
        <time>2011-10-02T06:48:48Z</time>
      </trkpt>
      <trkpt lat="47.30199" lon="-1.37213">
        <ele>54.932373</ele>
        <time>2011-10-02T06:48:51Z</time>
      </trkpt>
      <trkpt lat="47.30201" lon="-1.37201">
        <ele>55.413085</ele>
        <time>2011-10-02T06:48:54Z</time>
      </trkpt>
      <trkpt lat="47.30192" lon="-1.37195">
        <ele>54.451782</ele>
        <time>2011-10-02T06:48:58Z</time>
      </trkpt>
      <trkpt lat="47.30188" lon="-1.37196">
        <ele>54.451782</ele>
        <time>2011-10-02T06:48:59Z</time>
      </trkpt>
      <trkpt lat="47.30181" lon="-1.37202">
        <ele>53.009765</ele>
        <time>2011-10-02T06:49:02Z</time>
      </trkpt>
      <trkpt lat="47.30177" lon="-1.37198">
        <ele>53.971191</ele>
        <time>2011-10-02T06:49:05Z</time>
      </trkpt>
      <trkpt lat="47.30174" lon="-1.37191">
        <ele>55.413085</ele>
        <time>2011-10-02T06:49:08Z</time>
      </trkpt>
      <trkpt lat="47.30169" lon="-1.37185">
        <ele>56.855102</ele>
        <time>2011-10-02T06:49:13Z</time>
      </trkpt>
      <trkpt lat="47.30168" lon="-1.37184">
        <ele>56.855102</ele>
        <time>2011-10-02T06:49:15Z</time>
      </trkpt>
      <trkpt lat="47.30169" lon="-1.37184">
        <ele>56.855102</ele>
        <time>2011-10-02T06:49:19Z</time>
      </trkpt>
      <trkpt lat="47.30168" lon="-1.37184">
        <ele>56.855102</ele>
        <time>2011-10-02T06:49:20Z</time>
      </trkpt>
      <trkpt lat="47.30173" lon="-1.37191">
        <ele>55.893798</ele>
        <time>2011-10-02T06:49:25Z</time>
      </trkpt>
      <trkpt lat="47.30174" lon="-1.37193">
        <ele>55.413085</ele>
        <time>2011-10-02T06:49:26Z</time>
      </trkpt>
      <trkpt lat="47.30173" lon="-1.37199">
        <ele>53.490478</ele>
        <time>2011-10-02T06:49:28Z</time>
      </trkpt>
      <trkpt lat="47.30168" lon="-1.3721">
        <ele>52.048584</ele>
        <time>2011-10-02T06:49:31Z</time>
      </trkpt>
      <trkpt lat="47.30161" lon="-1.37209">
        <ele>52.048584</ele>
        <time>2011-10-02T06:49:35Z</time>
      </trkpt>
      <trkpt lat="47.30157" lon="-1.37207">
        <ele>52.529174</ele>
        <time>2011-10-02T06:49:40Z</time>
      </trkpt>
      <trkpt lat="47.30157" lon="-1.37207">
        <ele>52.529174</ele>
        <time>2011-10-02T06:49:41Z</time>
      </trkpt>
      <trkpt lat="47.30156" lon="-1.37205">
        <ele>53.009765</ele>
        <time>2011-10-02T06:49:57Z</time>
      </trkpt>
      <trkpt lat="47.30156" lon="-1.37204">
        <ele>53.009765</ele>
        <time>2011-10-02T06:49:59Z</time>
      </trkpt>
      <trkpt lat="47.30159" lon="-1.37205">
        <ele>53.009765</ele>
        <time>2011-10-02T06:50:15Z</time>
      </trkpt>
      <trkpt lat="47.3015" lon="-1.37197">
        <ele>53.971191</ele>
        <time>2011-10-02T06:50:20Z</time>
      </trkpt>
      <trkpt lat="47.3014" lon="-1.37192">
        <ele>53.971191</ele>
        <time>2011-10-02T06:50:23Z</time>
      </trkpt>
      <trkpt lat="47.30136" lon="-1.37189">
        <ele>54.932373</ele>
        <time>2011-10-02T06:50:24Z</time>
      </trkpt>
      <trkpt lat="47.30125" lon="-1.37191">
        <ele>52.529174</ele>
        <time>2011-10-02T06:50:27Z</time>
      </trkpt>
      <trkpt lat="47.3012" lon="-1.37193">
        <ele>52.529174</ele>
        <time>2011-10-02T06:50:28Z</time>
      </trkpt>
      <trkpt lat="47.30099" lon="-1.37198">
        <ele>50.606567</ele>
        <time>2011-10-02T06:50:33Z</time>
      </trkpt>
      <trkpt lat="47.30089" lon="-1.37202">
        <ele>49.645263</ele>
        <time>2011-10-02T06:50:38Z</time>
      </trkpt>
      <trkpt lat="47.30076" lon="-1.37201">
        <ele>49.16455</ele>
        <time>2011-10-02T06:50:42Z</time>
      </trkpt>
      <trkpt lat="47.3007" lon="-1.37188">
        <ele>49.16455</ele>
        <time>2011-10-02T06:50:46Z</time>
      </trkpt>
      <trkpt lat="47.30072" lon="-1.37171">
        <ele>49.645263</ele>
        <time>2011-10-02T06:50:54Z</time>
      </trkpt>
      <trkpt lat="47.30073" lon="-1.37171">
        <ele>49.645263</ele>
        <time>2011-10-02T06:50:57Z</time>
      </trkpt>
      <trkpt lat="47.30073" lon="-1.37171">
        <ele>50.125976</ele>
        <time>2011-10-02T06:51:00Z</time>
      </trkpt>
      <trkpt lat="47.30073" lon="-1.37172">
        <ele>50.606567</ele>
        <time>2011-10-02T06:51:01Z</time>
      </trkpt>
      <trkpt lat="47.30073" lon="-1.37173">
        <ele>50.125976</ele>
        <time>2011-10-02T06:51:02Z</time>
      </trkpt>
      <trkpt lat="47.30071" lon="-1.37184">
        <ele>49.645263</ele>
        <time>2011-10-02T06:51:06Z</time>
      </trkpt>
      <trkpt lat="47.3007" lon="-1.3719">
        <ele>49.645263</ele>
        <time>2011-10-02T06:51:08Z</time>
      </trkpt>
      <trkpt lat="47.30077" lon="-1.37202">
        <ele>49.16455</ele>
        <time>2011-10-02T06:51:12Z</time>
      </trkpt>
      <trkpt lat="47.30095" lon="-1.37196">
        <ele>50.606567</ele>
        <time>2011-10-02T06:51:17Z</time>
      </trkpt>
      <trkpt lat="47.30105" lon="-1.37193">
        <ele>51.567871</ele>
        <time>2011-10-02T06:51:21Z</time>
      </trkpt>
      <trkpt lat="47.30116" lon="-1.37191">
        <ele>52.048584</ele>
        <time>2011-10-02T06:51:25Z</time>
      </trkpt>
      <trkpt lat="47.30121" lon="-1.37189">
        <ele>53.490478</ele>
        <time>2011-10-02T06:51:27Z</time>
      </trkpt>
      <trkpt lat="47.30125" lon="-1.37186">
        <ele>53.009765</ele>
        <time>2011-10-02T06:51:29Z</time>
      </trkpt>
      <trkpt lat="47.30135" lon="-1.37192">
        <ele>53.490478</ele>
        <time>2011-10-02T06:51:34Z</time>
      </trkpt>
      <trkpt lat="47.30148" lon="-1.372">
        <ele>53.490478</ele>
        <time>2011-10-02T06:51:39Z</time>
      </trkpt>
      <trkpt lat="47.30151" lon="-1.37204">
        <ele>53.009765</ele>
        <time>2011-10-02T06:51:40Z</time>
      </trkpt>
      <trkpt lat="47.30175" lon="-1.37236">
        <ele>53.009765</ele>
        <time>2011-10-02T06:51:46Z</time>
      </trkpt>
      <trkpt lat="47.30192" lon="-1.37263">
        <ele>53.971191</ele>
        <time>2011-10-02T06:51:52Z</time>
      </trkpt>
      <trkpt lat="47.30207" lon="-1.37289">
        <ele>54.451782</ele>
        <time>2011-10-02T06:51:58Z</time>
      </trkpt>
      <trkpt lat="47.30219" lon="-1.37304">
        <ele>53.971191</ele>
        <time>2011-10-02T06:52:02Z</time>
      </trkpt>
      <trkpt lat="47.30224" lon="-1.37311">
        <ele>53.490478</ele>
        <time>2011-10-02T06:52:04Z</time>
      </trkpt>
      <trkpt lat="47.30241" lon="-1.37324">
        <ele>53.009765</ele>
        <time>2011-10-02T06:52:08Z</time>
      </trkpt>
      <trkpt lat="47.3025" lon="-1.37325">
        <ele>53.490478</ele>
        <time>2011-10-02T06:52:11Z</time>
      </trkpt>
      <trkpt lat="47.30261" lon="-1.37322">
        <ele>55.893798</ele>
        <time>2011-10-02T06:52:15Z</time>
      </trkpt>
      <trkpt lat="47.30269" lon="-1.37326">
        <ele>57.335815</ele>
        <time>2011-10-02T06:52:19Z</time>
      </trkpt>
      <trkpt lat="47.30271" lon="-1.37333">
        <ele>57.335815</ele>
        <time>2011-10-02T06:52:21Z</time>
      </trkpt>
      <trkpt lat="47.30272" lon="-1.37342">
        <ele>57.816528</ele>
        <time>2011-10-02T06:52:25Z</time>
      </trkpt>
      <trkpt lat="47.30271" lon="-1.37356">
        <ele>57.816528</ele>
        <time>2011-10-02T06:52:30Z</time>
      </trkpt>
      <trkpt lat="47.30269" lon="-1.37371">
        <ele>57.816528</ele>
        <time>2011-10-02T06:52:33Z</time>
      </trkpt>
      <trkpt lat="47.30275" lon="-1.3739">
        <ele>57.335815</ele>
        <time>2011-10-02T06:52:37Z</time>
      </trkpt>
      <trkpt lat="47.30278" lon="-1.37397">
        <ele>58.297119</ele>
        <time>2011-10-02T06:52:42Z</time>
      </trkpt>
      <trkpt lat="47.30279" lon="-1.37399">
        <ele>57.816528</ele>
        <time>2011-10-02T06:52:47Z</time>
      </trkpt>
      <trkpt lat="47.3028" lon="-1.37401">
        <ele>57.816528</ele>
        <time>2011-10-02T06:52:48Z</time>
      </trkpt>
      <trkpt lat="47.3028" lon="-1.37402">
        <ele>57.816528</ele>
        <time>2011-10-02T06:52:51Z</time>
      </trkpt>
      <trkpt lat="47.30281" lon="-1.37403">
        <ele>58.297119</ele>
        <time>2011-10-02T06:52:52Z</time>
      </trkpt>
      <trkpt lat="47.30281" lon="-1.37404">
        <ele>57.816528</ele>
        <time>2011-10-02T06:52:55Z</time>
      </trkpt>
      <trkpt lat="47.30286" lon="-1.37406">
        <ele>58.297119</ele>
        <time>2011-10-02T06:53:00Z</time>
      </trkpt>
      <trkpt lat="47.3029" lon="-1.37408">
        <ele>59.258422</ele>
        <time>2011-10-02T06:53:06Z</time>
      </trkpt>
      <trkpt lat="47.30292" lon="-1.3741">
        <ele>59.258422</ele>
        <time>2011-10-02T06:53:09Z</time>
      </trkpt>
      <trkpt lat="47.30295" lon="-1.37418">
        <ele>59.258422</ele>
        <time>2011-10-02T06:53:11Z</time>
      </trkpt>
      <trkpt lat="47.30309" lon="-1.3744">
        <ele>59.739135</ele>
        <time>2011-10-02T06:53:18Z</time>
      </trkpt>
      <trkpt lat="47.30325" lon="-1.37456">
        <ele>59.739135</ele>
        <time>2011-10-02T06:53:24Z</time>
      </trkpt>
      <trkpt lat="47.30344" lon="-1.37462">
        <ele>60.219726</ele>
        <time>2011-10-02T06:53:30Z</time>
      </trkpt>
      <trkpt lat="47.30363" lon="-1.37459">
        <ele>60.219726</ele>
        <time>2011-10-02T06:53:36Z</time>
      </trkpt>
      <trkpt lat="47.30377" lon="-1.37453">
        <ele>61.661743</ele>
        <time>2011-10-02T06:53:42Z</time>
      </trkpt>
      <trkpt lat="47.30385" lon="-1.37451">
        <ele>62.622924</ele>
        <time>2011-10-02T06:53:45Z</time>
      </trkpt>
      <trkpt lat="47.304" lon="-1.37462">
        <ele>63.103637</ele>
        <time>2011-10-02T06:53:51Z</time>
      </trkpt>
      <trkpt lat="47.30412" lon="-1.37468">
        <ele>62.622924</ele>
        <time>2011-10-02T06:53:56Z</time>
      </trkpt>
      <trkpt lat="47.3043" lon="-1.37474">
        <ele>62.142334</ele>
        <time>2011-10-02T06:54:01Z</time>
      </trkpt>
      <trkpt lat="47.30442" lon="-1.37469">
        <ele>62.622924</ele>
        <time>2011-10-02T06:54:05Z</time>
      </trkpt>
      <trkpt lat="47.30456" lon="-1.37484">
        <ele>62.622924</ele>
        <time>2011-10-02T06:54:10Z</time>
      </trkpt>
      <trkpt lat="47.30454" lon="-1.37508">
        <ele>60.219726</ele>
        <time>2011-10-02T06:54:15Z</time>
      </trkpt>
      <trkpt lat="47.30441" lon="-1.37521">
        <ele>57.335815</ele>
        <time>2011-10-02T06:54:19Z</time>
      </trkpt>
      <trkpt lat="47.30419" lon="-1.37515">
        <ele>54.932373</ele>
        <time>2011-10-02T06:54:23Z</time>
      </trkpt>
      <trkpt lat="47.3041" lon="-1.37511">
        <ele>54.451782</ele>
        <time>2011-10-02T06:54:24Z</time>
      </trkpt>
      <trkpt lat="47.30381" lon="-1.37503">
        <ele>54.451782</ele>
        <time>2011-10-02T06:54:28Z</time>
      </trkpt>
      <trkpt lat="47.30358" lon="-1.37501">
        <ele>53.009765</ele>
        <time>2011-10-02T06:54:32Z</time>
      </trkpt>
      <trkpt lat="47.30341" lon="-1.37498">
        <ele>51.567871</ele>
        <time>2011-10-02T06:54:36Z</time>
      </trkpt>
      <trkpt lat="47.3033" lon="-1.37498">
        <ele>50.606567</ele>
        <time>2011-10-02T06:54:38Z</time>
      </trkpt>
      <trkpt lat="47.30313" lon="-1.37495">
        <ele>47.722534</ele>
        <time>2011-10-02T06:54:41Z</time>
      </trkpt>
      <trkpt lat="47.30285" lon="-1.37476">
        <ele>44.838623</ele>
        <time>2011-10-02T06:54:45Z</time>
      </trkpt>
      <trkpt lat="47.30269" lon="-1.37457">
        <ele>43.877319</ele>
        <time>2011-10-02T06:54:47Z</time>
      </trkpt>
      <trkpt lat="47.30238" lon="-1.3741">
        <ele>40.032104</ele>
        <time>2011-10-02T06:54:51Z</time>
      </trkpt>
      <trkpt lat="47.30209" lon="-1.3736">
        <ele>37.628662</ele>
        <time>2011-10-02T06:54:55Z</time>
      </trkpt>
      <trkpt lat="47.30179" lon="-1.37324">
        <ele>33.783447</ele>
        <time>2011-10-02T06:54:59Z</time>
      </trkpt>
      <trkpt lat="47.30161" lon="-1.373">
        <ele>32.341552</ele>
        <time>2011-10-02T06:55:01Z</time>
      </trkpt>
      <trkpt lat="47.30152" lon="-1.37289">
        <ele>31.380127</ele>
        <time>2011-10-02T06:55:02Z</time>
      </trkpt>
      <trkpt lat="47.30135" lon="-1.37275">
        <ele>29.457519</ele>
        <time>2011-10-02T06:55:04Z</time>
      </trkpt>
      <trkpt lat="47.30118" lon="-1.37263">
        <ele>26.092895</ele>
        <time>2011-10-02T06:55:06Z</time>
      </trkpt>
      <trkpt lat="47.3011" lon="-1.37259">
        <ele>25.131713</ele>
        <time>2011-10-02T06:55:07Z</time>
      </trkpt>
      <trkpt lat="47.3008" lon="-1.37255">
        <ele>20.805664</ele>
        <time>2011-10-02T06:55:10Z</time>
      </trkpt>
      <trkpt lat="47.30052" lon="-1.37257">
        <ele>17.441162</ele>
        <time>2011-10-02T06:55:13Z</time>
      </trkpt>
      <trkpt lat="47.30044" lon="-1.37255">
        <ele>15.999023</ele>
        <time>2011-10-02T06:55:14Z</time>
      </trkpt>
      <trkpt lat="47.30028" lon="-1.37249">
        <ele>15.037719</ele>
        <time>2011-10-02T06:55:16Z</time>
      </trkpt>
      <trkpt lat="47.30007" lon="-1.37234">
        <ele>12.634399</ele>
        <time>2011-10-02T06:55:19Z</time>
      </trkpt>
      <trkpt lat="47.29992" lon="-1.37213">
        <ele>10.231201</ele>
        <time>2011-10-02T06:55:22Z</time>
      </trkpt>
      <trkpt lat="47.29979" lon="-1.37203">
        <ele>10.711792</ele>
        <time>2011-10-02T06:55:25Z</time>
      </trkpt>
      <trkpt lat="47.29983" lon="-1.37194">
        <ele>10.231201</ele>
        <time>2011-10-02T06:55:28Z</time>
      </trkpt>
      <trkpt lat="47.29994" lon="-1.37178">
        <ele>10.231201</ele>
        <time>2011-10-02T06:55:32Z</time>
      </trkpt>
      <trkpt lat="47.29996" lon="-1.37175">
        <ele>10.231201</ele>
        <time>2011-10-02T06:55:33Z</time>
      </trkpt>
      <trkpt lat="47.30011" lon="-1.37153">
        <ele>10.231201</ele>
        <time>2011-10-02T06:55:41Z</time>
      </trkpt>
      <trkpt lat="47.30025" lon="-1.37132">
        <ele>10.231201</ele>
        <time>2011-10-02T06:55:47Z</time>
      </trkpt>
      <trkpt lat="47.30044" lon="-1.371">
        <ele>10.711792</ele>
        <time>2011-10-02T06:55:56Z</time>
      </trkpt>
      <trkpt lat="47.30068" lon="-1.37058">
        <ele>10.231201</ele>
        <time>2011-10-02T06:56:07Z</time>
      </trkpt>
      <trkpt lat="47.30087" lon="-1.37024">
        <ele>10.231201</ele>
        <time>2011-10-02T06:56:16Z</time>
      </trkpt>
      <trkpt lat="47.30104" lon="-1.36992">
        <ele>10.711792</ele>
        <time>2011-10-02T06:56:24Z</time>
      </trkpt>
      <trkpt lat="47.30118" lon="-1.36962">
        <ele>10.231201</ele>
        <time>2011-10-02T06:56:31Z</time>
      </trkpt>
      <trkpt lat="47.30124" lon="-1.36945">
        <ele>9.7506104</ele>
        <time>2011-10-02T06:56:34Z</time>
      </trkpt>
      <trkpt lat="47.30139" lon="-1.3691">
        <ele>9.7506104</ele>
        <time>2011-10-02T06:56:41Z</time>
      </trkpt>
      <trkpt lat="47.30156" lon="-1.36875">
        <ele>10.231201</ele>
        <time>2011-10-02T06:56:49Z</time>
      </trkpt>
      <trkpt lat="47.30169" lon="-1.36848">
        <ele>9.7506104</ele>
        <time>2011-10-02T06:56:55Z</time>
      </trkpt>
      <trkpt lat="47.30188" lon="-1.36807">
        <ele>9.7506104</ele>
        <time>2011-10-02T06:57:03Z</time>
      </trkpt>
      <trkpt lat="47.30207" lon="-1.36768">
        <ele>9.7506104</ele>
        <time>2011-10-02T06:57:10Z</time>
      </trkpt>
      <trkpt lat="47.30225" lon="-1.36729">
        <ele>8.7891846</ele>
        <time>2011-10-02T06:57:17Z</time>
      </trkpt>
      <trkpt lat="47.3025" lon="-1.3668">
        <ele>9.2698975</ele>
        <time>2011-10-02T06:57:26Z</time>
      </trkpt>
      <trkpt lat="47.30255" lon="-1.36669">
        <ele>9.2698975</ele>
        <time>2011-10-02T06:57:28Z</time>
      </trkpt>
      <trkpt lat="47.30273" lon="-1.3663">
        <ele>9.2698975</ele>
        <time>2011-10-02T06:57:35Z</time>
      </trkpt>
      <trkpt lat="47.30288" lon="-1.36598">
        <ele>9.7506104</ele>
        <time>2011-10-02T06:57:41Z</time>
      </trkpt>
      <trkpt lat="47.30305" lon="-1.36566">
        <ele>8.7891846</ele>
        <time>2011-10-02T06:57:47Z</time>
      </trkpt>
      <trkpt lat="47.30314" lon="-1.36549">
        <ele>9.2698975</ele>
        <time>2011-10-02T06:57:50Z</time>
      </trkpt>
      <trkpt lat="47.30319" lon="-1.36538">
        <ele>8.7891846</ele>
        <time>2011-10-02T06:57:52Z</time>
      </trkpt>
      <trkpt lat="47.30329" lon="-1.36516">
        <ele>9.2698975</ele>
        <time>2011-10-02T06:57:56Z</time>
      </trkpt>
      <trkpt lat="47.30349" lon="-1.36474">
        <ele>8.7891846</ele>
        <time>2011-10-02T06:58:04Z</time>
      </trkpt>
      <trkpt lat="47.30374" lon="-1.36422">
        <ele>9.2698975</ele>
        <time>2011-10-02T06:58:14Z</time>
      </trkpt>
      <trkpt lat="47.30398" lon="-1.36372">
        <ele>8.7891846</ele>
        <time>2011-10-02T06:58:23Z</time>
      </trkpt>
      <trkpt lat="47.30423" lon="-1.3632">
        <ele>8.7891846</ele>
        <time>2011-10-02T06:58:32Z</time>
      </trkpt>
      <trkpt lat="47.30443" lon="-1.36277">
        <ele>8.7891846</ele>
        <time>2011-10-02T06:58:39Z</time>
      </trkpt>
      <trkpt lat="47.30466" lon="-1.3623">
        <ele>8.7891846</ele>
        <time>2011-10-02T06:58:47Z</time>
      </trkpt>
      <trkpt lat="47.30488" lon="-1.36187">
        <ele>9.7506104</ele>
        <time>2011-10-02T06:58:55Z</time>
      </trkpt>
      <trkpt lat="47.30512" lon="-1.36144">
        <ele>8.7891846</ele>
        <time>2011-10-02T06:59:03Z</time>
      </trkpt>
      <trkpt lat="47.30538" lon="-1.36102">
        <ele>8.7891846</ele>
        <time>2011-10-02T06:59:11Z</time>
      </trkpt>
      <trkpt lat="47.30566" lon="-1.3606">
        <ele>8.3085938</ele>
        <time>2011-10-02T06:59:20Z</time>
      </trkpt>
      <trkpt lat="47.30572" lon="-1.36052">
        <ele>8.3085938</ele>
        <time>2011-10-02T06:59:22Z</time>
      </trkpt>
      <trkpt lat="47.30587" lon="-1.36023">
        <ele>7.8278809</ele>
        <time>2011-10-02T06:59:28Z</time>
      </trkpt>
      <trkpt lat="47.30594" lon="-1.36014">
        <ele>7.8278809</ele>
        <time>2011-10-02T06:59:30Z</time>
      </trkpt>
      <trkpt lat="47.30636" lon="-1.35968">
        <ele>8.7891846</ele>
        <time>2011-10-02T06:59:40Z</time>
      </trkpt>
      <trkpt lat="47.30643" lon="-1.35958">
        <ele>8.7891846</ele>
        <time>2011-10-02T06:59:42Z</time>
      </trkpt>
      <trkpt lat="47.30677" lon="-1.35917">
        <ele>8.7891846</ele>
        <time>2011-10-02T06:59:51Z</time>
      </trkpt>
      <trkpt lat="47.30716" lon="-1.35873">
        <ele>8.3085938</ele>
        <time>2011-10-02T07:00:01Z</time>
      </trkpt>
      <trkpt lat="47.30747" lon="-1.35837">
        <ele>8.3085938</ele>
        <time>2011-10-02T07:00:09Z</time>
      </trkpt>
      <trkpt lat="47.30777" lon="-1.35802">
        <ele>8.3085938</ele>
        <time>2011-10-02T07:00:17Z</time>
      </trkpt>
      <trkpt lat="47.30805" lon="-1.35768">
        <ele>8.7891846</ele>
        <time>2011-10-02T07:00:24Z</time>
      </trkpt>
      <trkpt lat="47.30836" lon="-1.35731">
        <ele>8.3085938</ele>
        <time>2011-10-02T07:00:32Z</time>
      </trkpt>
      <trkpt lat="47.30853" lon="-1.35711">
        <ele>8.7891846</ele>
        <time>2011-10-02T07:00:38Z</time>
      </trkpt>
      <trkpt lat="47.30865" lon="-1.35696">
        <ele>8.7891846</ele>
        <time>2011-10-02T07:00:45Z</time>
      </trkpt>
      <trkpt lat="47.30873" lon="-1.35685">
        <ele>8.7891846</ele>
        <time>2011-10-02T07:00:52Z</time>
      </trkpt>
      <trkpt lat="47.3088" lon="-1.35678">
        <ele>8.3085938</ele>
        <time>2011-10-02T07:00:59Z</time>
      </trkpt>
      <trkpt lat="47.30888" lon="-1.35668">
        <ele>8.7891846</ele>
        <time>2011-10-02T07:01:07Z</time>
      </trkpt>
      <trkpt lat="47.30897" lon="-1.35658">
        <ele>8.7891846</ele>
        <time>2011-10-02T07:01:15Z</time>
      </trkpt>
      <trkpt lat="47.30906" lon="-1.35646">
        <ele>8.7891846</ele>
        <time>2011-10-02T07:01:23Z</time>
      </trkpt>
      <trkpt lat="47.30921" lon="-1.3563">
        <ele>8.7891846</ele>
        <time>2011-10-02T07:01:32Z</time>
      </trkpt>
      <trkpt lat="47.30934" lon="-1.35615">
        <ele>9.2698975</ele>
        <time>2011-10-02T07:01:40Z</time>
      </trkpt>
      <trkpt lat="47.30945" lon="-1.35603">
        <ele>9.2698975</ele>
        <time>2011-10-02T07:01:47Z</time>
      </trkpt>
      <trkpt lat="47.30962" lon="-1.35585">
        <ele>8.7891846</ele>
        <time>2011-10-02T07:01:56Z</time>
      </trkpt>
      <trkpt lat="47.30978" lon="-1.35566">
        <ele>8.7891846</ele>
        <time>2011-10-02T07:02:03Z</time>
      </trkpt>
      <trkpt lat="47.30999" lon="-1.35543">
        <ele>9.2698975</ele>
        <time>2011-10-02T07:02:09Z</time>
      </trkpt>
      <trkpt lat="47.31034" lon="-1.35503">
        <ele>9.2698975</ele>
        <time>2011-10-02T07:02:18Z</time>
      </trkpt>
      <trkpt lat="47.31074" lon="-1.35455">
        <ele>9.2698975</ele>
        <time>2011-10-02T07:02:28Z</time>
      </trkpt>
      <trkpt lat="47.31107" lon="-1.35412">
        <ele>9.2698975</ele>
        <time>2011-10-02T07:02:36Z</time>
      </trkpt>
      <trkpt lat="47.31137" lon="-1.35368">
        <ele>9.2698975</ele>
        <time>2011-10-02T07:02:44Z</time>
      </trkpt>
      <trkpt lat="47.31169" lon="-1.35316">
        <ele>9.2698975</ele>
        <time>2011-10-02T07:02:53Z</time>
      </trkpt>
      <trkpt lat="47.31202" lon="-1.35264">
        <ele>8.7891846</ele>
        <time>2011-10-02T07:03:02Z</time>
      </trkpt>
      <trkpt lat="47.31235" lon="-1.35213">
        <ele>8.3085938</ele>
        <time>2011-10-02T07:03:11Z</time>
      </trkpt>
      <trkpt lat="47.31263" lon="-1.35166">
        <ele>8.3085938</ele>
        <time>2011-10-02T07:03:19Z</time>
      </trkpt>
      <trkpt lat="47.31286" lon="-1.35126">
        <ele>8.3085938</ele>
        <time>2011-10-02T07:03:26Z</time>
      </trkpt>
      <trkpt lat="47.31302" lon="-1.35094">
        <ele>7.8278809</ele>
        <time>2011-10-02T07:03:32Z</time>
      </trkpt>
      <trkpt lat="47.31322" lon="-1.35081">
        <ele>6.8664551</ele>
        <time>2011-10-02T07:03:36Z</time>
      </trkpt>
      <trkpt lat="47.31327" lon="-1.35078">
        <ele>6.8664551</ele>
        <time>2011-10-02T07:03:39Z</time>
      </trkpt>
      <trkpt lat="47.31343" lon="-1.351">
        <ele>7.8278809</ele>
        <time>2011-10-02T07:03:40Z</time>
      </trkpt>
      <trkpt lat="47.31352" lon="-1.35098">
        <ele>9.2698975</ele>
        <time>2011-10-02T07:03:43Z</time>
      </trkpt>
      <trkpt lat="47.31353" lon="-1.35094">
        <ele>9.2698975</ele>
        <time>2011-10-02T07:03:44Z</time>
      </trkpt>
      <trkpt lat="47.3135" lon="-1.35084">
        <ele>10.231201</ele>
        <time>2011-10-02T07:03:47Z</time>
      </trkpt>
      <trkpt lat="47.31342" lon="-1.35091">
        <ele>10.711792</ele>
        <time>2011-10-02T07:03:50Z</time>
      </trkpt>
      <trkpt lat="47.3134" lon="-1.35095">
        <ele>10.711792</ele>
        <time>2011-10-02T07:03:51Z</time>
      </trkpt>
      <trkpt lat="47.31319" lon="-1.35126">
        <ele>11.673217</ele>
        <time>2011-10-02T07:03:59Z</time>
      </trkpt>
      <trkpt lat="47.31305" lon="-1.3515">
        <ele>13.115112</ele>
        <time>2011-10-02T07:04:06Z</time>
      </trkpt>
      <trkpt lat="47.31299" lon="-1.35169">
        <ele>15.037719</ele>
        <time>2011-10-02T07:04:11Z</time>
      </trkpt>
      <trkpt lat="47.31296" lon="-1.35179">
        <ele>16.479736</ele>
        <time>2011-10-02T07:04:15Z</time>
      </trkpt>
      <trkpt lat="47.31295" lon="-1.35182">
        <ele>17.441162</ele>
        <time>2011-10-02T07:04:16Z</time>
      </trkpt>
      <trkpt lat="47.31298" lon="-1.35194">
        <ele>19.84436</ele>
        <time>2011-10-02T07:04:21Z</time>
      </trkpt>
      <trkpt lat="47.31299" lon="-1.35196">
        <ele>20.324951</ele>
        <time>2011-10-02T07:04:22Z</time>
      </trkpt>
      <trkpt lat="47.31301" lon="-1.35201">
        <ele>20.805664</ele>
        <time>2011-10-02T07:04:24Z</time>
      </trkpt>
      <trkpt lat="47.31303" lon="-1.35204">
        <ele>21.286377</ele>
        <time>2011-10-02T07:04:25Z</time>
      </trkpt>
      <trkpt lat="47.31313" lon="-1.35222">
        <ele>24.170288</ele>
        <time>2011-10-02T07:04:32Z</time>
      </trkpt>
      <trkpt lat="47.3132" lon="-1.35244">
        <ele>26.092895</ele>
        <time>2011-10-02T07:04:39Z</time>
      </trkpt>
      <trkpt lat="47.31325" lon="-1.3526">
        <ele>27.534912</ele>
        <time>2011-10-02T07:04:43Z</time>
      </trkpt>
      <trkpt lat="47.31325" lon="-1.35275">
        <ele>28.496215</ele>
        <time>2011-10-02T07:04:48Z</time>
      </trkpt>
      <trkpt lat="47.31326" lon="-1.35287">
        <ele>30.418823</ele>
        <time>2011-10-02T07:04:52Z</time>
      </trkpt>
      <trkpt lat="47.31326" lon="-1.3529">
        <ele>30.899536</ele>
        <time>2011-10-02T07:04:53Z</time>
      </trkpt>
      <trkpt lat="47.3133" lon="-1.35299">
        <ele>30.899536</ele>
        <time>2011-10-02T07:04:58Z</time>
      </trkpt>
      <trkpt lat="47.31332" lon="-1.35312">
        <ele>31.860717</ele>
        <time>2011-10-02T07:05:03Z</time>
      </trkpt>
      <trkpt lat="47.31329" lon="-1.35327">
        <ele>32.341552</ele>
        <time>2011-10-02T07:05:10Z</time>
      </trkpt>
      <trkpt lat="47.31326" lon="-1.35338">
        <ele>32.822265</ele>
        <time>2011-10-02T07:05:17Z</time>
      </trkpt>
      <trkpt lat="47.31325" lon="-1.35341">
        <ele>33.302856</ele>
        <time>2011-10-02T07:05:19Z</time>
      </trkpt>
      <trkpt lat="47.31328" lon="-1.35354">
        <ele>36.66748</ele>
        <time>2011-10-02T07:05:26Z</time>
      </trkpt>
      <trkpt lat="47.31328" lon="-1.35365">
        <ele>37.628662</ele>
        <time>2011-10-02T07:05:32Z</time>
      </trkpt>
      <trkpt lat="47.31329" lon="-1.35366">
        <ele>38.109375</ele>
        <time>2011-10-02T07:05:35Z</time>
      </trkpt>
      <trkpt lat="47.31329" lon="-1.35375">
        <ele>38.590087</ele>
        <time>2011-10-02T07:05:39Z</time>
      </trkpt>
      <trkpt lat="47.31328" lon="-1.35374">
        <ele>38.590087</ele>
        <time>2011-10-02T07:05:40Z</time>
      </trkpt>
      <trkpt lat="47.31328" lon="-1.35377">
        <ele>39.070678</ele>
        <time>2011-10-02T07:05:46Z</time>
      </trkpt>
      <trkpt lat="47.31328" lon="-1.3538">
        <ele>39.070678</ele>
        <time>2011-10-02T07:05:48Z</time>
      </trkpt>
      <trkpt lat="47.31327" lon="-1.35386">
        <ele>40.512817</ele>
        <time>2011-10-02T07:05:51Z</time>
      </trkpt>
      <trkpt lat="47.31326" lon="-1.35391">
        <ele>41.954711</ele>
        <time>2011-10-02T07:05:55Z</time>
      </trkpt>
      <trkpt lat="47.31325" lon="-1.35392">
        <ele>41.954711</ele>
        <time>2011-10-02T07:06:01Z</time>
      </trkpt>
      <trkpt lat="47.31325" lon="-1.35393">
        <ele>41.954711</ele>
        <time>2011-10-02T07:06:02Z</time>
      </trkpt>
      <trkpt lat="47.31322" lon="-1.35406">
        <ele>43.877319</ele>
        <time>2011-10-02T07:06:06Z</time>
      </trkpt>
      <trkpt lat="47.31316" lon="-1.35434">
        <ele>46.280639</ele>
        <time>2011-10-02T07:06:15Z</time>
      </trkpt>
      <trkpt lat="47.31315" lon="-1.35455">
        <ele>48.203369</ele>
        <time>2011-10-02T07:06:21Z</time>
      </trkpt>
      <trkpt lat="47.31315" lon="-1.35471">
        <ele>50.125976</ele>
        <time>2011-10-02T07:06:26Z</time>
      </trkpt>
      <trkpt lat="47.31315" lon="-1.35474">
        <ele>50.125976</ele>
        <time>2011-10-02T07:06:27Z</time>
      </trkpt>
      <trkpt lat="47.31316" lon="-1.35499">
        <ele>52.529174</ele>
        <time>2011-10-02T07:06:35Z</time>
      </trkpt>
      <trkpt lat="47.31315" lon="-1.35524">
        <ele>53.971191</ele>
        <time>2011-10-02T07:06:43Z</time>
      </trkpt>
      <trkpt lat="47.31317" lon="-1.35541">
        <ele>56.374511</ele>
        <time>2011-10-02T07:06:49Z</time>
      </trkpt>
      <trkpt lat="47.31321" lon="-1.35571">
        <ele>57.816528</ele>
        <time>2011-10-02T07:06:58Z</time>
      </trkpt>
      <trkpt lat="47.31322" lon="-1.35601">
        <ele>59.258422</ele>
        <time>2011-10-02T07:07:06Z</time>
      </trkpt>
      <trkpt lat="47.31322" lon="-1.35615">
        <ele>60.700317</ele>
        <time>2011-10-02T07:07:10Z</time>
      </trkpt>
      <trkpt lat="47.31325" lon="-1.35641">
        <ele>62.142334</ele>
        <time>2011-10-02T07:07:17Z</time>
      </trkpt>
      <trkpt lat="47.31332" lon="-1.35672">
        <ele>64.065063</ele>
        <time>2011-10-02T07:07:26Z</time>
      </trkpt>
      <trkpt lat="47.31338" lon="-1.35699">
        <ele>65.98767</ele>
        <time>2011-10-02T07:07:33Z</time>
      </trkpt>
      <trkpt lat="47.31347" lon="-1.35731">
        <ele>66.468261</ele>
        <time>2011-10-02T07:07:41Z</time>
      </trkpt>
      <trkpt lat="47.31357" lon="-1.35759">
        <ele>67.429687</ele>
        <time>2011-10-02T07:07:48Z</time>
      </trkpt>
      <trkpt lat="47.31375" lon="-1.35807">
        <ele>69.352294</ele>
        <time>2011-10-02T07:07:59Z</time>
      </trkpt>
      <trkpt lat="47.31391" lon="-1.35849">
        <ele>70.794189</ele>
        <time>2011-10-02T07:08:09Z</time>
      </trkpt>
      <trkpt lat="47.31401" lon="-1.3587">
        <ele>71.274902</ele>
        <time>2011-10-02T07:08:15Z</time>
      </trkpt>
      <trkpt lat="47.31406" lon="-1.35885">
        <ele>71.755493</ele>
        <time>2011-10-02T07:08:20Z</time>
      </trkpt>
      <trkpt lat="47.31407" lon="-1.35892">
        <ele>71.755493</ele>
        <time>2011-10-02T07:08:25Z</time>
      </trkpt>
      <trkpt lat="47.31405" lon="-1.35892">
        <ele>72.236206</ele>
        <time>2011-10-02T07:08:26Z</time>
      </trkpt>
      <trkpt lat="47.31399" lon="-1.35884">
        <ele>71.755493</ele>
        <time>2011-10-02T07:08:30Z</time>
      </trkpt>
      <trkpt lat="47.31403" lon="-1.35876">
        <ele>71.755493</ele>
        <time>2011-10-02T07:08:34Z</time>
      </trkpt>
      <trkpt lat="47.31405" lon="-1.3588">
        <ele>71.755493</ele>
        <time>2011-10-02T07:08:36Z</time>
      </trkpt>
      <trkpt lat="47.31406" lon="-1.35883">
        <ele>71.755493</ele>
        <time>2011-10-02T07:08:39Z</time>
      </trkpt>
      <trkpt lat="47.31405" lon="-1.35881">
        <ele>71.755493</ele>
        <time>2011-10-02T07:09:53Z</time>
      </trkpt>
      <trkpt lat="47.3141" lon="-1.35895">
        <ele>73.197631</ele>
        <time>2011-10-02T07:09:58Z</time>
      </trkpt>
      <trkpt lat="47.31418" lon="-1.35913">
        <ele>72.716918</ele>
        <time>2011-10-02T07:10:05Z</time>
      </trkpt>
      <trkpt lat="47.31427" lon="-1.35935">
        <ele>73.678222</ele>
        <time>2011-10-02T07:10:14Z</time>
      </trkpt>
      <trkpt lat="47.3144" lon="-1.35956">
        <ele>74.158813</ele>
        <time>2011-10-02T07:10:22Z</time>
      </trkpt>
      <trkpt lat="47.31452" lon="-1.35971">
        <ele>74.639526</ele>
        <time>2011-10-02T07:10:28Z</time>
      </trkpt>
      <trkpt lat="47.31462" lon="-1.35984">
        <ele>75.120239</ele>
        <time>2011-10-02T07:10:35Z</time>
      </trkpt>
      <trkpt lat="47.31468" lon="-1.35988">
        <ele>75.120239</ele>
        <time>2011-10-02T07:10:40Z</time>
      </trkpt>
      <trkpt lat="47.31477" lon="-1.35996">
        <ele>75.60083</ele>
        <time>2011-10-02T07:10:47Z</time>
      </trkpt>
      <trkpt lat="47.31486" lon="-1.36002">
        <ele>75.60083</ele>
        <time>2011-10-02T07:10:53Z</time>
      </trkpt>
      <trkpt lat="47.31495" lon="-1.3601">
        <ele>75.60083</ele>
        <time>2011-10-02T07:10:59Z</time>
      </trkpt>
      <trkpt lat="47.31492" lon="-1.36002">
        <ele>76.08142</ele>
        <time>2011-10-02T07:11:04Z</time>
      </trkpt>
      <trkpt lat="47.31493" lon="-1.35999">
        <ele>75.60083</ele>
        <time>2011-10-02T07:11:05Z</time>
      </trkpt>
      <trkpt lat="47.31502" lon="-1.35963">
        <ele>74.639526</ele>
        <time>2011-10-02T07:11:12Z</time>
      </trkpt>
      <trkpt lat="47.31506" lon="-1.35918">
        <ele>73.678222</ele>
        <time>2011-10-02T07:11:19Z</time>
      </trkpt>
      <trkpt lat="47.31512" lon="-1.35871">
        <ele>73.197631</ele>
        <time>2011-10-02T07:11:26Z</time>
      </trkpt>
      <trkpt lat="47.31514" lon="-1.35864">
        <ele>73.678222</ele>
        <time>2011-10-02T07:11:27Z</time>
      </trkpt>
      <trkpt lat="47.31531" lon="-1.35811">
        <ele>72.236206</ele>
        <time>2011-10-02T07:11:35Z</time>
      </trkpt>
      <trkpt lat="47.31541" lon="-1.3578">
        <ele>71.755493</ele>
        <time>2011-10-02T07:11:40Z</time>
      </trkpt>
      <trkpt lat="47.31551" lon="-1.35745">
        <ele>70.794189</ele>
        <time>2011-10-02T07:11:45Z</time>
      </trkpt>
      <trkpt lat="47.31569" lon="-1.35682">
        <ele>69.352294</ele>
        <time>2011-10-02T07:11:53Z</time>
      </trkpt>
      <trkpt lat="47.3158" lon="-1.35645">
        <ele>68.390869</ele>
        <time>2011-10-02T07:11:58Z</time>
      </trkpt>
      <trkpt lat="47.316" lon="-1.35618">
        <ele>67.910278</ele>
        <time>2011-10-02T07:12:03Z</time>
      </trkpt>
      <trkpt lat="47.31605" lon="-1.35615">
        <ele>67.429687</ele>
        <time>2011-10-02T07:12:04Z</time>
      </trkpt>
      <trkpt lat="47.31613" lon="-1.35608">
        <ele>67.429687</ele>
        <time>2011-10-02T07:12:06Z</time>
      </trkpt>
      <trkpt lat="47.31628" lon="-1.35608">
        <ele>66.948974</ele>
        <time>2011-10-02T07:12:11Z</time>
      </trkpt>
      <trkpt lat="47.31632" lon="-1.35605">
        <ele>66.468261</ele>
        <time>2011-10-02T07:12:13Z</time>
      </trkpt>
      <trkpt lat="47.3164" lon="-1.35594">
        <ele>65.98767</ele>
        <time>2011-10-02T07:12:17Z</time>
      </trkpt>
      <trkpt lat="47.31653" lon="-1.35586">
        <ele>63.103637</ele>
        <time>2011-10-02T07:12:21Z</time>
      </trkpt>
      <trkpt lat="47.3167" lon="-1.35592">
        <ele>61.18103</ele>
        <time>2011-10-02T07:12:26Z</time>
      </trkpt>
      <trkpt lat="47.31678" lon="-1.35613">
        <ele>60.219726</ele>
        <time>2011-10-02T07:12:29Z</time>
      </trkpt>
      <trkpt lat="47.31689" lon="-1.35635">
        <ele>56.374511</ele>
        <time>2011-10-02T07:12:32Z</time>
      </trkpt>
      <trkpt lat="47.31699" lon="-1.35659">
        <ele>55.893798</ele>
        <time>2011-10-02T07:12:36Z</time>
      </trkpt>
      <trkpt lat="47.31703" lon="-1.35673">
        <ele>56.374511</ele>
        <time>2011-10-02T07:12:39Z</time>
      </trkpt>
      <trkpt lat="47.31712" lon="-1.35694">
        <ele>58.297119</ele>
        <time>2011-10-02T07:12:44Z</time>
      </trkpt>
      <trkpt lat="47.31723" lon="-1.3571">
        <ele>57.816528</ele>
        <time>2011-10-02T07:12:48Z</time>
      </trkpt>
      <trkpt lat="47.31736" lon="-1.35728">
        <ele>54.932373</ele>
        <time>2011-10-02T07:12:53Z</time>
      </trkpt>
      <trkpt lat="47.31751" lon="-1.3573">
        <ele>51.087158</ele>
        <time>2011-10-02T07:12:57Z</time>
      </trkpt>
      <trkpt lat="47.31754" lon="-1.35723">
        <ele>49.645263</ele>
        <time>2011-10-02T07:12:59Z</time>
      </trkpt>
      <trkpt lat="47.31755" lon="-1.3572">
        <ele>48.68396</ele>
        <time>2011-10-02T07:13:00Z</time>
      </trkpt>
      <trkpt lat="47.31766" lon="-1.35717">
        <ele>42.435424</ele>
        <time>2011-10-02T07:13:05Z</time>
      </trkpt>
      <trkpt lat="47.3177" lon="-1.35736">
        <ele>41.954711</ele>
        <time>2011-10-02T07:13:09Z</time>
      </trkpt>
      <trkpt lat="47.3177" lon="-1.35743">
        <ele>41.473999</ele>
        <time>2011-10-02T07:13:10Z</time>
      </trkpt>
      <trkpt lat="47.3177" lon="-1.35753">
        <ele>40.993408</ele>
        <time>2011-10-02T07:13:12Z</time>
      </trkpt>
      <trkpt lat="47.31772" lon="-1.35761">
        <ele>40.512817</ele>
        <time>2011-10-02T07:13:16Z</time>
      </trkpt>
      <trkpt lat="47.31782" lon="-1.3577">
        <ele>44.358032</ele>
        <time>2011-10-02T07:13:23Z</time>
      </trkpt>
      <trkpt lat="47.31782" lon="-1.35771">
        <ele>43.877319</ele>
        <time>2011-10-02T07:13:24Z</time>
      </trkpt>
      <trkpt lat="47.31781" lon="-1.35773">
        <ele>45.799926</ele>
        <time>2011-10-02T07:13:32Z</time>
      </trkpt>
      <trkpt lat="47.31782" lon="-1.35774">
        <ele>46.76123</ele>
        <time>2011-10-02T07:13:33Z</time>
      </trkpt>
      <trkpt lat="47.31783" lon="-1.35776">
        <ele>47.241821</ele>
        <time>2011-10-02T07:13:36Z</time>
      </trkpt>
      <trkpt lat="47.31785" lon="-1.35777">
        <ele>47.722534</ele>
        <time>2011-10-02T07:13:37Z</time>
      </trkpt>
      <trkpt lat="47.31787" lon="-1.3578">
        <ele>48.68396</ele>
        <time>2011-10-02T07:13:38Z</time>
      </trkpt>
      <trkpt lat="47.31793" lon="-1.35788">
        <ele>49.645263</ele>
        <time>2011-10-02T07:13:47Z</time>
      </trkpt>
      <trkpt lat="47.31794" lon="-1.35789">
        <ele>49.645263</ele>
        <time>2011-10-02T07:13:48Z</time>
      </trkpt>
      <trkpt lat="47.31796" lon="-1.35801">
        <ele>50.606567</ele>
        <time>2011-10-02T07:13:53Z</time>
      </trkpt>
      <trkpt lat="47.31796" lon="-1.35815">
        <ele>52.048584</ele>
        <time>2011-10-02T07:13:58Z</time>
      </trkpt>
      <trkpt lat="47.318" lon="-1.35824">
        <ele>51.567871</ele>
        <time>2011-10-02T07:14:03Z</time>
      </trkpt>
      <trkpt lat="47.31804" lon="-1.35835">
        <ele>51.087158</ele>
        <time>2011-10-02T07:14:07Z</time>
      </trkpt>
      <trkpt lat="47.31806" lon="-1.35854">
        <ele>53.490478</ele>
        <time>2011-10-02T07:14:14Z</time>
      </trkpt>
      <trkpt lat="47.31819" lon="-1.35875">
        <ele>50.125976</ele>
        <time>2011-10-02T07:14:20Z</time>
      </trkpt>
      <trkpt lat="47.31823" lon="-1.35878">
        <ele>50.125976</ele>
        <time>2011-10-02T07:14:21Z</time>
      </trkpt>
      <trkpt lat="47.31826" lon="-1.35882">
        <ele>49.645263</ele>
        <time>2011-10-02T07:14:22Z</time>
      </trkpt>
      <trkpt lat="47.31832" lon="-1.35897">
        <ele>50.125976</ele>
        <time>2011-10-02T07:14:26Z</time>
      </trkpt>
      <trkpt lat="47.31836" lon="-1.35911">
        <ele>52.048584</ele>
        <time>2011-10-02T07:14:31Z</time>
      </trkpt>
      <trkpt lat="47.31837" lon="-1.35914">
        <ele>52.048584</ele>
        <time>2011-10-02T07:14:32Z</time>
      </trkpt>
      <trkpt lat="47.31838" lon="-1.35916">
        <ele>52.048584</ele>
        <time>2011-10-02T07:14:33Z</time>
      </trkpt>
      <trkpt lat="47.31841" lon="-1.35927">
        <ele>54.932373</ele>
        <time>2011-10-02T07:14:37Z</time>
      </trkpt>
      <trkpt lat="47.31846" lon="-1.35944">
        <ele>55.893798</ele>
        <time>2011-10-02T07:14:43Z</time>
      </trkpt>
      <trkpt lat="47.3185" lon="-1.35953">
        <ele>56.374511</ele>
        <time>2011-10-02T07:14:46Z</time>
      </trkpt>
      <trkpt lat="47.31858" lon="-1.35971">
        <ele>57.816528</ele>
        <time>2011-10-02T07:14:52Z</time>
      </trkpt>
      <trkpt lat="47.3186" lon="-1.35975">
        <ele>57.816528</ele>
        <time>2011-10-02T07:14:54Z</time>
      </trkpt>
      <trkpt lat="47.31869" lon="-1.35994">
        <ele>56.374511</ele>
        <time>2011-10-02T07:15:00Z</time>
      </trkpt>
      <trkpt lat="47.31875" lon="-1.36006">
        <ele>56.374511</ele>
        <time>2011-10-02T07:15:04Z</time>
      </trkpt>
      <trkpt lat="47.31875" lon="-1.36017">
        <ele>59.739135</ele>
        <time>2011-10-02T07:15:09Z</time>
      </trkpt>
      <trkpt lat="47.31875" lon="-1.36018">
        <ele>58.77771</ele>
        <time>2011-10-02T07:15:10Z</time>
      </trkpt>
      <trkpt lat="47.31875" lon="-1.36019">
        <ele>59.258422</ele>
        <time>2011-10-02T07:15:11Z</time>
      </trkpt>
      <trkpt lat="47.31875" lon="-1.36022">
        <ele>59.739135</ele>
        <time>2011-10-02T07:15:15Z</time>
      </trkpt>
      <trkpt lat="47.31873" lon="-1.36027">
        <ele>60.700317</ele>
        <time>2011-10-02T07:15:18Z</time>
      </trkpt>
      <trkpt lat="47.31874" lon="-1.36035">
        <ele>60.700317</ele>
        <time>2011-10-02T07:15:23Z</time>
      </trkpt>
      <trkpt lat="47.31874" lon="-1.36037">
        <ele>61.661743</ele>
        <time>2011-10-02T07:15:25Z</time>
      </trkpt>
      <trkpt lat="47.31874" lon="-1.36039">
        <ele>61.18103</ele>
        <time>2011-10-02T07:15:28Z</time>
      </trkpt>
      <trkpt lat="47.31874" lon="-1.36046">
        <ele>60.700317</ele>
        <time>2011-10-02T07:15:30Z</time>
      </trkpt>
      <trkpt lat="47.31873" lon="-1.3605">
        <ele>60.700317</ele>
        <time>2011-10-02T07:15:33Z</time>
      </trkpt>
      <trkpt lat="47.31872" lon="-1.36053">
        <ele>60.700317</ele>
        <time>2011-10-02T07:15:38Z</time>
      </trkpt>
      <trkpt lat="47.31875" lon="-1.36068">
        <ele>61.18103</ele>
        <time>2011-10-02T07:15:44Z</time>
      </trkpt>
      <trkpt lat="47.31874" lon="-1.36078">
        <ele>62.142334</ele>
        <time>2011-10-02T07:15:47Z</time>
      </trkpt>
      <trkpt lat="47.31871" lon="-1.361">
        <ele>63.103637</ele>
        <time>2011-10-02T07:15:54Z</time>
      </trkpt>
      <trkpt lat="47.31868" lon="-1.36128">
        <ele>65.026367</ele>
        <time>2011-10-02T07:16:01Z</time>
      </trkpt>
      <trkpt lat="47.31862" lon="-1.36157">
        <ele>66.468261</ele>
        <time>2011-10-02T07:16:08Z</time>
      </trkpt>
      <trkpt lat="47.31859" lon="-1.36178">
        <ele>66.468261</ele>
        <time>2011-10-02T07:16:13Z</time>
      </trkpt>
      <trkpt lat="47.31858" lon="-1.36199">
        <ele>66.468261</ele>
        <time>2011-10-02T07:16:18Z</time>
      </trkpt>
      <trkpt lat="47.31858" lon="-1.36229">
        <ele>65.50708</ele>
        <time>2011-10-02T07:16:24Z</time>
      </trkpt>
      <trkpt lat="47.3186" lon="-1.36234">
        <ele>65.50708</ele>
        <time>2011-10-02T07:16:25Z</time>
      </trkpt>
      <trkpt lat="47.31868" lon="-1.36246">
        <ele>61.18103</ele>
        <time>2011-10-02T07:16:29Z</time>
      </trkpt>
      <trkpt lat="47.31878" lon="-1.36253">
        <ele>55.893798</ele>
        <time>2011-10-02T07:16:32Z</time>
      </trkpt>
      <trkpt lat="47.31881" lon="-1.36251">
        <ele>55.893798</ele>
        <time>2011-10-02T07:16:33Z</time>
      </trkpt>
      <trkpt lat="47.31891" lon="-1.36254">
        <ele>53.009765</ele>
        <time>2011-10-02T07:16:37Z</time>
      </trkpt>
      <trkpt lat="47.31899" lon="-1.36252">
        <ele>50.606567</ele>
        <time>2011-10-02T07:16:40Z</time>
      </trkpt>
      <trkpt lat="47.31915" lon="-1.36234">
        <ele>45.799926</ele>
        <time>2011-10-02T07:16:45Z</time>
      </trkpt>
      <trkpt lat="47.31922" lon="-1.36223">
        <ele>44.358032</ele>
        <time>2011-10-02T07:16:48Z</time>
      </trkpt>
      <trkpt lat="47.31924" lon="-1.36218">
        <ele>43.877319</ele>
        <time>2011-10-02T07:16:52Z</time>
      </trkpt>
      <trkpt lat="47.31924" lon="-1.36216">
        <ele>43.877319</ele>
        <time>2011-10-02T07:16:55Z</time>
      </trkpt>
      <trkpt lat="47.31924" lon="-1.36215">
        <ele>43.877319</ele>
        <time>2011-10-02T07:16:58Z</time>
      </trkpt>
      <trkpt lat="47.31924" lon="-1.36214">
        <ele>43.877319</ele>
        <time>2011-10-02T07:16:59Z</time>
      </trkpt>
      <trkpt lat="47.31924" lon="-1.36212">
        <ele>43.396606</ele>
        <time>2011-10-02T07:17:02Z</time>
      </trkpt>
      <trkpt lat="47.31927" lon="-1.36213">
        <ele>43.396606</ele>
        <time>2011-10-02T07:17:03Z</time>
      </trkpt>
      <trkpt lat="47.3193" lon="-1.36213">
        <ele>42.916015</ele>
        <time>2011-10-02T07:17:08Z</time>
      </trkpt>
      <trkpt lat="47.31941" lon="-1.36202">
        <ele>37.148071</ele>
        <time>2011-10-02T07:17:11Z</time>
      </trkpt>
      <trkpt lat="47.31955" lon="-1.36183">
        <ele>33.302856</ele>
        <time>2011-10-02T07:17:15Z</time>
      </trkpt>
      <trkpt lat="47.31977" lon="-1.36166">
        <ele>30.418823</ele>
        <time>2011-10-02T07:17:20Z</time>
      </trkpt>
      <trkpt lat="47.31988" lon="-1.36154">
        <ele>27.534912</ele>
        <time>2011-10-02T07:17:25Z</time>
      </trkpt>
      <trkpt lat="47.31989" lon="-1.36152">
        <ele>28.015502</ele>
        <time>2011-10-02T07:17:27Z</time>
      </trkpt>
      <trkpt lat="47.3199" lon="-1.3615">
        <ele>27.054321</ele>
        <time>2011-10-02T07:17:30Z</time>
      </trkpt>
      <trkpt lat="47.31994" lon="-1.36142">
        <ele>26.092895</ele>
        <time>2011-10-02T07:17:31Z</time>
      </trkpt>
      <trkpt lat="47.32" lon="-1.36136">
        <ele>24.651001</ele>
        <time>2011-10-02T07:17:34Z</time>
      </trkpt>
      <trkpt lat="47.32003" lon="-1.36139">
        <ele>24.651001</ele>
        <time>2011-10-02T07:17:38Z</time>
      </trkpt>
      <trkpt lat="47.31998" lon="-1.36138">
        <ele>24.651001</ele>
        <time>2011-10-02T07:17:45Z</time>
      </trkpt>
      <trkpt lat="47.31999" lon="-1.3614">
        <ele>24.651001</ele>
        <time>2011-10-02T07:17:46Z</time>
      </trkpt>
      <trkpt lat="47.32004" lon="-1.3615">
        <ele>26.092895</ele>
        <time>2011-10-02T07:17:50Z</time>
      </trkpt>
      <trkpt lat="47.32012" lon="-1.36169">
        <ele>27.534912</ele>
        <time>2011-10-02T07:17:56Z</time>
      </trkpt>
      <trkpt lat="47.32025" lon="-1.36185">
        <ele>28.976928</ele>
        <time>2011-10-02T07:18:02Z</time>
      </trkpt>
      <trkpt lat="47.32033" lon="-1.362">
        <ele>29.93811</ele>
        <time>2011-10-02T07:18:08Z</time>
      </trkpt>
      <trkpt lat="47.32037" lon="-1.36207">
        <ele>30.899536</ele>
        <time>2011-10-02T07:18:11Z</time>
      </trkpt>
      <trkpt lat="47.32044" lon="-1.36219">
        <ele>30.899536</ele>
        <time>2011-10-02T07:18:15Z</time>
      </trkpt>
      <trkpt lat="47.32052" lon="-1.36234">
        <ele>31.380127</ele>
        <time>2011-10-02T07:18:21Z</time>
      </trkpt>
      <trkpt lat="47.3206" lon="-1.36248">
        <ele>31.860717</ele>
        <time>2011-10-02T07:18:26Z</time>
      </trkpt>
      <trkpt lat="47.32063" lon="-1.36254">
        <ele>31.860717</ele>
        <time>2011-10-02T07:18:28Z</time>
      </trkpt>
      <trkpt lat="47.3207" lon="-1.36278">
        <ele>32.822265</ele>
        <time>2011-10-02T07:18:34Z</time>
      </trkpt>
      <trkpt lat="47.32075" lon="-1.36287">
        <ele>33.302856</ele>
        <time>2011-10-02T07:18:36Z</time>
      </trkpt>
      <trkpt lat="47.32083" lon="-1.36311">
        <ele>33.783447</ele>
        <time>2011-10-02T07:18:42Z</time>
      </trkpt>
      <trkpt lat="47.3209" lon="-1.36333">
        <ele>34.744873</ele>
        <time>2011-10-02T07:18:48Z</time>
      </trkpt>
      <trkpt lat="47.32095" lon="-1.36349">
        <ele>36.186767</ele>
        <time>2011-10-02T07:18:53Z</time>
      </trkpt>
      <trkpt lat="47.32101" lon="-1.36366">
        <ele>37.148071</ele>
        <time>2011-10-02T07:18:58Z</time>
      </trkpt>
      <trkpt lat="47.32107" lon="-1.36387">
        <ele>37.628662</ele>
        <time>2011-10-02T07:19:03Z</time>
      </trkpt>
      <trkpt lat="47.32109" lon="-1.36401">
        <ele>38.109375</ele>
        <time>2011-10-02T07:19:06Z</time>
      </trkpt>
      <trkpt lat="47.32125" lon="-1.36423">
        <ele>39.070678</ele>
        <time>2011-10-02T07:19:13Z</time>
      </trkpt>
      <trkpt lat="47.32131" lon="-1.36437">
        <ele>40.512817</ele>
        <time>2011-10-02T07:19:18Z</time>
      </trkpt>
      <trkpt lat="47.32142" lon="-1.36455">
        <ele>41.473999</ele>
        <time>2011-10-02T07:19:24Z</time>
      </trkpt>
      <trkpt lat="47.32147" lon="-1.36471">
        <ele>42.916015</ele>
        <time>2011-10-02T07:19:30Z</time>
      </trkpt>
      <trkpt lat="47.32153" lon="-1.3649">
        <ele>43.396606</ele>
        <time>2011-10-02T07:19:35Z</time>
      </trkpt>
      <trkpt lat="47.3216" lon="-1.36525">
        <ele>45.799926</ele>
        <time>2011-10-02T07:19:42Z</time>
      </trkpt>
      <trkpt lat="47.32159" lon="-1.36554">
        <ele>46.76123</ele>
        <time>2011-10-02T07:19:48Z</time>
      </trkpt>
      <trkpt lat="47.32154" lon="-1.36578">
        <ele>48.203369</ele>
        <time>2011-10-02T07:19:53Z</time>
      </trkpt>
      <trkpt lat="47.32159" lon="-1.36598">
        <ele>49.645263</ele>
        <time>2011-10-02T07:19:58Z</time>
      </trkpt>
      <trkpt lat="47.32171" lon="-1.36613">
        <ele>51.087158</ele>
        <time>2011-10-02T07:20:03Z</time>
      </trkpt>
      <trkpt lat="47.32179" lon="-1.36625">
        <ele>51.567871</ele>
        <time>2011-10-02T07:20:07Z</time>
      </trkpt>
      <trkpt lat="47.32192" lon="-1.36638">
        <ele>52.529174</ele>
        <time>2011-10-02T07:20:12Z</time>
      </trkpt>
      <trkpt lat="47.32206" lon="-1.36659">
        <ele>53.009765</ele>
        <time>2011-10-02T07:20:19Z</time>
      </trkpt>
      <trkpt lat="47.32209" lon="-1.36665">
        <ele>53.490478</ele>
        <time>2011-10-02T07:20:21Z</time>
      </trkpt>
      <trkpt lat="47.32219" lon="-1.36676">
        <ele>54.932373</ele>
        <time>2011-10-02T07:20:26Z</time>
      </trkpt>
      <trkpt lat="47.32225" lon="-1.36682">
        <ele>54.932373</ele>
        <time>2011-10-02T07:20:29Z</time>
      </trkpt>
      <trkpt lat="47.32239" lon="-1.36697">
        <ele>57.816528</ele>
        <time>2011-10-02T07:20:35Z</time>
      </trkpt>
      <trkpt lat="47.32257" lon="-1.36711">
        <ele>59.739135</ele>
        <time>2011-10-02T07:20:41Z</time>
      </trkpt>
      <trkpt lat="47.32279" lon="-1.36728">
        <ele>60.219726</ele>
        <time>2011-10-02T07:20:48Z</time>
      </trkpt>
      <trkpt lat="47.32301" lon="-1.36748">
        <ele>61.661743</ele>
        <time>2011-10-02T07:20:56Z</time>
      </trkpt>
      <trkpt lat="47.32319" lon="-1.36763">
        <ele>61.661743</ele>
        <time>2011-10-02T07:21:02Z</time>
      </trkpt>
      <trkpt lat="47.32337" lon="-1.36779">
        <ele>62.622924</ele>
        <time>2011-10-02T07:21:08Z</time>
      </trkpt>
      <trkpt lat="47.32357" lon="-1.36798">
        <ele>63.58435</ele>
        <time>2011-10-02T07:21:15Z</time>
      </trkpt>
      <trkpt lat="47.32373" lon="-1.36801">
        <ele>64.545654</ele>
        <time>2011-10-02T07:21:20Z</time>
      </trkpt>
      <trkpt lat="47.32384" lon="-1.36806">
        <ele>65.98767</ele>
        <time>2011-10-02T07:21:24Z</time>
      </trkpt>
      <trkpt lat="47.32405" lon="-1.36823">
        <ele>66.948974</ele>
        <time>2011-10-02T07:21:30Z</time>
      </trkpt>
      <trkpt lat="47.32427" lon="-1.36839">
        <ele>67.910278</ele>
        <time>2011-10-02T07:21:36Z</time>
      </trkpt>
      <trkpt lat="47.3244" lon="-1.36852">
        <ele>69.832885</ele>
        <time>2011-10-02T07:21:41Z</time>
      </trkpt>
      <trkpt lat="47.32441" lon="-1.36858">
        <ele>69.352294</ele>
        <time>2011-10-02T07:21:44Z</time>
      </trkpt>
      <trkpt lat="47.32442" lon="-1.36865">
        <ele>69.352294</ele>
        <time>2011-10-02T07:21:47Z</time>
      </trkpt>
      <trkpt lat="47.3244" lon="-1.36891">
        <ele>68.871582</ele>
        <time>2011-10-02T07:21:56Z</time>
      </trkpt>
      <trkpt lat="47.32436" lon="-1.36917">
        <ele>69.832885</ele>
        <time>2011-10-02T07:22:03Z</time>
      </trkpt>
      <trkpt lat="47.32432" lon="-1.36945">
        <ele>69.832885</ele>
        <time>2011-10-02T07:22:09Z</time>
      </trkpt>
      <trkpt lat="47.32423" lon="-1.3698">
        <ele>71.755493</ele>
        <time>2011-10-02T07:22:17Z</time>
      </trkpt>
      <trkpt lat="47.32412" lon="-1.37015">
        <ele>74.158813</ele>
        <time>2011-10-02T07:22:26Z</time>
      </trkpt>
      <trkpt lat="47.32411" lon="-1.37019">
        <ele>74.158813</ele>
        <time>2011-10-02T07:22:27Z</time>
      </trkpt>
      <trkpt lat="47.32407" lon="-1.37029">
        <ele>74.639526</ele>
        <time>2011-10-02T07:22:30Z</time>
      </trkpt>
      <trkpt lat="47.32398" lon="-1.37027">
        <ele>74.639526</ele>
        <time>2011-10-02T07:22:34Z</time>
      </trkpt>
      <trkpt lat="47.32376" lon="-1.36999">
        <ele>74.158813</ele>
        <time>2011-10-02T07:22:42Z</time>
      </trkpt>
      <trkpt lat="47.32368" lon="-1.36976">
        <ele>73.678222</ele>
        <time>2011-10-02T07:22:46Z</time>
      </trkpt>
      <trkpt lat="47.32366" lon="-1.36963">
        <ele>73.678222</ele>
        <time>2011-10-02T07:22:48Z</time>
      </trkpt>
      <trkpt lat="47.32358" lon="-1.36938">
        <ele>73.197631</ele>
        <time>2011-10-02T07:22:52Z</time>
      </trkpt>
      <trkpt lat="47.32356" lon="-1.36923">
        <ele>72.236206</ele>
        <time>2011-10-02T07:22:54Z</time>
      </trkpt>
      <trkpt lat="47.32346" lon="-1.36893">
        <ele>71.274902</ele>
        <time>2011-10-02T07:22:58Z</time>
      </trkpt>
      <trkpt lat="47.32334" lon="-1.36873">
        <ele>71.274902</ele>
        <time>2011-10-02T07:23:01Z</time>
      </trkpt>
      <trkpt lat="47.32304" lon="-1.36845">
        <ele>69.832885</ele>
        <time>2011-10-02T07:23:07Z</time>
      </trkpt>
      <trkpt lat="47.32299" lon="-1.3684">
        <ele>69.832885</ele>
        <time>2011-10-02T07:23:08Z</time>
      </trkpt>
      <trkpt lat="47.32274" lon="-1.36822">
        <ele>69.352294</ele>
        <time>2011-10-02T07:23:12Z</time>
      </trkpt>
      <trkpt lat="47.32236" lon="-1.36785">
        <ele>68.390869</ele>
        <time>2011-10-02T07:23:18Z</time>
      </trkpt>
      <trkpt lat="47.32217" lon="-1.36766">
        <ele>65.98767</ele>
        <time>2011-10-02T07:23:21Z</time>
      </trkpt>
      <trkpt lat="47.322" lon="-1.36744">
        <ele>65.50708</ele>
        <time>2011-10-02T07:23:24Z</time>
      </trkpt>
      <trkpt lat="47.32199" lon="-1.36718">
        <ele>64.065063</ele>
        <time>2011-10-02T07:23:28Z</time>
      </trkpt>
      <trkpt lat="47.32199" lon="-1.36691">
        <ele>60.700317</ele>
        <time>2011-10-02T07:23:33Z</time>
      </trkpt>
      <trkpt lat="47.32198" lon="-1.36686">
        <ele>60.219726</ele>
        <time>2011-10-02T07:23:34Z</time>
      </trkpt>
      <trkpt lat="47.32191" lon="-1.36668">
        <ele>56.374511</ele>
        <time>2011-10-02T07:23:37Z</time>
      </trkpt>
      <trkpt lat="47.32187" lon="-1.36662">
        <ele>55.413085</ele>
        <time>2011-10-02T07:23:38Z</time>
      </trkpt>
      <trkpt lat="47.32173" lon="-1.36631">
        <ele>51.567871</ele>
        <time>2011-10-02T07:23:42Z</time>
      </trkpt>
      <trkpt lat="47.32166" lon="-1.36618">
        <ele>49.645263</ele>
        <time>2011-10-02T07:23:45Z</time>
      </trkpt>
      <trkpt lat="47.32161" lon="-1.36613">
        <ele>49.16455</ele>
        <time>2011-10-02T07:23:47Z</time>
      </trkpt>
      <trkpt lat="47.32163" lon="-1.36603">
        <ele>50.606567</ele>
        <time>2011-10-02T07:23:51Z</time>
      </trkpt>
      <trkpt lat="47.32171" lon="-1.36613">
        <ele>51.087158</ele>
        <time>2011-10-02T07:23:56Z</time>
      </trkpt>
      <trkpt lat="47.32179" lon="-1.36623">
        <ele>52.048584</ele>
        <time>2011-10-02T07:24:02Z</time>
      </trkpt>
      <trkpt lat="47.32186" lon="-1.36631">
        <ele>52.529174</ele>
        <time>2011-10-02T07:24:07Z</time>
      </trkpt>
      <trkpt lat="47.32194" lon="-1.36638">
        <ele>53.490478</ele>
        <time>2011-10-02T07:24:12Z</time>
      </trkpt>
      <trkpt lat="47.32198" lon="-1.36645">
        <ele>54.451782</ele>
        <time>2011-10-02T07:24:18Z</time>
      </trkpt>
      <trkpt lat="47.32204" lon="-1.36655">
        <ele>54.932373</ele>
        <time>2011-10-02T07:24:24Z</time>
      </trkpt>
      <trkpt lat="47.3221" lon="-1.36664">
        <ele>55.413085</ele>
        <time>2011-10-02T07:24:30Z</time>
      </trkpt>
      <trkpt lat="47.32212" lon="-1.36666">
        <ele>55.413085</ele>
        <time>2011-10-02T07:24:33Z</time>
      </trkpt>
      <trkpt lat="47.32217" lon="-1.36673">
        <ele>55.413085</ele>
        <time>2011-10-02T07:24:48Z</time>
      </trkpt>
      <trkpt lat="47.32223" lon="-1.36678">
        <ele>55.893798</ele>
        <time>2011-10-02T07:24:52Z</time>
      </trkpt>
      <trkpt lat="47.32227" lon="-1.36683">
        <ele>56.374511</ele>
        <time>2011-10-02T07:24:56Z</time>
      </trkpt>
      <trkpt lat="47.32239" lon="-1.36696">
        <ele>57.816528</ele>
        <time>2011-10-02T07:25:01Z</time>
      </trkpt>
      <trkpt lat="47.32255" lon="-1.36709">
        <ele>59.258422</ele>
        <time>2011-10-02T07:25:06Z</time>
      </trkpt>
      <trkpt lat="47.32277" lon="-1.36726">
        <ele>61.18103</ele>
        <time>2011-10-02T07:25:13Z</time>
      </trkpt>
      <trkpt lat="47.32295" lon="-1.36745">
        <ele>62.142334</ele>
        <time>2011-10-02T07:25:20Z</time>
      </trkpt>
      <trkpt lat="47.32309" lon="-1.36755">
        <ele>62.622924</ele>
        <time>2011-10-02T07:25:25Z</time>
      </trkpt>
      <trkpt lat="47.32333" lon="-1.36774">
        <ele>63.103637</ele>
        <time>2011-10-02T07:25:32Z</time>
      </trkpt>
      <trkpt lat="47.32352" lon="-1.36795">
        <ele>63.58435</ele>
        <time>2011-10-02T07:25:38Z</time>
      </trkpt>
      <trkpt lat="47.32355" lon="-1.36797">
        <ele>64.065063</ele>
        <time>2011-10-02T07:25:39Z</time>
      </trkpt>
      <trkpt lat="47.32372" lon="-1.36801">
        <ele>65.50708</ele>
        <time>2011-10-02T07:25:44Z</time>
      </trkpt>
      <trkpt lat="47.32386" lon="-1.36809">
        <ele>66.948974</ele>
        <time>2011-10-02T07:25:49Z</time>
      </trkpt>
      <trkpt lat="47.32404" lon="-1.36821">
        <ele>67.910278</ele>
        <time>2011-10-02T07:25:54Z</time>
      </trkpt>
      <trkpt lat="47.32432" lon="-1.36843">
        <ele>69.352294</ele>
        <time>2011-10-02T07:26:02Z</time>
      </trkpt>
      <trkpt lat="47.32438" lon="-1.36849">
        <ele>69.832885</ele>
        <time>2011-10-02T07:26:04Z</time>
      </trkpt>
      <trkpt lat="47.32443" lon="-1.36844">
        <ele>70.794189</ele>
        <time>2011-10-02T07:26:08Z</time>
      </trkpt>
      <trkpt lat="47.32446" lon="-1.36814">
        <ele>72.716918</ele>
        <time>2011-10-02T07:26:15Z</time>
      </trkpt>
      <trkpt lat="47.3245" lon="-1.36778">
        <ele>74.639526</ele>
        <time>2011-10-02T07:26:22Z</time>
      </trkpt>
      <trkpt lat="47.32457" lon="-1.36727">
        <ele>75.120239</ele>
        <time>2011-10-02T07:26:31Z</time>
      </trkpt>
      <trkpt lat="47.32461" lon="-1.3668">
        <ele>76.562133</ele>
        <time>2011-10-02T07:26:40Z</time>
      </trkpt>
      <trkpt lat="47.32461" lon="-1.36634">
        <ele>77.523437</ele>
        <time>2011-10-02T07:26:49Z</time>
      </trkpt>
      <trkpt lat="47.32461" lon="-1.36585">
        <ele>78.004028</ele>
        <time>2011-10-02T07:26:58Z</time>
      </trkpt>
      <trkpt lat="47.32459" lon="-1.36552">
        <ele>78.004028</ele>
        <time>2011-10-02T07:27:04Z</time>
      </trkpt>
      <trkpt lat="47.32462" lon="-1.36497">
        <ele>78.004028</ele>
        <time>2011-10-02T07:27:13Z</time>
      </trkpt>
      <trkpt lat="47.32462" lon="-1.36473">
        <ele>77.523437</ele>
        <time>2011-10-02T07:27:19Z</time>
      </trkpt>
      <trkpt lat="47.32464" lon="-1.36446">
        <ele>77.042846</ele>
        <time>2011-10-02T07:27:24Z</time>
      </trkpt>
      <trkpt lat="47.32466" lon="-1.36419">
        <ele>76.562133</ele>
        <time>2011-10-02T07:27:28Z</time>
      </trkpt>
      <trkpt lat="47.32469" lon="-1.36356">
        <ele>75.120239</ele>
        <time>2011-10-02T07:27:36Z</time>
      </trkpt>
      <trkpt lat="47.32473" lon="-1.36323">
        <ele>74.639526</ele>
        <time>2011-10-02T07:27:40Z</time>
      </trkpt>
      <trkpt lat="47.32483" lon="-1.3629">
        <ele>73.197631</ele>
        <time>2011-10-02T07:27:44Z</time>
      </trkpt>
      <trkpt lat="47.32502" lon="-1.36246">
        <ele>69.832885</ele>
        <time>2011-10-02T07:27:49Z</time>
      </trkpt>
      <trkpt lat="47.32518" lon="-1.36194">
        <ele>67.910278</ele>
        <time>2011-10-02T07:27:53Z</time>
      </trkpt>
      <trkpt lat="47.32527" lon="-1.36162">
        <ele>63.58435</ele>
        <time>2011-10-02T07:27:55Z</time>
      </trkpt>
      <trkpt lat="47.32534" lon="-1.36146">
        <ele>60.700317</ele>
        <time>2011-10-02T07:27:56Z</time>
      </trkpt>
      <trkpt lat="47.32558" lon="-1.36105">
        <ele>54.932373</ele>
        <time>2011-10-02T07:27:59Z</time>
      </trkpt>
      <trkpt lat="47.32574" lon="-1.36077">
        <ele>49.645263</ele>
        <time>2011-10-02T07:28:01Z</time>
      </trkpt>
      <trkpt lat="47.32575" lon="-1.36028">
        <ele>43.877319</ele>
        <time>2011-10-02T07:28:04Z</time>
      </trkpt>
      <trkpt lat="47.32567" lon="-1.35994">
        <ele>42.435424</ele>
        <time>2011-10-02T07:28:06Z</time>
      </trkpt>
      <trkpt lat="47.32566" lon="-1.35964">
        <ele>42.916015</ele>
        <time>2011-10-02T07:28:08Z</time>
      </trkpt>
      <trkpt lat="47.32567" lon="-1.35942">
        <ele>43.877319</ele>
        <time>2011-10-02T07:28:12Z</time>
      </trkpt>
      <trkpt lat="47.32565" lon="-1.35941">
        <ele>43.877319</ele>
        <time>2011-10-02T07:28:14Z</time>
      </trkpt>
      <trkpt lat="47.32561" lon="-1.35961">
        <ele>43.396606</ele>
        <time>2011-10-02T07:28:19Z</time>
      </trkpt>
      <trkpt lat="47.32561" lon="-1.35984">
        <ele>41.954711</ele>
        <time>2011-10-02T07:28:22Z</time>
      </trkpt>
      <trkpt lat="47.32562" lon="-1.35992">
        <ele>41.954711</ele>
        <time>2011-10-02T07:28:23Z</time>
      </trkpt>
      <trkpt lat="47.32565" lon="-1.36013">
        <ele>40.032104</ele>
        <time>2011-10-02T07:28:28Z</time>
      </trkpt>
      <trkpt lat="47.32565" lon="-1.36015">
        <ele>39.551269</ele>
        <time>2011-10-02T07:28:29Z</time>
      </trkpt>
      <trkpt lat="47.32561" lon="-1.36026">
        <ele>35.706054</ele>
        <time>2011-10-02T07:28:32Z</time>
      </trkpt>
      <trkpt lat="47.32547" lon="-1.36028">
        <ele>35.225463</ele>
        <time>2011-10-02T07:28:36Z</time>
      </trkpt>
      <trkpt lat="47.32535" lon="-1.36035">
        <ele>34.744873</ele>
        <time>2011-10-02T07:28:41Z</time>
      </trkpt>
      <trkpt lat="47.32533" lon="-1.36033">
        <ele>34.744873</ele>
        <time>2011-10-02T07:28:45Z</time>
      </trkpt>
      <trkpt lat="47.3253" lon="-1.36032">
        <ele>34.26416</ele>
        <time>2011-10-02T07:28:46Z</time>
      </trkpt>
      <trkpt lat="47.32527" lon="-1.36039">
        <ele>34.26416</ele>
        <time>2011-10-02T07:28:49Z</time>
      </trkpt>
      <trkpt lat="47.32512" lon="-1.36035">
        <ele>34.26416</ele>
        <time>2011-10-02T07:28:54Z</time>
      </trkpt>
      <trkpt lat="47.32496" lon="-1.36039">
        <ele>34.744873</ele>
        <time>2011-10-02T07:28:59Z</time>
      </trkpt>
      <trkpt lat="47.3248" lon="-1.36047">
        <ele>34.744873</ele>
        <time>2011-10-02T07:29:04Z</time>
      </trkpt>
      <trkpt lat="47.3246" lon="-1.3606">
        <ele>34.26416</ele>
        <time>2011-10-02T07:29:09Z</time>
      </trkpt>
      <trkpt lat="47.32447" lon="-1.36069">
        <ele>34.26416</ele>
        <time>2011-10-02T07:29:12Z</time>
      </trkpt>
      <trkpt lat="47.32422" lon="-1.3608">
        <ele>33.783447</ele>
        <time>2011-10-02T07:29:17Z</time>
      </trkpt>
      <trkpt lat="47.32393" lon="-1.36088">
        <ele>33.302856</ele>
        <time>2011-10-02T07:29:21Z</time>
      </trkpt>
      <trkpt lat="47.32371" lon="-1.36096">
        <ele>33.783447</ele>
        <time>2011-10-02T07:29:25Z</time>
      </trkpt>
      <trkpt lat="47.32356" lon="-1.36102">
        <ele>34.744873</ele>
        <time>2011-10-02T07:29:29Z</time>
      </trkpt>
      <trkpt lat="47.32336" lon="-1.36103">
        <ele>33.783447</ele>
        <time>2011-10-02T07:29:34Z</time>
      </trkpt>
      <trkpt lat="47.3233" lon="-1.36102">
        <ele>33.783447</ele>
        <time>2011-10-02T07:29:35Z</time>
      </trkpt>
      <trkpt lat="47.32293" lon="-1.36079">
        <ele>32.341552</ele>
        <time>2011-10-02T07:29:41Z</time>
      </trkpt>
      <trkpt lat="47.3226" lon="-1.36045">
        <ele>31.380127</ele>
        <time>2011-10-02T07:29:47Z</time>
      </trkpt>
      <trkpt lat="47.32252" lon="-1.36035">
        <ele>30.899536</ele>
        <time>2011-10-02T07:29:49Z</time>
      </trkpt>
      <trkpt lat="47.32229" lon="-1.3601">
        <ele>29.93811</ele>
        <time>2011-10-02T07:29:55Z</time>
      </trkpt>
      <trkpt lat="47.32226" lon="-1.36007">
        <ele>29.457519</ele>
        <time>2011-10-02T07:29:56Z</time>
      </trkpt>
      <trkpt lat="47.32201" lon="-1.36006">
        <ele>28.976928</ele>
        <time>2011-10-02T07:30:01Z</time>
      </trkpt>
      <trkpt lat="47.32192" lon="-1.36008">
        <ele>29.93811</ele>
        <time>2011-10-02T07:30:03Z</time>
      </trkpt>
      <trkpt lat="47.3218" lon="-1.36008">
        <ele>29.93811</ele>
        <time>2011-10-02T07:30:08Z</time>
      </trkpt>
      <trkpt lat="47.32165" lon="-1.36014">
        <ele>29.93811</ele>
        <time>2011-10-02T07:30:13Z</time>
      </trkpt>
      <trkpt lat="47.32154" lon="-1.36018">
        <ele>29.93811</ele>
        <time>2011-10-02T07:30:17Z</time>
      </trkpt>
      <trkpt lat="47.32133" lon="-1.36023">
        <ele>29.93811</ele>
        <time>2011-10-02T07:30:23Z</time>
      </trkpt>
      <trkpt lat="47.32112" lon="-1.36026">
        <ele>28.496215</ele>
        <time>2011-10-02T07:30:28Z</time>
      </trkpt>
      <trkpt lat="47.3209" lon="-1.36036">
        <ele>27.534912</ele>
        <time>2011-10-02T07:30:33Z</time>
      </trkpt>
      <trkpt lat="47.32072" lon="-1.3604">
        <ele>27.054321</ele>
        <time>2011-10-02T07:30:37Z</time>
      </trkpt>
      <trkpt lat="47.32046" lon="-1.36043">
        <ele>26.092895</ele>
        <time>2011-10-02T07:30:43Z</time>
      </trkpt>
      <trkpt lat="47.32027" lon="-1.36054">
        <ele>26.092895</ele>
        <time>2011-10-02T07:30:47Z</time>
      </trkpt>
      <trkpt lat="47.32013" lon="-1.36058">
        <ele>26.092895</ele>
        <time>2011-10-02T07:30:51Z</time>
      </trkpt>
      <trkpt lat="47.32" lon="-1.36058">
        <ele>26.092895</ele>
        <time>2011-10-02T07:30:55Z</time>
      </trkpt>
      <trkpt lat="47.31995" lon="-1.36058">
        <ele>26.092895</ele>
        <time>2011-10-02T07:30:57Z</time>
      </trkpt>
      <trkpt lat="47.31986" lon="-1.36043">
        <ele>25.131713</ele>
        <time>2011-10-02T07:31:01Z</time>
      </trkpt>
      <trkpt lat="47.31978" lon="-1.36028">
        <ele>24.651001</ele>
        <time>2011-10-02T07:31:05Z</time>
      </trkpt>
      <trkpt lat="47.31969" lon="-1.3602">
        <ele>25.131713</ele>
        <time>2011-10-02T07:31:07Z</time>
      </trkpt>
      <trkpt lat="47.31961" lon="-1.36008">
        <ele>25.131713</ele>
        <time>2011-10-02T07:31:09Z</time>
      </trkpt>
      <trkpt lat="47.31951" lon="-1.35978">
        <ele>25.612304</ele>
        <time>2011-10-02T07:31:13Z</time>
      </trkpt>
      <trkpt lat="47.31946" lon="-1.35961">
        <ele>25.131713</ele>
        <time>2011-10-02T07:31:15Z</time>
      </trkpt>
      <trkpt lat="47.31945" lon="-1.35914">
        <ele>25.131713</ele>
        <time>2011-10-02T07:31:20Z</time>
      </trkpt>
      <trkpt lat="47.31929" lon="-1.35882">
        <ele>23.689575</ele>
        <time>2011-10-02T07:31:24Z</time>
      </trkpt>
      <trkpt lat="47.31911" lon="-1.35861">
        <ele>22.247558</ele>
        <time>2011-10-02T07:31:28Z</time>
      </trkpt>
      <trkpt lat="47.31902" lon="-1.35853">
        <ele>22.728271</ele>
        <time>2011-10-02T07:31:30Z</time>
      </trkpt>
      <trkpt lat="47.31892" lon="-1.35841">
        <ele>22.247558</ele>
        <time>2011-10-02T07:31:32Z</time>
      </trkpt>
      <trkpt lat="47.31881" lon="-1.35821">
        <ele>22.247558</ele>
        <time>2011-10-02T07:31:35Z</time>
      </trkpt>
      <trkpt lat="47.31875" lon="-1.35791">
        <ele>22.728271</ele>
        <time>2011-10-02T07:31:39Z</time>
      </trkpt>
      <trkpt lat="47.31874" lon="-1.3577">
        <ele>23.689575</ele>
        <time>2011-10-02T07:31:42Z</time>
      </trkpt>
      <trkpt lat="47.31869" lon="-1.35753">
        <ele>21.286377</ele>
        <time>2011-10-02T07:31:44Z</time>
      </trkpt>
      <trkpt lat="47.31861" lon="-1.35735">
        <ele>20.324951</ele>
        <time>2011-10-02T07:31:46Z</time>
      </trkpt>
      <trkpt lat="47.31848" lon="-1.35702">
        <ele>19.363769</ele>
        <time>2011-10-02T07:31:50Z</time>
      </trkpt>
      <trkpt lat="47.3184" lon="-1.3568">
        <ele>19.363769</ele>
        <time>2011-10-02T07:31:53Z</time>
      </trkpt>
      <trkpt lat="47.3183" lon="-1.35648">
        <ele>19.84436</ele>
        <time>2011-10-02T07:31:59Z</time>
      </trkpt>
      <trkpt lat="47.31829" lon="-1.35646">
        <ele>19.363769</ele>
        <time>2011-10-02T07:32:00Z</time>
      </trkpt>
      <trkpt lat="47.31825" lon="-1.35641">
        <ele>18.883056</ele>
        <time>2011-10-02T07:32:02Z</time>
      </trkpt>
      <trkpt lat="47.31823" lon="-1.35638">
        <ele>18.883056</ele>
        <time>2011-10-02T07:32:05Z</time>
      </trkpt>
      <trkpt lat="47.3182" lon="-1.35636">
        <ele>19.363769</ele>
        <time>2011-10-02T07:32:06Z</time>
      </trkpt>
      <trkpt lat="47.3181" lon="-1.35629">
        <ele>18.883056</ele>
        <time>2011-10-02T07:32:07Z</time>
      </trkpt>
      <trkpt lat="47.31789" lon="-1.35613">
        <ele>18.883056</ele>
        <time>2011-10-02T07:32:10Z</time>
      </trkpt>
      <trkpt lat="47.31776" lon="-1.35605">
        <ele>19.363769</ele>
        <time>2011-10-02T07:32:14Z</time>
      </trkpt>
      <trkpt lat="47.31762" lon="-1.35598">
        <ele>18.883056</ele>
        <time>2011-10-02T07:32:19Z</time>
      </trkpt>
      <trkpt lat="47.31747" lon="-1.35578">
        <ele>19.363769</ele>
        <time>2011-10-02T07:32:23Z</time>
      </trkpt>
      <trkpt lat="47.3174" lon="-1.35565">
        <ele>19.363769</ele>
        <time>2011-10-02T07:32:25Z</time>
      </trkpt>
      <trkpt lat="47.31731" lon="-1.35547">
        <ele>19.84436</ele>
        <time>2011-10-02T07:32:28Z</time>
      </trkpt>
      <trkpt lat="47.31722" lon="-1.35509">
        <ele>19.363769</ele>
        <time>2011-10-02T07:32:35Z</time>
      </trkpt>
      <trkpt lat="47.3172" lon="-1.35488">
        <ele>19.363769</ele>
        <time>2011-10-02T07:32:40Z</time>
      </trkpt>
      <trkpt lat="47.3172" lon="-1.35473">
        <ele>18.883056</ele>
        <time>2011-10-02T07:32:44Z</time>
      </trkpt>
      <trkpt lat="47.3172" lon="-1.35461">
        <ele>18.883056</ele>
        <time>2011-10-02T07:32:46Z</time>
      </trkpt>
      <trkpt lat="47.31718" lon="-1.35424">
        <ele>18.402343</ele>
        <time>2011-10-02T07:32:52Z</time>
      </trkpt>
      <trkpt lat="47.31719" lon="-1.35387">
        <ele>17.921752</ele>
        <time>2011-10-02T07:32:57Z</time>
      </trkpt>
      <trkpt lat="47.31719" lon="-1.35377">
        <ele>17.921752</ele>
        <time>2011-10-02T07:32:58Z</time>
      </trkpt>
      <trkpt lat="47.31713" lon="-1.35327">
        <ele>18.402343</ele>
        <time>2011-10-02T07:33:03Z</time>
      </trkpt>
      <trkpt lat="47.31709" lon="-1.35303">
        <ele>18.402343</ele>
        <time>2011-10-02T07:33:06Z</time>
      </trkpt>
      <trkpt lat="47.31707" lon="-1.35279">
        <ele>17.441162</ele>
        <time>2011-10-02T07:33:09Z</time>
      </trkpt>
      <trkpt lat="47.31703" lon="-1.35248">
        <ele>18.883056</ele>
        <time>2011-10-02T07:33:13Z</time>
      </trkpt>
      <trkpt lat="47.31701" lon="-1.35241">
        <ele>18.883056</ele>
        <time>2011-10-02T07:33:16Z</time>
      </trkpt>
      <trkpt lat="47.31701" lon="-1.35239">
        <ele>19.363769</ele>
        <time>2011-10-02T07:33:17Z</time>
      </trkpt>
      <trkpt lat="47.31696" lon="-1.35227">
        <ele>17.921752</ele>
        <time>2011-10-02T07:33:21Z</time>
      </trkpt>
      <trkpt lat="47.31695" lon="-1.35219">
        <ele>16.479736</ele>
        <time>2011-10-02T07:33:23Z</time>
      </trkpt>
      <trkpt lat="47.31696" lon="-1.35203">
        <ele>15.518432</ele>
        <time>2011-10-02T07:33:26Z</time>
      </trkpt>
      <trkpt lat="47.31697" lon="-1.35184">
        <ele>15.037719</ele>
        <time>2011-10-02T07:33:30Z</time>
      </trkpt>
      <trkpt lat="47.31703" lon="-1.35166">
        <ele>15.999023</ele>
        <time>2011-10-02T07:33:36Z</time>
      </trkpt>
      <trkpt lat="47.31711" lon="-1.35155">
        <ele>16.960449</ele>
        <time>2011-10-02T07:33:43Z</time>
      </trkpt>
      <trkpt lat="47.31715" lon="-1.35149">
        <ele>16.479736</ele>
        <time>2011-10-02T07:33:47Z</time>
      </trkpt>
      <trkpt lat="47.31723" lon="-1.35141">
        <ele>16.960449</ele>
        <time>2011-10-02T07:33:53Z</time>
      </trkpt>
      <trkpt lat="47.31734" lon="-1.35133">
        <ele>17.921752</ele>
        <time>2011-10-02T07:34:00Z</time>
      </trkpt>
      <trkpt lat="47.3174" lon="-1.35127">
        <ele>18.883056</ele>
        <time>2011-10-02T07:34:05Z</time>
      </trkpt>
      <trkpt lat="47.3175" lon="-1.35119">
        <ele>20.324951</ele>
        <time>2011-10-02T07:34:11Z</time>
      </trkpt>
      <trkpt lat="47.31758" lon="-1.35114">
        <ele>21.766967</ele>
        <time>2011-10-02T07:34:15Z</time>
      </trkpt>
      <trkpt lat="47.31762" lon="-1.35108">
        <ele>22.728271</ele>
        <time>2011-10-02T07:34:19Z</time>
      </trkpt>
      <trkpt lat="47.31767" lon="-1.35103">
        <ele>25.131713</ele>
        <time>2011-10-02T07:34:23Z</time>
      </trkpt>
      <trkpt lat="47.31773" lon="-1.35097">
        <ele>27.054321</ele>
        <time>2011-10-02T07:34:29Z</time>
      </trkpt>
      <trkpt lat="47.31784" lon="-1.35089">
        <ele>29.457519</ele>
        <time>2011-10-02T07:34:37Z</time>
      </trkpt>
      <trkpt lat="47.31788" lon="-1.35086">
        <ele>29.93811</ele>
        <time>2011-10-02T07:34:40Z</time>
      </trkpt>
      <trkpt lat="47.31788" lon="-1.35084">
        <ele>30.418823</ele>
        <time>2011-10-02T07:34:43Z</time>
      </trkpt>
      <trkpt lat="47.3179" lon="-1.35082">
        <ele>30.899536</ele>
        <time>2011-10-02T07:34:44Z</time>
      </trkpt>
      <trkpt lat="47.31793" lon="-1.35079">
        <ele>31.380127</ele>
        <time>2011-10-02T07:34:48Z</time>
      </trkpt>
      <trkpt lat="47.31797" lon="-1.35079">
        <ele>31.380127</ele>
        <time>2011-10-02T07:34:51Z</time>
      </trkpt>
      <trkpt lat="47.31798" lon="-1.35079">
        <ele>31.380127</ele>
        <time>2011-10-02T07:34:54Z</time>
      </trkpt>
      <trkpt lat="47.31799" lon="-1.35078">
        <ele>31.860717</ele>
        <time>2011-10-02T07:34:55Z</time>
      </trkpt>
      <trkpt lat="47.31802" lon="-1.35073">
        <ele>32.822265</ele>
        <time>2011-10-02T07:34:56Z</time>
      </trkpt>
      <trkpt lat="47.31804" lon="-1.35068">
        <ele>34.26416</ele>
        <time>2011-10-02T07:34:59Z</time>
      </trkpt>
      <trkpt lat="47.31808" lon="-1.35059">
        <ele>35.706054</ele>
        <time>2011-10-02T07:35:04Z</time>
      </trkpt>
      <trkpt lat="47.31809" lon="-1.35057">
        <ele>36.66748</ele>
        <time>2011-10-02T07:35:05Z</time>
      </trkpt>
      <trkpt lat="47.31817" lon="-1.35041">
        <ele>38.109375</ele>
        <time>2011-10-02T07:35:11Z</time>
      </trkpt>
      <trkpt lat="47.31824" lon="-1.35033">
        <ele>39.070678</ele>
        <time>2011-10-02T07:35:17Z</time>
      </trkpt>
      <trkpt lat="47.31829" lon="-1.35026">
        <ele>40.993408</ele>
        <time>2011-10-02T07:35:23Z</time>
      </trkpt>
      <trkpt lat="47.31832" lon="-1.35021">
        <ele>41.473999</ele>
        <time>2011-10-02T07:35:26Z</time>
      </trkpt>
      <trkpt lat="47.3184" lon="-1.35002">
        <ele>43.877319</ele>
        <time>2011-10-02T07:35:34Z</time>
      </trkpt>
      <trkpt lat="47.31847" lon="-1.34988">
        <ele>45.319213</ele>
        <time>2011-10-02T07:35:39Z</time>
      </trkpt>
      <trkpt lat="47.31856" lon="-1.34977">
        <ele>46.76123</ele>
        <time>2011-10-02T07:35:45Z</time>
      </trkpt>
      <trkpt lat="47.31863" lon="-1.34967">
        <ele>47.722534</ele>
        <time>2011-10-02T07:35:50Z</time>
      </trkpt>
      <trkpt lat="47.31866" lon="-1.34959">
        <ele>49.16455</ele>
        <time>2011-10-02T07:35:54Z</time>
      </trkpt>
      <trkpt lat="47.31874" lon="-1.34948">
        <ele>51.087158</ele>
        <time>2011-10-02T07:36:00Z</time>
      </trkpt>
      <trkpt lat="47.31882" lon="-1.34934">
        <ele>53.971191</ele>
        <time>2011-10-02T07:36:06Z</time>
      </trkpt>
      <trkpt lat="47.31883" lon="-1.34931">
        <ele>54.451782</ele>
        <time>2011-10-02T07:36:07Z</time>
      </trkpt>
      <trkpt lat="47.31885" lon="-1.34913">
        <ele>56.855102</ele>
        <time>2011-10-02T07:36:14Z</time>
      </trkpt>
      <trkpt lat="47.31884" lon="-1.34898">
        <ele>59.739135</ele>
        <time>2011-10-02T07:36:21Z</time>
      </trkpt>
      <trkpt lat="47.31881" lon="-1.34888">
        <ele>61.661743</ele>
        <time>2011-10-02T07:36:26Z</time>
      </trkpt>
      <trkpt lat="47.31874" lon="-1.3488">
        <ele>63.58435</ele>
        <time>2011-10-02T07:36:33Z</time>
      </trkpt>
      <trkpt lat="47.31872" lon="-1.34878">
        <ele>63.58435</ele>
        <time>2011-10-02T07:36:36Z</time>
      </trkpt>
      <trkpt lat="47.31869" lon="-1.34883">
        <ele>63.58435</ele>
        <time>2011-10-02T07:36:42Z</time>
      </trkpt>
      <trkpt lat="47.31867" lon="-1.34889">
        <ele>63.58435</ele>
        <time>2011-10-02T07:36:47Z</time>
      </trkpt>
      <trkpt lat="47.31866" lon="-1.34889">
        <ele>63.58435</ele>
        <time>2011-10-02T07:36:49Z</time>
      </trkpt>
      <trkpt lat="47.31864" lon="-1.34886">
        <ele>63.103637</ele>
        <time>2011-10-02T07:37:29Z</time>
      </trkpt>
      <trkpt lat="47.31863" lon="-1.34885">
        <ele>63.103637</ele>
        <time>2011-10-02T07:37:30Z</time>
      </trkpt>
      <trkpt lat="47.31867" lon="-1.34878">
        <ele>63.103637</ele>
        <time>2011-10-02T07:37:34Z</time>
      </trkpt>
      <trkpt lat="47.31872" lon="-1.34876">
        <ele>63.103637</ele>
        <time>2011-10-02T07:37:37Z</time>
      </trkpt>
      <trkpt lat="47.31881" lon="-1.34861">
        <ele>64.065063</ele>
        <time>2011-10-02T07:37:44Z</time>
      </trkpt>
      <trkpt lat="47.31878" lon="-1.34842">
        <ele>65.026367</ele>
        <time>2011-10-02T07:37:49Z</time>
      </trkpt>
      <trkpt lat="47.31875" lon="-1.34825">
        <ele>65.026367</ele>
        <time>2011-10-02T07:37:53Z</time>
      </trkpt>
      <trkpt lat="47.31883" lon="-1.34809">
        <ele>65.50708</ele>
        <time>2011-10-02T07:37:58Z</time>
      </trkpt>
      <trkpt lat="47.31896" lon="-1.34802">
        <ele>66.468261</ele>
        <time>2011-10-02T07:38:02Z</time>
      </trkpt>
      <trkpt lat="47.31908" lon="-1.34795">
        <ele>67.910278</ele>
        <time>2011-10-02T07:38:06Z</time>
      </trkpt>
      <trkpt lat="47.31911" lon="-1.34781">
        <ele>67.910278</ele>
        <time>2011-10-02T07:38:10Z</time>
      </trkpt>
      <trkpt lat="47.31911" lon="-1.34748">
        <ele>66.948974</ele>
        <time>2011-10-02T07:38:18Z</time>
      </trkpt>
      <trkpt lat="47.31911" lon="-1.34737">
        <ele>65.98767</ele>
        <time>2011-10-02T07:38:21Z</time>
      </trkpt>
      <trkpt lat="47.3191" lon="-1.34728">
        <ele>65.98767</ele>
        <time>2011-10-02T07:38:27Z</time>
      </trkpt>
      <trkpt lat="47.31909" lon="-1.34723">
        <ele>66.948974</ele>
        <time>2011-10-02T07:39:50Z</time>
      </trkpt>
      <trkpt lat="47.31908" lon="-1.34713">
        <ele>66.468261</ele>
        <time>2011-10-02T07:39:54Z</time>
      </trkpt>
      <trkpt lat="47.31907" lon="-1.34705">
        <ele>65.98767</ele>
        <time>2011-10-02T07:39:56Z</time>
      </trkpt>
      <trkpt lat="47.31914" lon="-1.3469">
        <ele>65.98767</ele>
        <time>2011-10-02T07:40:00Z</time>
      </trkpt>
      <trkpt lat="47.31932" lon="-1.34676">
        <ele>66.948974</ele>
        <time>2011-10-02T07:40:08Z</time>
      </trkpt>
      <trkpt lat="47.31946" lon="-1.34661">
        <ele>66.948974</ele>
        <time>2011-10-02T07:40:14Z</time>
      </trkpt>
      <trkpt lat="47.31946" lon="-1.34641">
        <ele>66.948974</ele>
        <time>2011-10-02T07:40:20Z</time>
      </trkpt>
      <trkpt lat="47.31943" lon="-1.34623">
        <ele>65.98767</ele>
        <time>2011-10-02T07:40:23Z</time>
      </trkpt>
      <trkpt lat="47.31937" lon="-1.34599">
        <ele>64.545654</ele>
        <time>2011-10-02T07:40:27Z</time>
      </trkpt>
      <trkpt lat="47.31942" lon="-1.34584">
        <ele>65.026367</ele>
        <time>2011-10-02T07:40:32Z</time>
      </trkpt>
      <trkpt lat="47.31966" lon="-1.34566">
        <ele>65.98767</ele>
        <time>2011-10-02T07:40:42Z</time>
      </trkpt>
      <trkpt lat="47.31987" lon="-1.34547">
        <ele>66.948974</ele>
        <time>2011-10-02T07:40:50Z</time>
      </trkpt>
      <trkpt lat="47.32015" lon="-1.34522">
        <ele>68.871582</ele>
        <time>2011-10-02T07:41:00Z</time>
      </trkpt>
      <trkpt lat="47.32031" lon="-1.34506">
        <ele>70.313476</ele>
        <time>2011-10-02T07:41:06Z</time>
      </trkpt>
      <trkpt lat="47.32052" lon="-1.34488">
        <ele>71.755493</ele>
        <time>2011-10-02T07:41:13Z</time>
      </trkpt>
      <trkpt lat="47.32069" lon="-1.34473">
        <ele>73.197631</ele>
        <time>2011-10-02T07:41:19Z</time>
      </trkpt>
      <trkpt lat="47.32092" lon="-1.34452">
        <ele>75.120239</ele>
        <time>2011-10-02T07:41:27Z</time>
      </trkpt>
      <trkpt lat="47.32118" lon="-1.3443">
        <ele>77.042846</ele>
        <time>2011-10-02T07:41:36Z</time>
      </trkpt>
      <trkpt lat="47.32139" lon="-1.34411">
        <ele>78.004028</ele>
        <time>2011-10-02T07:41:43Z</time>
      </trkpt>
      <trkpt lat="47.32169" lon="-1.34392">
        <ele>79.446044</ele>
        <time>2011-10-02T07:41:52Z</time>
      </trkpt>
      <trkpt lat="47.32199" lon="-1.34379">
        <ele>81.368774</ele>
        <time>2011-10-02T07:42:00Z</time>
      </trkpt>
      <trkpt lat="47.32236" lon="-1.34365">
        <ele>80.40747</ele>
        <time>2011-10-02T07:42:09Z</time>
      </trkpt>
      <trkpt lat="47.32272" lon="-1.34348">
        <ele>80.888183</ele>
        <time>2011-10-02T07:42:18Z</time>
      </trkpt>
      <trkpt lat="47.32305" lon="-1.34333">
        <ele>79.446044</ele>
        <time>2011-10-02T07:42:26Z</time>
      </trkpt>
      <trkpt lat="47.3235" lon="-1.34314">
        <ele>78.965454</ele>
        <time>2011-10-02T07:42:36Z</time>
      </trkpt>
      <trkpt lat="47.32383" lon="-1.343">
        <ele>78.484741</ele>
        <time>2011-10-02T07:42:43Z</time>
      </trkpt>
      <trkpt lat="47.32393" lon="-1.34296">
        <ele>78.004028</ele>
        <time>2011-10-02T07:42:45Z</time>
      </trkpt>
      <trkpt lat="47.32422" lon="-1.34284">
        <ele>78.004028</ele>
        <time>2011-10-02T07:42:51Z</time>
      </trkpt>
      <trkpt lat="47.3244" lon="-1.34278">
        <ele>76.562133</ele>
        <time>2011-10-02T07:42:55Z</time>
      </trkpt>
      <trkpt lat="47.32453" lon="-1.34272">
        <ele>77.042846</ele>
        <time>2011-10-02T07:42:58Z</time>
      </trkpt>
      <trkpt lat="47.32461" lon="-1.34268">
        <ele>77.042846</ele>
        <time>2011-10-02T07:43:00Z</time>
      </trkpt>
      <trkpt lat="47.32505" lon="-1.34249">
        <ele>77.523437</ele>
        <time>2011-10-02T07:43:10Z</time>
      </trkpt>
      <trkpt lat="47.32545" lon="-1.34233">
        <ele>78.004028</ele>
        <time>2011-10-02T07:43:19Z</time>
      </trkpt>
      <trkpt lat="47.32577" lon="-1.3422">
        <ele>79.446044</ele>
        <time>2011-10-02T07:43:26Z</time>
      </trkpt>
      <trkpt lat="47.32604" lon="-1.34209">
        <ele>80.40747</ele>
        <time>2011-10-02T07:43:32Z</time>
      </trkpt>
      <trkpt lat="47.32628" lon="-1.34198">
        <ele>80.40747</ele>
        <time>2011-10-02T07:43:38Z</time>
      </trkpt>
      <trkpt lat="47.32663" lon="-1.34185">
        <ele>81.368774</ele>
        <time>2011-10-02T07:43:47Z</time>
      </trkpt>
      <trkpt lat="47.3269" lon="-1.34173">
        <ele>82.330078</ele>
        <time>2011-10-02T07:43:53Z</time>
      </trkpt>
      <trkpt lat="47.32718" lon="-1.34162">
        <ele>81.849365</ele>
        <time>2011-10-02T07:43:59Z</time>
      </trkpt>
      <trkpt lat="47.32744" lon="-1.3415">
        <ele>80.40747</ele>
        <time>2011-10-02T07:44:05Z</time>
      </trkpt>
      <trkpt lat="47.32785" lon="-1.34133">
        <ele>78.484741</ele>
        <time>2011-10-02T07:44:12Z</time>
      </trkpt>
      <trkpt lat="47.32821" lon="-1.34118">
        <ele>76.08142</ele>
        <time>2011-10-02T07:44:17Z</time>
      </trkpt>
      <trkpt lat="47.3286" lon="-1.34103">
        <ele>74.158813</ele>
        <time>2011-10-02T07:44:22Z</time>
      </trkpt>
      <trkpt lat="47.32904" lon="-1.34083">
        <ele>70.794189</ele>
        <time>2011-10-02T07:44:28Z</time>
      </trkpt>
      <trkpt lat="47.32918" lon="-1.34076">
        <ele>69.832885</ele>
        <time>2011-10-02T07:44:30Z</time>
      </trkpt>
      <trkpt lat="47.32939" lon="-1.34047">
        <ele>68.390869</ele>
        <time>2011-10-02T07:44:34Z</time>
      </trkpt>
      <trkpt lat="47.32944" lon="-1.34025">
        <ele>67.910278</ele>
        <time>2011-10-02T07:44:36Z</time>
      </trkpt>
      <trkpt lat="47.32963" lon="-1.33972">
        <ele>65.98767</ele>
        <time>2011-10-02T07:44:41Z</time>
      </trkpt>
      <trkpt lat="47.32986" lon="-1.33908">
        <ele>63.103637</ele>
        <time>2011-10-02T07:44:47Z</time>
      </trkpt>
      <trkpt lat="47.33021" lon="-1.33816">
        <ele>59.739135</ele>
        <time>2011-10-02T07:44:55Z</time>
      </trkpt>
      <trkpt lat="47.33025" lon="-1.33804">
        <ele>59.739135</ele>
        <time>2011-10-02T07:44:56Z</time>
      </trkpt>
      <trkpt lat="47.33051" lon="-1.3375">
        <ele>56.374511</ele>
        <time>2011-10-02T07:45:01Z</time>
      </trkpt>
      <trkpt lat="47.33079" lon="-1.33695">
        <ele>53.971191</ele>
        <time>2011-10-02T07:45:06Z</time>
      </trkpt>
      <trkpt lat="47.33084" lon="-1.33684">
        <ele>54.451782</ele>
        <time>2011-10-02T07:45:07Z</time>
      </trkpt>
      <trkpt lat="47.33095" lon="-1.33647">
        <ele>51.567871</ele>
        <time>2011-10-02T07:45:10Z</time>
      </trkpt>
      <trkpt lat="47.33116" lon="-1.33572">
        <ele>48.68396</ele>
        <time>2011-10-02T07:45:16Z</time>
      </trkpt>
      <trkpt lat="47.33124" lon="-1.3353">
        <ele>46.76123</ele>
        <time>2011-10-02T07:45:19Z</time>
      </trkpt>
      <trkpt lat="47.33115" lon="-1.33475">
        <ele>45.799926</ele>
        <time>2011-10-02T07:45:23Z</time>
      </trkpt>
      <trkpt lat="47.33099" lon="-1.33441">
        <ele>42.916015</ele>
        <time>2011-10-02T07:45:26Z</time>
      </trkpt>
      <trkpt lat="47.33068" lon="-1.33412">
        <ele>41.954711</ele>
        <time>2011-10-02T07:45:30Z</time>
      </trkpt>
      <trkpt lat="47.33053" lon="-1.33397">
        <ele>40.512817</ele>
        <time>2011-10-02T07:45:32Z</time>
      </trkpt>
      <trkpt lat="47.33031" lon="-1.33374">
        <ele>39.070678</ele>
        <time>2011-10-02T07:45:35Z</time>
      </trkpt>
      <trkpt lat="47.33008" lon="-1.3335">
        <ele>37.628662</ele>
        <time>2011-10-02T07:45:39Z</time>
      </trkpt>
      <trkpt lat="47.32998" lon="-1.33339">
        <ele>36.66748</ele>
        <time>2011-10-02T07:45:41Z</time>
      </trkpt>
      <trkpt lat="47.3297" lon="-1.33309">
        <ele>35.706054</ele>
        <time>2011-10-02T07:45:46Z</time>
      </trkpt>
      <trkpt lat="47.32948" lon="-1.33282">
        <ele>34.744873</ele>
        <time>2011-10-02T07:45:49Z</time>
      </trkpt>
      <trkpt lat="47.32926" lon="-1.33244">
        <ele>38.109375</ele>
        <time>2011-10-02T07:45:54Z</time>
      </trkpt>
      <trkpt lat="47.32921" lon="-1.33236">
        <ele>39.551269</ele>
        <time>2011-10-02T07:45:57Z</time>
      </trkpt>
      <trkpt lat="47.32919" lon="-1.33233">
        <ele>40.032104</ele>
        <time>2011-10-02T07:45:58Z</time>
      </trkpt>
      <trkpt lat="47.32917" lon="-1.33218">
        <ele>41.954711</ele>
        <time>2011-10-02T07:46:03Z</time>
      </trkpt>
      <trkpt lat="47.32916" lon="-1.33213">
        <ele>41.473999</ele>
        <time>2011-10-02T07:46:05Z</time>
      </trkpt>
      <trkpt lat="47.32914" lon="-1.33199">
        <ele>44.358032</ele>
        <time>2011-10-02T07:46:12Z</time>
      </trkpt>
      <trkpt lat="47.3291" lon="-1.33188">
        <ele>44.838623</ele>
        <time>2011-10-02T07:46:17Z</time>
      </trkpt>
      <trkpt lat="47.32905" lon="-1.33176">
        <ele>46.76123</ele>
        <time>2011-10-02T07:46:22Z</time>
      </trkpt>
      <trkpt lat="47.329" lon="-1.33167">
        <ele>48.203369</ele>
        <time>2011-10-02T07:46:27Z</time>
      </trkpt>
      <trkpt lat="47.32894" lon="-1.3316">
        <ele>49.645263</ele>
        <time>2011-10-02T07:46:32Z</time>
      </trkpt>
      <trkpt lat="47.32893" lon="-1.33155">
        <ele>50.606567</ele>
        <time>2011-10-02T07:46:34Z</time>
      </trkpt>
      <trkpt lat="47.32888" lon="-1.33146">
        <ele>50.606567</ele>
        <time>2011-10-02T07:46:39Z</time>
      </trkpt>
      <trkpt lat="47.32886" lon="-1.33143">
        <ele>51.567871</ele>
        <time>2011-10-02T07:46:41Z</time>
      </trkpt>
      <trkpt lat="47.3289" lon="-1.33134">
        <ele>54.451782</ele>
        <time>2011-10-02T07:46:47Z</time>
      </trkpt>
      <trkpt lat="47.32899" lon="-1.33132">
        <ele>56.855102</ele>
        <time>2011-10-02T07:46:55Z</time>
      </trkpt>
      <trkpt lat="47.32904" lon="-1.33124">
        <ele>58.77771</ele>
        <time>2011-10-02T07:47:01Z</time>
      </trkpt>
      <trkpt lat="47.32905" lon="-1.33123">
        <ele>59.739135</ele>
        <time>2011-10-02T07:47:02Z</time>
      </trkpt>
      <trkpt lat="47.3291" lon="-1.33118">
        <ele>61.18103</ele>
        <time>2011-10-02T07:47:08Z</time>
      </trkpt>
      <trkpt lat="47.32913" lon="-1.33115">
        <ele>61.18103</ele>
        <time>2011-10-02T07:47:22Z</time>
      </trkpt>
      <trkpt lat="47.32913" lon="-1.33115">
        <ele>61.18103</ele>
        <time>2011-10-02T07:47:23Z</time>
      </trkpt>
      <trkpt lat="47.32913" lon="-1.33113">
        <ele>61.661743</ele>
        <time>2011-10-02T07:47:30Z</time>
      </trkpt>
      <trkpt lat="47.32914" lon="-1.33112">
        <ele>62.142334</ele>
        <time>2011-10-02T07:47:31Z</time>
      </trkpt>
      <trkpt lat="47.32916" lon="-1.33108">
        <ele>62.142334</ele>
        <time>2011-10-02T07:47:38Z</time>
      </trkpt>
      <trkpt lat="47.32916" lon="-1.33107">
        <ele>62.622924</ele>
        <time>2011-10-02T07:47:42Z</time>
      </trkpt>
      <trkpt lat="47.3292" lon="-1.33097">
        <ele>65.026367</ele>
        <time>2011-10-02T07:47:47Z</time>
      </trkpt>
      <trkpt lat="47.32928" lon="-1.33082">
        <ele>65.98767</ele>
        <time>2011-10-02T07:47:54Z</time>
      </trkpt>
      <trkpt lat="47.32937" lon="-1.33054">
        <ele>67.910278</ele>
        <time>2011-10-02T07:48:03Z</time>
      </trkpt>
      <trkpt lat="47.32951" lon="-1.33023">
        <ele>68.871582</ele>
        <time>2011-10-02T07:48:13Z</time>
      </trkpt>
      <trkpt lat="47.3296" lon="-1.33007">
        <ele>70.794189</ele>
        <time>2011-10-02T07:48:18Z</time>
      </trkpt>
      <trkpt lat="47.3297" lon="-1.32982">
        <ele>71.274902</ele>
        <time>2011-10-02T07:48:25Z</time>
      </trkpt>
      <trkpt lat="47.32981" lon="-1.32957">
        <ele>72.236206</ele>
        <time>2011-10-02T07:48:32Z</time>
      </trkpt>
      <trkpt lat="47.32992" lon="-1.32934">
        <ele>72.716918</ele>
        <time>2011-10-02T07:48:38Z</time>
      </trkpt>
      <trkpt lat="47.33001" lon="-1.32937">
        <ele>72.716918</ele>
        <time>2011-10-02T07:48:42Z</time>
      </trkpt>
      <trkpt lat="47.33008" lon="-1.32951">
        <ele>73.678222</ele>
        <time>2011-10-02T07:48:46Z</time>
      </trkpt>
      <trkpt lat="47.33022" lon="-1.32973">
        <ele>73.678222</ele>
        <time>2011-10-02T07:48:53Z</time>
      </trkpt>
      <trkpt lat="47.33043" lon="-1.32995">
        <ele>73.678222</ele>
        <time>2011-10-02T07:49:01Z</time>
      </trkpt>
      <trkpt lat="47.33064" lon="-1.33011">
        <ele>74.158813</ele>
        <time>2011-10-02T07:49:08Z</time>
      </trkpt>
      <trkpt lat="47.33095" lon="-1.3303">
        <ele>74.158813</ele>
        <time>2011-10-02T07:49:18Z</time>
      </trkpt>
      <trkpt lat="47.33112" lon="-1.33039">
        <ele>76.08142</ele>
        <time>2011-10-02T07:49:24Z</time>
      </trkpt>
      <trkpt lat="47.33125" lon="-1.33028">
        <ele>76.562133</ele>
        <time>2011-10-02T07:49:30Z</time>
      </trkpt>
      <trkpt lat="47.33151" lon="-1.33005">
        <ele>76.562133</ele>
        <time>2011-10-02T07:49:41Z</time>
      </trkpt>
      <trkpt lat="47.33173" lon="-1.32982">
        <ele>76.562133</ele>
        <time>2011-10-02T07:49:48Z</time>
      </trkpt>
      <trkpt lat="47.33198" lon="-1.32946">
        <ele>74.639526</ele>
        <time>2011-10-02T07:49:57Z</time>
      </trkpt>
      <trkpt lat="47.332" lon="-1.32941">
        <ele>73.678222</ele>
        <time>2011-10-02T07:49:58Z</time>
      </trkpt>
      <trkpt lat="47.33193" lon="-1.32913">
        <ele>72.716918</ele>
        <time>2011-10-02T07:50:03Z</time>
      </trkpt>
      <trkpt lat="47.33189" lon="-1.32901">
        <ele>72.236206</ele>
        <time>2011-10-02T07:50:05Z</time>
      </trkpt>
      <trkpt lat="47.33192" lon="-1.32881">
        <ele>72.236206</ele>
        <time>2011-10-02T07:50:09Z</time>
      </trkpt>
      <trkpt lat="47.33206" lon="-1.32867">
        <ele>72.716918</ele>
        <time>2011-10-02T07:50:14Z</time>
      </trkpt>
      <trkpt lat="47.33229" lon="-1.32838">
        <ele>69.832885</ele>
        <time>2011-10-02T07:50:20Z</time>
      </trkpt>
      <trkpt lat="47.33234" lon="-1.32833">
        <ele>69.352294</ele>
        <time>2011-10-02T07:50:21Z</time>
      </trkpt>
      <trkpt lat="47.33243" lon="-1.32822">
        <ele>66.948974</ele>
        <time>2011-10-02T07:50:23Z</time>
      </trkpt>
      <trkpt lat="47.33256" lon="-1.32791">
        <ele>63.58435</ele>
        <time>2011-10-02T07:50:27Z</time>
      </trkpt>
      <trkpt lat="47.33271" lon="-1.32769">
        <ele>61.18103</ele>
        <time>2011-10-02T07:50:30Z</time>
      </trkpt>
      <trkpt lat="47.33283" lon="-1.3276">
        <ele>59.258422</ele>
        <time>2011-10-02T07:50:33Z</time>
      </trkpt>
      <trkpt lat="47.33298" lon="-1.32753">
        <ele>57.335815</ele>
        <time>2011-10-02T07:50:36Z</time>
      </trkpt>
      <trkpt lat="47.33309" lon="-1.32748">
        <ele>55.413085</ele>
        <time>2011-10-02T07:50:39Z</time>
      </trkpt>
      <trkpt lat="47.33319" lon="-1.32755">
        <ele>51.567871</ele>
        <time>2011-10-02T07:50:43Z</time>
      </trkpt>
      <trkpt lat="47.33334" lon="-1.32755">
        <ele>45.799926</ele>
        <time>2011-10-02T07:50:48Z</time>
      </trkpt>
      <trkpt lat="47.33347" lon="-1.32743">
        <ele>41.954711</ele>
        <time>2011-10-02T07:50:52Z</time>
      </trkpt>
      <trkpt lat="47.33357" lon="-1.32733">
        <ele>40.032104</ele>
        <time>2011-10-02T07:50:55Z</time>
      </trkpt>
      <trkpt lat="47.33378" lon="-1.32713">
        <ele>34.26416</ele>
        <time>2011-10-02T07:51:00Z</time>
      </trkpt>
      <trkpt lat="47.33385" lon="-1.32708">
        <ele>33.302856</ele>
        <time>2011-10-02T07:51:03Z</time>
      </trkpt>
      <trkpt lat="47.33389" lon="-1.32705">
        <ele>32.341552</ele>
        <time>2011-10-02T07:51:05Z</time>
      </trkpt>
      <trkpt lat="47.33394" lon="-1.327">
        <ele>32.341552</ele>
        <time>2011-10-02T07:51:10Z</time>
      </trkpt>
      <trkpt lat="47.33395" lon="-1.32688">
        <ele>29.457519</ele>
        <time>2011-10-02T07:51:14Z</time>
      </trkpt>
      <trkpt lat="47.33394" lon="-1.32672">
        <ele>26.092895</ele>
        <time>2011-10-02T07:51:16Z</time>
      </trkpt>
      <trkpt lat="47.33393" lon="-1.32664">
        <ele>24.651001</ele>
        <time>2011-10-02T07:51:17Z</time>
      </trkpt>
      <trkpt lat="47.33391" lon="-1.32637">
        <ele>22.728271</ele>
        <time>2011-10-02T07:51:20Z</time>
      </trkpt>
      <trkpt lat="47.33391" lon="-1.32633">
        <ele>21.766967</ele>
        <time>2011-10-02T07:51:21Z</time>
      </trkpt>
      <trkpt lat="47.33394" lon="-1.32626">
        <ele>21.766967</ele>
        <time>2011-10-02T07:51:24Z</time>
      </trkpt>
      <trkpt lat="47.33402" lon="-1.3261">
        <ele>21.766967</ele>
        <time>2011-10-02T07:51:41Z</time>
      </trkpt>
      <trkpt lat="47.33402" lon="-1.32609">
        <ele>21.766967</ele>
        <time>2011-10-02T07:51:43Z</time>
      </trkpt>
      <trkpt lat="47.334" lon="-1.32609">
        <ele>21.286377</ele>
        <time>2011-10-02T07:51:47Z</time>
      </trkpt>
      <trkpt lat="47.33394" lon="-1.32604">
        <ele>21.286377</ele>
        <time>2011-10-02T07:51:51Z</time>
      </trkpt>
      <trkpt lat="47.33379" lon="-1.32589">
        <ele>21.766967</ele>
        <time>2011-10-02T07:51:57Z</time>
      </trkpt>
      <trkpt lat="47.33371" lon="-1.32583">
        <ele>22.728271</ele>
        <time>2011-10-02T07:52:00Z</time>
      </trkpt>
      <trkpt lat="47.33363" lon="-1.32576">
        <ele>23.208984</ele>
        <time>2011-10-02T07:52:04Z</time>
      </trkpt>
      <trkpt lat="47.33352" lon="-1.32564">
        <ele>24.170288</ele>
        <time>2011-10-02T07:52:09Z</time>
      </trkpt>
      <trkpt lat="47.33338" lon="-1.3255">
        <ele>25.612304</ele>
        <time>2011-10-02T07:52:14Z</time>
      </trkpt>
      <trkpt lat="47.33329" lon="-1.32543">
        <ele>25.131713</ele>
        <time>2011-10-02T07:52:17Z</time>
      </trkpt>
      <trkpt lat="47.33318" lon="-1.32538">
        <ele>24.170288</ele>
        <time>2011-10-02T07:52:19Z</time>
      </trkpt>
      <trkpt lat="47.33291" lon="-1.32519">
        <ele>22.247558</ele>
        <time>2011-10-02T07:52:23Z</time>
      </trkpt>
      <trkpt lat="47.33257" lon="-1.3248">
        <ele>21.286377</ele>
        <time>2011-10-02T07:52:28Z</time>
      </trkpt>
      <trkpt lat="47.33219" lon="-1.32437">
        <ele>19.363769</ele>
        <time>2011-10-02T07:52:33Z</time>
      </trkpt>
      <trkpt lat="47.33204" lon="-1.3242">
        <ele>18.402343</ele>
        <time>2011-10-02T07:52:35Z</time>
      </trkpt>
      <trkpt lat="47.33177" lon="-1.32384">
        <ele>16.479736</ele>
        <time>2011-10-02T07:52:40Z</time>
      </trkpt>
      <trkpt lat="47.33173" lon="-1.32378">
        <ele>16.960449</ele>
        <time>2011-10-02T07:52:41Z</time>
      </trkpt>
      <trkpt lat="47.33153" lon="-1.32348">
        <ele>16.479736</ele>
        <time>2011-10-02T07:52:47Z</time>
      </trkpt>
      <trkpt lat="47.33143" lon="-1.32339">
        <ele>16.479736</ele>
        <time>2011-10-02T07:52:49Z</time>
      </trkpt>
      <trkpt lat="47.33132" lon="-1.3233">
        <ele>16.960449</ele>
        <time>2011-10-02T07:52:51Z</time>
      </trkpt>
      <trkpt lat="47.33098" lon="-1.32306">
        <ele>17.441162</ele>
        <time>2011-10-02T07:52:57Z</time>
      </trkpt>
      <trkpt lat="47.33074" lon="-1.32289">
        <ele>16.960449</ele>
        <time>2011-10-02T07:53:01Z</time>
      </trkpt>
      <trkpt lat="47.33054" lon="-1.32265">
        <ele>16.960449</ele>
        <time>2011-10-02T07:53:05Z</time>
      </trkpt>
      <trkpt lat="47.33051" lon="-1.32257">
        <ele>16.960449</ele>
        <time>2011-10-02T07:53:06Z</time>
      </trkpt>
      <trkpt lat="47.33049" lon="-1.32221">
        <ele>17.441162</ele>
        <time>2011-10-02T07:53:10Z</time>
      </trkpt>
      <trkpt lat="47.33053" lon="-1.32214">
        <ele>16.960449</ele>
        <time>2011-10-02T07:53:11Z</time>
      </trkpt>
      <trkpt lat="47.33073" lon="-1.32176">
        <ele>17.921752</ele>
        <time>2011-10-02T07:53:17Z</time>
      </trkpt>
      <trkpt lat="47.33093" lon="-1.32164">
        <ele>18.883056</ele>
        <time>2011-10-02T07:53:22Z</time>
      </trkpt>
      <trkpt lat="47.33112" lon="-1.32162">
        <ele>19.84436</ele>
        <time>2011-10-02T07:53:28Z</time>
      </trkpt>
      <trkpt lat="47.33121" lon="-1.32166">
        <ele>21.286377</ele>
        <time>2011-10-02T07:53:33Z</time>
      </trkpt>
      <trkpt lat="47.33133" lon="-1.32172">
        <ele>24.651001</ele>
        <time>2011-10-02T07:53:39Z</time>
      </trkpt>
      <trkpt lat="47.33142" lon="-1.32169">
        <ele>26.573608</ele>
        <time>2011-10-02T07:53:44Z</time>
      </trkpt>
      <trkpt lat="47.33153" lon="-1.3217">
        <ele>28.976928</ele>
        <time>2011-10-02T07:53:51Z</time>
      </trkpt>
      <trkpt lat="47.33162" lon="-1.32168">
        <ele>30.899536</ele>
        <time>2011-10-02T07:53:58Z</time>
      </trkpt>
      <trkpt lat="47.33164" lon="-1.32168">
        <ele>31.380127</ele>
        <time>2011-10-02T07:54:00Z</time>
      </trkpt>
      <trkpt lat="47.33169" lon="-1.32171">
        <ele>32.822265</ele>
        <time>2011-10-02T07:54:04Z</time>
      </trkpt>
      <trkpt lat="47.33172" lon="-1.32176">
        <ele>34.26416</ele>
        <time>2011-10-02T07:54:09Z</time>
      </trkpt>
      <trkpt lat="47.33175" lon="-1.32185">
        <ele>35.706054</ele>
        <time>2011-10-02T07:54:16Z</time>
      </trkpt>
      <trkpt lat="47.3318" lon="-1.3219">
        <ele>37.628662</ele>
        <time>2011-10-02T07:54:24Z</time>
      </trkpt>
      <trkpt lat="47.33184" lon="-1.32191">
        <ele>38.590087</ele>
        <time>2011-10-02T07:54:30Z</time>
      </trkpt>
      <trkpt lat="47.33188" lon="-1.32193">
        <ele>40.032104</ele>
        <time>2011-10-02T07:54:35Z</time>
      </trkpt>
      <trkpt lat="47.33188" lon="-1.32194">
        <ele>39.551269</ele>
        <time>2011-10-02T07:54:38Z</time>
      </trkpt>
      <trkpt lat="47.3319" lon="-1.32195">
        <ele>40.032104</ele>
        <time>2011-10-02T07:54:39Z</time>
      </trkpt>
      <trkpt lat="47.33195" lon="-1.32199">
        <ele>41.473999</ele>
        <time>2011-10-02T07:54:45Z</time>
      </trkpt>
      <trkpt lat="47.33196" lon="-1.32199">
        <ele>40.993408</ele>
        <time>2011-10-02T07:54:48Z</time>
      </trkpt>
      <trkpt lat="47.33196" lon="-1.322">
        <ele>41.954711</ele>
        <time>2011-10-02T07:54:49Z</time>
      </trkpt>
      <trkpt lat="47.33197" lon="-1.322">
        <ele>41.473999</ele>
        <time>2011-10-02T07:54:52Z</time>
      </trkpt>
      <trkpt lat="47.33198" lon="-1.32202">
        <ele>42.435424</ele>
        <time>2011-10-02T07:54:53Z</time>
      </trkpt>
      <trkpt lat="47.33206" lon="-1.3221">
        <ele>44.838623</ele>
        <time>2011-10-02T07:55:01Z</time>
      </trkpt>
      <trkpt lat="47.33206" lon="-1.3221">
        <ele>44.838623</ele>
        <time>2011-10-02T07:55:02Z</time>
      </trkpt>
      <trkpt lat="47.33207" lon="-1.32211">
        <ele>44.358032</ele>
        <time>2011-10-02T07:55:06Z</time>
      </trkpt>
      <trkpt lat="47.3321" lon="-1.32213">
        <ele>43.877319</ele>
        <time>2011-10-02T07:55:08Z</time>
      </trkpt>
      <trkpt lat="47.33219" lon="-1.32211">
        <ele>47.722534</ele>
        <time>2011-10-02T07:55:15Z</time>
      </trkpt>
      <trkpt lat="47.33223" lon="-1.3221">
        <ele>48.68396</ele>
        <time>2011-10-02T07:55:18Z</time>
      </trkpt>
      <trkpt lat="47.33236" lon="-1.32207">
        <ele>50.606567</ele>
        <time>2011-10-02T07:55:26Z</time>
      </trkpt>
      <trkpt lat="47.33249" lon="-1.32202">
        <ele>52.529174</ele>
        <time>2011-10-02T07:55:33Z</time>
      </trkpt>
      <trkpt lat="47.33268" lon="-1.32191">
        <ele>55.413085</ele>
        <time>2011-10-02T07:55:43Z</time>
      </trkpt>
      <trkpt lat="47.33283" lon="-1.32182">
        <ele>56.855102</ele>
        <time>2011-10-02T07:55:50Z</time>
      </trkpt>
      <trkpt lat="47.33295" lon="-1.32176">
        <ele>58.77771</ele>
        <time>2011-10-02T07:55:56Z</time>
      </trkpt>
      <trkpt lat="47.33309" lon="-1.32161">
        <ele>59.739135</ele>
        <time>2011-10-02T07:56:03Z</time>
      </trkpt>
      <trkpt lat="47.33327" lon="-1.32148">
        <ele>62.142334</ele>
        <time>2011-10-02T07:56:12Z</time>
      </trkpt>
      <trkpt lat="47.33345" lon="-1.32149">
        <ele>63.103637</ele>
        <time>2011-10-02T07:56:19Z</time>
      </trkpt>
      <trkpt lat="47.33367" lon="-1.32154">
        <ele>65.026367</ele>
        <time>2011-10-02T07:56:27Z</time>
      </trkpt>
      <trkpt lat="47.33382" lon="-1.32143">
        <ele>65.50708</ele>
        <time>2011-10-02T07:56:33Z</time>
      </trkpt>
      <trkpt lat="47.33391" lon="-1.3213">
        <ele>66.948974</ele>
        <time>2011-10-02T07:56:37Z</time>
      </trkpt>
      <trkpt lat="47.33409" lon="-1.32097">
        <ele>67.910278</ele>
        <time>2011-10-02T07:56:46Z</time>
      </trkpt>
      <trkpt lat="47.33429" lon="-1.32055">
        <ele>69.352294</ele>
        <time>2011-10-02T07:56:56Z</time>
      </trkpt>
      <trkpt lat="47.33448" lon="-1.32011">
        <ele>71.274902</ele>
        <time>2011-10-02T07:57:06Z</time>
      </trkpt>
      <trkpt lat="47.33469" lon="-1.3198">
        <ele>73.197631</ele>
        <time>2011-10-02T07:57:14Z</time>
      </trkpt>
      <trkpt lat="47.33482" lon="-1.31977">
        <ele>73.197631</ele>
        <time>2011-10-02T07:57:18Z</time>
      </trkpt>
      <trkpt lat="47.33498" lon="-1.31984">
        <ele>73.678222</ele>
        <time>2011-10-02T07:57:24Z</time>
      </trkpt>
      <trkpt lat="47.33511" lon="-1.31991">
        <ele>73.678222</ele>
        <time>2011-10-02T07:57:29Z</time>
      </trkpt>
      <trkpt lat="47.33527" lon="-1.32005">
        <ele>74.158813</ele>
        <time>2011-10-02T07:57:35Z</time>
      </trkpt>
      <trkpt lat="47.33552" lon="-1.32023">
        <ele>74.639526</ele>
        <time>2011-10-02T07:57:44Z</time>
      </trkpt>
      <trkpt lat="47.33572" lon="-1.32028">
        <ele>74.639526</ele>
        <time>2011-10-02T07:57:50Z</time>
      </trkpt>
      <trkpt lat="47.336" lon="-1.32026">
        <ele>75.60083</ele>
        <time>2011-10-02T07:57:59Z</time>
      </trkpt>
      <trkpt lat="47.33621" lon="-1.32015">
        <ele>75.60083</ele>
        <time>2011-10-02T07:58:06Z</time>
      </trkpt>
      <trkpt lat="47.33638" lon="-1.31992">
        <ele>76.562133</ele>
        <time>2011-10-02T07:58:13Z</time>
      </trkpt>
      <trkpt lat="47.33654" lon="-1.31962">
        <ele>77.523437</ele>
        <time>2011-10-02T07:58:21Z</time>
      </trkpt>
      <trkpt lat="47.33675" lon="-1.31921">
        <ele>78.965454</ele>
        <time>2011-10-02T07:58:31Z</time>
      </trkpt>
      <trkpt lat="47.337" lon="-1.31877">
        <ele>79.446044</ele>
        <time>2011-10-02T07:58:41Z</time>
      </trkpt>
      <trkpt lat="47.33725" lon="-1.31822">
        <ele>81.849365</ele>
        <time>2011-10-02T07:58:52Z</time>
      </trkpt>
      <trkpt lat="47.3374" lon="-1.31783">
        <ele>82.330078</ele>
        <time>2011-10-02T07:58:59Z</time>
      </trkpt>
      <trkpt lat="47.33762" lon="-1.31721">
        <ele>82.810791</ele>
        <time>2011-10-02T07:59:09Z</time>
      </trkpt>
      <trkpt lat="47.33774" lon="-1.31666">
        <ele>82.330078</ele>
        <time>2011-10-02T07:59:17Z</time>
      </trkpt>
      <trkpt lat="47.33779" lon="-1.31617">
        <ele>82.330078</ele>
        <time>2011-10-02T07:59:24Z</time>
      </trkpt>
      <trkpt lat="47.33783" lon="-1.31562">
        <ele>81.368774</ele>
        <time>2011-10-02T07:59:31Z</time>
      </trkpt>
      <trkpt lat="47.33786" lon="-1.3153">
        <ele>80.40747</ele>
        <time>2011-10-02T07:59:35Z</time>
      </trkpt>
      <trkpt lat="47.33802" lon="-1.31475">
        <ele>79.446044</ele>
        <time>2011-10-02T07:59:42Z</time>
      </trkpt>
      <trkpt lat="47.33828" lon="-1.314">
        <ele>77.042846</ele>
        <time>2011-10-02T07:59:51Z</time>
      </trkpt>
      <trkpt lat="47.33845" lon="-1.31351">
        <ele>75.120239</ele>
        <time>2011-10-02T07:59:56Z</time>
      </trkpt>
      <trkpt lat="47.33872" lon="-1.31305">
        <ele>75.120239</ele>
        <time>2011-10-02T08:00:02Z</time>
      </trkpt>
      <trkpt lat="47.33876" lon="-1.31299">
        <ele>75.120239</ele>
        <time>2011-10-02T08:00:03Z</time>
      </trkpt>
      <trkpt lat="47.33912" lon="-1.31248">
        <ele>74.158813</ele>
        <time>2011-10-02T08:00:12Z</time>
      </trkpt>
      <trkpt lat="47.33939" lon="-1.31202">
        <ele>73.678222</ele>
        <time>2011-10-02T08:00:19Z</time>
      </trkpt>
      <trkpt lat="47.33949" lon="-1.3118">
        <ele>73.678222</ele>
        <time>2011-10-02T08:00:22Z</time>
      </trkpt>
      <trkpt lat="47.33966" lon="-1.31154">
        <ele>73.197631</ele>
        <time>2011-10-02T08:00:27Z</time>
      </trkpt>
      <trkpt lat="47.33967" lon="-1.31137">
        <ele>72.716918</ele>
        <time>2011-10-02T08:00:30Z</time>
      </trkpt>
      <trkpt lat="47.33966" lon="-1.3113">
        <ele>72.716918</ele>
        <time>2011-10-02T08:00:31Z</time>
      </trkpt>
      <trkpt lat="47.33963" lon="-1.31105">
        <ele>72.236206</ele>
        <time>2011-10-02T08:00:34Z</time>
      </trkpt>
      <trkpt lat="47.33966" lon="-1.31053">
        <ele>71.755493</ele>
        <time>2011-10-02T08:00:40Z</time>
      </trkpt>
      <trkpt lat="47.33967" lon="-1.31045">
        <ele>71.274902</ele>
        <time>2011-10-02T08:00:41Z</time>
      </trkpt>
      <trkpt lat="47.33966" lon="-1.31021">
        <ele>70.313476</ele>
        <time>2011-10-02T08:00:44Z</time>
      </trkpt>
      <trkpt lat="47.33955" lon="-1.31007">
        <ele>69.352294</ele>
        <time>2011-10-02T08:00:48Z</time>
      </trkpt>
      <trkpt lat="47.33951" lon="-1.31005">
        <ele>69.832885</ele>
        <time>2011-10-02T08:00:49Z</time>
      </trkpt>
      <trkpt lat="47.33931" lon="-1.31002">
        <ele>68.871582</ele>
        <time>2011-10-02T08:00:53Z</time>
      </trkpt>
      <trkpt lat="47.3391" lon="-1.31">
        <ele>68.390869</ele>
        <time>2011-10-02T08:00:58Z</time>
      </trkpt>
      <trkpt lat="47.339" lon="-1.30988">
        <ele>66.948974</ele>
        <time>2011-10-02T08:01:04Z</time>
      </trkpt>
      <trkpt lat="47.33891" lon="-1.30963">
        <ele>65.026367</ele>
        <time>2011-10-02T08:01:09Z</time>
      </trkpt>
      <trkpt lat="47.33883" lon="-1.30938">
        <ele>62.622924</ele>
        <time>2011-10-02T08:01:13Z</time>
      </trkpt>
      <trkpt lat="47.33883" lon="-1.30916">
        <ele>60.700317</ele>
        <time>2011-10-02T08:01:17Z</time>
      </trkpt>
      <trkpt lat="47.33886" lon="-1.30909">
        <ele>59.739135</ele>
        <time>2011-10-02T08:01:19Z</time>
      </trkpt>
      <trkpt lat="47.33889" lon="-1.30905">
        <ele>59.258422</ele>
        <time>2011-10-02T08:01:21Z</time>
      </trkpt>
      <trkpt lat="47.33893" lon="-1.30898">
        <ele>57.335815</ele>
        <time>2011-10-02T08:01:25Z</time>
      </trkpt>
      <trkpt lat="47.33898" lon="-1.30893">
        <ele>56.374511</ele>
        <time>2011-10-02T08:01:30Z</time>
      </trkpt>
      <trkpt lat="47.33898" lon="-1.30893">
        <ele>55.893798</ele>
        <time>2011-10-02T08:01:31Z</time>
      </trkpt>
      <trkpt lat="47.33899" lon="-1.30892">
        <ele>55.893798</ele>
        <time>2011-10-02T08:01:34Z</time>
      </trkpt>
      <trkpt lat="47.33902" lon="-1.30888">
        <ele>54.451782</ele>
        <time>2011-10-02T08:01:37Z</time>
      </trkpt>
      <trkpt lat="47.33902" lon="-1.30888">
        <ele>54.451782</ele>
        <time>2011-10-02T08:01:38Z</time>
      </trkpt>
      <trkpt lat="47.33905" lon="-1.30888">
        <ele>54.932373</ele>
        <time>2011-10-02T08:02:07Z</time>
      </trkpt>
      <trkpt lat="47.33905" lon="-1.30887">
        <ele>53.971191</ele>
        <time>2011-10-02T08:02:08Z</time>
      </trkpt>
      <trkpt lat="47.33913" lon="-1.30879">
        <ele>53.009765</ele>
        <time>2011-10-02T08:02:12Z</time>
      </trkpt>
      <trkpt lat="47.33924" lon="-1.30876">
        <ele>53.009765</ele>
        <time>2011-10-02T08:02:15Z</time>
      </trkpt>
      <trkpt lat="47.33937" lon="-1.30866">
        <ele>51.567871</ele>
        <time>2011-10-02T08:02:19Z</time>
      </trkpt>
      <trkpt lat="47.33944" lon="-1.30864">
        <ele>52.048584</ele>
        <time>2011-10-02T08:02:25Z</time>
      </trkpt>
      <trkpt lat="47.33947" lon="-1.30861">
        <ele>52.048584</ele>
        <time>2011-10-02T08:02:28Z</time>
      </trkpt>
      <trkpt lat="47.33955" lon="-1.30856">
        <ele>53.009765</ele>
        <time>2011-10-02T08:02:33Z</time>
      </trkpt>
      <trkpt lat="47.33966" lon="-1.30849">
        <ele>51.567871</ele>
        <time>2011-10-02T08:02:37Z</time>
      </trkpt>
      <trkpt lat="47.33979" lon="-1.30843">
        <ele>47.241821</ele>
        <time>2011-10-02T08:02:41Z</time>
      </trkpt>
      <trkpt lat="47.33981" lon="-1.30842">
        <ele>47.241821</ele>
        <time>2011-10-02T08:02:42Z</time>
      </trkpt>
      <trkpt lat="47.33985" lon="-1.30839">
        <ele>45.799926</ele>
        <time>2011-10-02T08:02:44Z</time>
      </trkpt>
      <trkpt lat="47.3399" lon="-1.30826">
        <ele>41.954711</ele>
        <time>2011-10-02T08:02:49Z</time>
      </trkpt>
      <trkpt lat="47.33992" lon="-1.30822">
        <ele>41.473999</ele>
        <time>2011-10-02T08:02:50Z</time>
      </trkpt>
      <trkpt lat="47.33994" lon="-1.30798">
        <ele>35.706054</ele>
        <time>2011-10-02T08:02:56Z</time>
      </trkpt>
      <trkpt lat="47.33987" lon="-1.30792">
        <ele>33.783447</ele>
        <time>2011-10-02T08:02:59Z</time>
      </trkpt>
      <trkpt lat="47.33977" lon="-1.30793">
        <ele>30.899536</ele>
        <time>2011-10-02T08:03:03Z</time>
      </trkpt>
      <trkpt lat="47.33975" lon="-1.30794">
        <ele>30.418823</ele>
        <time>2011-10-02T08:03:04Z</time>
      </trkpt>
      <trkpt lat="47.33973" lon="-1.30792">
        <ele>29.93811</ele>
        <time>2011-10-02T08:03:07Z</time>
      </trkpt>
      <trkpt lat="47.33974" lon="-1.3079">
        <ele>29.457519</ele>
        <time>2011-10-02T08:03:11Z</time>
      </trkpt>
      <trkpt lat="47.33974" lon="-1.30783">
        <ele>28.015502</ele>
        <time>2011-10-02T08:03:16Z</time>
      </trkpt>
      <trkpt lat="47.33975" lon="-1.3078">
        <ele>27.054321</ele>
        <time>2011-10-02T08:03:20Z</time>
      </trkpt>
      <trkpt lat="47.33974" lon="-1.30779">
        <ele>26.573608</ele>
        <time>2011-10-02T08:03:23Z</time>
      </trkpt>
      <trkpt lat="47.33974" lon="-1.30778">
        <ele>25.612304</ele>
        <time>2011-10-02T08:03:24Z</time>
      </trkpt>
      <trkpt lat="47.33978" lon="-1.30767">
        <ele>23.689575</ele>
        <time>2011-10-02T08:03:28Z</time>
      </trkpt>
      <trkpt lat="47.33985" lon="-1.30754">
        <ele>20.324951</ele>
        <time>2011-10-02T08:03:32Z</time>
      </trkpt>
      <trkpt lat="47.33983" lon="-1.3074">
        <ele>18.883056</ele>
        <time>2011-10-02T08:03:35Z</time>
      </trkpt>
      <trkpt lat="47.33977" lon="-1.30714">
        <ele>15.037719</ele>
        <time>2011-10-02T08:03:40Z</time>
      </trkpt>
      <trkpt lat="47.33975" lon="-1.30702">
        <ele>14.076416</ele>
        <time>2011-10-02T08:03:44Z</time>
      </trkpt>
      <trkpt lat="47.33975" lon="-1.30701">
        <ele>14.076416</ele>
        <time>2011-10-02T08:03:45Z</time>
      </trkpt>
      <trkpt lat="47.33973" lon="-1.30694">
        <ele>13.595825</ele>
        <time>2011-10-02T08:04:39Z</time>
      </trkpt>
      <trkpt lat="47.33972" lon="-1.30691">
        <ele>13.115112</ele>
        <time>2011-10-02T08:04:43Z</time>
      </trkpt>
      <trkpt lat="47.33972" lon="-1.3069">
        <ele>13.115112</ele>
        <time>2011-10-02T08:04:46Z</time>
      </trkpt>
      <trkpt lat="47.33968" lon="-1.30683">
        <ele>13.115112</ele>
        <time>2011-10-02T08:04:47Z</time>
      </trkpt>
      <trkpt lat="47.33961" lon="-1.30672">
        <ele>13.595825</ele>
        <time>2011-10-02T08:04:51Z</time>
      </trkpt>
      <trkpt lat="47.33959" lon="-1.30673">
        <ele>13.595825</ele>
        <time>2011-10-02T08:04:52Z</time>
      </trkpt>
      <trkpt lat="47.3395" lon="-1.30686">
        <ele>13.595825</ele>
        <time>2011-10-02T08:04:57Z</time>
      </trkpt>
      <trkpt lat="47.33937" lon="-1.30705">
        <ele>13.115112</ele>
        <time>2011-10-02T08:05:04Z</time>
      </trkpt>
      <trkpt lat="47.33923" lon="-1.30729">
        <ele>13.115112</ele>
        <time>2011-10-02T08:05:11Z</time>
      </trkpt>
      <trkpt lat="47.33913" lon="-1.30745">
        <ele>14.557006</ele>
        <time>2011-10-02T08:05:16Z</time>
      </trkpt>
      <trkpt lat="47.33911" lon="-1.30747">
        <ele>14.557006</ele>
        <time>2011-10-02T08:05:17Z</time>
      </trkpt>
      <trkpt lat="47.33889" lon="-1.30771">
        <ele>15.518432</ele>
        <time>2011-10-02T08:05:25Z</time>
      </trkpt>
      <trkpt lat="47.33862" lon="-1.30798">
        <ele>14.557006</ele>
        <time>2011-10-02T08:05:34Z</time>
      </trkpt>
      <trkpt lat="47.33837" lon="-1.30822">
        <ele>15.518432</ele>
        <time>2011-10-02T08:05:42Z</time>
      </trkpt>
      <trkpt lat="47.33813" lon="-1.30847">
        <ele>15.037719</ele>
        <time>2011-10-02T08:05:50Z</time>
      </trkpt>
      <trkpt lat="47.33791" lon="-1.30868">
        <ele>15.518432</ele>
        <time>2011-10-02T08:05:57Z</time>
      </trkpt>
      <trkpt lat="47.33769" lon="-1.30892">
        <ele>15.518432</ele>
        <time>2011-10-02T08:06:04Z</time>
      </trkpt>
      <trkpt lat="47.33746" lon="-1.30917">
        <ele>15.037719</ele>
        <time>2011-10-02T08:06:12Z</time>
      </trkpt>
      <trkpt lat="47.33729" lon="-1.30936">
        <ele>16.960449</ele>
        <time>2011-10-02T08:06:18Z</time>
      </trkpt>
      <trkpt lat="47.33708" lon="-1.30961">
        <ele>16.479736</ele>
        <time>2011-10-02T08:06:24Z</time>
      </trkpt>
      <trkpt lat="47.33699" lon="-1.30973">
        <ele>15.999023</ele>
        <time>2011-10-02T08:06:27Z</time>
      </trkpt>
      <trkpt lat="47.33681" lon="-1.30988">
        <ele>15.999023</ele>
        <time>2011-10-02T08:06:32Z</time>
      </trkpt>
      <trkpt lat="47.33678" lon="-1.30993">
        <ele>15.518432</ele>
        <time>2011-10-02T08:06:33Z</time>
      </trkpt>
      <trkpt lat="47.33669" lon="-1.31011">
        <ele>14.557006</ele>
        <time>2011-10-02T08:06:36Z</time>
      </trkpt>
      <trkpt lat="47.3365" lon="-1.31036">
        <ele>15.037719</ele>
        <time>2011-10-02T08:06:42Z</time>
      </trkpt>
      <trkpt lat="47.33631" lon="-1.31063">
        <ele>15.037719</ele>
        <time>2011-10-02T08:06:48Z</time>
      </trkpt>
      <trkpt lat="47.33616" lon="-1.31091">
        <ele>14.557006</ele>
        <time>2011-10-02T08:06:53Z</time>
      </trkpt>
      <trkpt lat="47.33595" lon="-1.3113">
        <ele>15.037719</ele>
        <time>2011-10-02T08:07:00Z</time>
      </trkpt>
      <trkpt lat="47.33571" lon="-1.31173">
        <ele>13.595825</ele>
        <time>2011-10-02T08:07:08Z</time>
      </trkpt>
      <trkpt lat="47.33553" lon="-1.31211">
        <ele>15.037719</ele>
        <time>2011-10-02T08:07:15Z</time>
      </trkpt>
      <trkpt lat="47.33532" lon="-1.31249">
        <ele>15.037719</ele>
        <time>2011-10-02T08:07:22Z</time>
      </trkpt>
      <trkpt lat="47.3352" lon="-1.3127">
        <ele>15.037719</ele>
        <time>2011-10-02T08:07:26Z</time>
      </trkpt>
      <trkpt lat="47.33506" lon="-1.31298">
        <ele>15.037719</ele>
        <time>2011-10-02T08:07:31Z</time>
      </trkpt>
      <trkpt lat="47.33476" lon="-1.31353">
        <ele>14.557006</ele>
        <time>2011-10-02T08:07:40Z</time>
      </trkpt>
      <trkpt lat="47.33469" lon="-1.31365">
        <ele>14.076416</ele>
        <time>2011-10-02T08:07:42Z</time>
      </trkpt>
      <trkpt lat="47.33451" lon="-1.31405">
        <ele>15.037719</ele>
        <time>2011-10-02T08:07:49Z</time>
      </trkpt>
      <trkpt lat="47.33428" lon="-1.31449">
        <ele>15.037719</ele>
        <time>2011-10-02T08:07:57Z</time>
      </trkpt>
      <trkpt lat="47.33414" lon="-1.31476">
        <ele>14.557006</ele>
        <time>2011-10-02T08:08:02Z</time>
      </trkpt>
      <trkpt lat="47.3339" lon="-1.31526">
        <ele>14.557006</ele>
        <time>2011-10-02T08:08:11Z</time>
      </trkpt>
      <trkpt lat="47.3337" lon="-1.31567">
        <ele>15.037719</ele>
        <time>2011-10-02T08:08:18Z</time>
      </trkpt>
      <trkpt lat="47.33336" lon="-1.31631">
        <ele>14.076416</ele>
        <time>2011-10-02T08:08:29Z</time>
      </trkpt>
      <trkpt lat="47.33313" lon="-1.31674">
        <ele>14.076416</ele>
        <time>2011-10-02T08:08:37Z</time>
      </trkpt>
      <trkpt lat="47.33291" lon="-1.31716">
        <ele>14.076416</ele>
        <time>2011-10-02T08:08:45Z</time>
      </trkpt>
      <trkpt lat="47.33263" lon="-1.3177">
        <ele>14.076416</ele>
        <time>2011-10-02T08:08:55Z</time>
      </trkpt>
      <trkpt lat="47.33241" lon="-1.3181">
        <ele>14.076416</ele>
        <time>2011-10-02T08:09:02Z</time>
      </trkpt>
      <trkpt lat="47.33212" lon="-1.31866">
        <ele>14.557006</ele>
        <time>2011-10-02T08:09:11Z</time>
      </trkpt>
      <trkpt lat="47.33183" lon="-1.31921">
        <ele>14.076416</ele>
        <time>2011-10-02T08:09:20Z</time>
      </trkpt>
      <trkpt lat="47.33166" lon="-1.31955">
        <ele>14.557006</ele>
        <time>2011-10-02T08:09:26Z</time>
      </trkpt>
      <trkpt lat="47.33149" lon="-1.31982">
        <ele>15.037719</ele>
        <time>2011-10-02T08:09:32Z</time>
      </trkpt>
      <trkpt lat="47.3314" lon="-1.31988">
        <ele>15.037719</ele>
        <time>2011-10-02T08:09:34Z</time>
      </trkpt>
      <trkpt lat="47.33118" lon="-1.32005">
        <ele>14.557006</ele>
        <time>2011-10-02T08:09:39Z</time>
      </trkpt>
      <trkpt lat="47.33101" lon="-1.32034">
        <ele>15.037719</ele>
        <time>2011-10-02T08:09:45Z</time>
      </trkpt>
      <trkpt lat="47.33096" lon="-1.32061">
        <ele>14.557006</ele>
        <time>2011-10-02T08:09:50Z</time>
      </trkpt>
      <trkpt lat="47.33095" lon="-1.3208">
        <ele>14.557006</ele>
        <time>2011-10-02T08:09:53Z</time>
      </trkpt>
      <trkpt lat="47.33078" lon="-1.32123">
        <ele>13.595825</ele>
        <time>2011-10-02T08:10:00Z</time>
      </trkpt>
      <trkpt lat="47.33064" lon="-1.32152">
        <ele>13.115112</ele>
        <time>2011-10-02T08:10:06Z</time>
      </trkpt>
      <trkpt lat="47.33057" lon="-1.32168">
        <ele>13.115112</ele>
        <time>2011-10-02T08:10:10Z</time>
      </trkpt>
      <trkpt lat="47.33058" lon="-1.3218">
        <ele>13.595825</ele>
        <time>2011-10-02T08:10:14Z</time>
      </trkpt>
      <trkpt lat="47.3306" lon="-1.32182">
        <ele>14.076416</ele>
        <time>2011-10-02T08:10:15Z</time>
      </trkpt>
      <trkpt lat="47.33074" lon="-1.32172">
        <ele>14.557006</ele>
        <time>2011-10-02T08:10:20Z</time>
      </trkpt>
      <trkpt lat="47.3308" lon="-1.32167">
        <ele>14.557006</ele>
        <time>2011-10-02T08:10:22Z</time>
      </trkpt>
      <trkpt lat="47.33102" lon="-1.32158">
        <ele>16.479736</ele>
        <time>2011-10-02T08:10:29Z</time>
      </trkpt>
      <trkpt lat="47.33107" lon="-1.32158">
        <ele>17.441162</ele>
        <time>2011-10-02T08:10:31Z</time>
      </trkpt>
      <trkpt lat="47.3312" lon="-1.32162">
        <ele>19.363769</ele>
        <time>2011-10-02T08:10:37Z</time>
      </trkpt>
      <trkpt lat="47.3313" lon="-1.32168">
        <ele>20.805664</ele>
        <time>2011-10-02T08:10:43Z</time>
      </trkpt>
      <trkpt lat="47.33138" lon="-1.32168">
        <ele>22.247558</ele>
        <time>2011-10-02T08:10:48Z</time>
      </trkpt>
      <trkpt lat="47.33141" lon="-1.32167">
        <ele>23.689575</ele>
        <time>2011-10-02T08:10:50Z</time>
      </trkpt>
      <trkpt lat="47.33141" lon="-1.32167">
        <ele>24.170288</ele>
        <time>2011-10-02T08:10:51Z</time>
      </trkpt>
      <trkpt lat="47.33142" lon="-1.32167">
        <ele>24.651001</ele>
        <time>2011-10-02T08:10:55Z</time>
      </trkpt>
      <trkpt lat="47.33142" lon="-1.32167">
        <ele>24.651001</ele>
        <time>2011-10-02T08:10:56Z</time>
      </trkpt>
      <trkpt lat="47.33145" lon="-1.32167">
        <ele>24.651001</ele>
        <time>2011-10-02T08:11:07Z</time>
      </trkpt>
      <trkpt lat="47.33145" lon="-1.32168">
        <ele>24.651001</ele>
        <time>2011-10-02T08:11:08Z</time>
      </trkpt>
      <trkpt lat="47.33148" lon="-1.32168">
        <ele>25.131713</ele>
        <time>2011-10-02T08:11:17Z</time>
      </trkpt>
      <trkpt lat="47.33155" lon="-1.3217">
        <ele>27.054321</ele>
        <time>2011-10-02T08:11:22Z</time>
      </trkpt>
      <trkpt lat="47.3316" lon="-1.3217">
        <ele>28.496215</ele>
        <time>2011-10-02T08:11:27Z</time>
      </trkpt>
      <trkpt lat="47.33161" lon="-1.32169">
        <ele>28.015502</ele>
        <time>2011-10-02T08:11:30Z</time>
      </trkpt>
      <trkpt lat="47.33166" lon="-1.32169">
        <ele>29.457519</ele>
        <time>2011-10-02T08:11:35Z</time>
      </trkpt>
      <trkpt lat="47.33169" lon="-1.32172">
        <ele>30.899536</ele>
        <time>2011-10-02T08:11:38Z</time>
      </trkpt>
      <trkpt lat="47.33169" lon="-1.32173">
        <ele>31.380127</ele>
        <time>2011-10-02T08:11:39Z</time>
      </trkpt>
      <trkpt lat="47.33169" lon="-1.32173">
        <ele>31.860717</ele>
        <time>2011-10-02T08:11:42Z</time>
      </trkpt>
      <trkpt lat="47.33174" lon="-1.3218">
        <ele>32.822265</ele>
        <time>2011-10-02T08:11:48Z</time>
      </trkpt>
      <trkpt lat="47.33175" lon="-1.32185">
        <ele>34.744873</ele>
        <time>2011-10-02T08:11:54Z</time>
      </trkpt>
      <trkpt lat="47.33175" lon="-1.32185">
        <ele>34.744873</ele>
        <time>2011-10-02T08:12:03Z</time>
      </trkpt>
      <trkpt lat="47.33182" lon="-1.32192">
        <ele>36.186767</ele>
        <time>2011-10-02T08:12:08Z</time>
      </trkpt>
      <trkpt lat="47.33185" lon="-1.32192">
        <ele>37.628662</ele>
        <time>2011-10-02T08:12:11Z</time>
      </trkpt>
      <trkpt lat="47.33185" lon="-1.32192">
        <ele>36.66748</ele>
        <time>2011-10-02T08:12:14Z</time>
      </trkpt>
      <trkpt lat="47.33186" lon="-1.32193">
        <ele>37.628662</ele>
        <time>2011-10-02T08:12:15Z</time>
      </trkpt>
      <trkpt lat="47.33192" lon="-1.32198">
        <ele>39.551269</ele>
        <time>2011-10-02T08:12:21Z</time>
      </trkpt>
      <trkpt lat="47.33196" lon="-1.32202">
        <ele>40.993408</ele>
        <time>2011-10-02T08:12:28Z</time>
      </trkpt>
      <trkpt lat="47.33196" lon="-1.32203">
        <ele>40.993408</ele>
        <time>2011-10-02T08:12:33Z</time>
      </trkpt>
      <trkpt lat="47.33204" lon="-1.32212">
        <ele>41.954711</ele>
        <time>2011-10-02T08:12:40Z</time>
      </trkpt>
      <trkpt lat="47.33209" lon="-1.32214">
        <ele>43.396606</ele>
        <time>2011-10-02T08:12:43Z</time>
      </trkpt>
      <trkpt lat="47.33216" lon="-1.32213">
        <ele>45.319213</ele>
        <time>2011-10-02T08:12:48Z</time>
      </trkpt>
      <trkpt lat="47.33221" lon="-1.32211">
        <ele>46.280639</ele>
        <time>2011-10-02T08:12:54Z</time>
      </trkpt>
      <trkpt lat="47.33232" lon="-1.32209">
        <ele>47.722534</ele>
        <time>2011-10-02T08:13:01Z</time>
      </trkpt>
      <trkpt lat="47.3325" lon="-1.32201">
        <ele>51.087158</ele>
        <time>2011-10-02T08:13:12Z</time>
      </trkpt>
      <trkpt lat="47.33266" lon="-1.32193">
        <ele>52.529174</ele>
        <time>2011-10-02T08:13:20Z</time>
      </trkpt>
      <trkpt lat="47.33278" lon="-1.32185">
        <ele>54.451782</ele>
        <time>2011-10-02T08:13:27Z</time>
      </trkpt>
      <trkpt lat="47.33282" lon="-1.32182">
        <ele>55.413085</ele>
        <time>2011-10-02T08:13:29Z</time>
      </trkpt>
      <trkpt lat="47.33296" lon="-1.32176">
        <ele>56.855102</ele>
        <time>2011-10-02T08:13:36Z</time>
      </trkpt>
      <trkpt lat="47.33312" lon="-1.32161">
        <ele>58.77771</ele>
        <time>2011-10-02T08:13:43Z</time>
      </trkpt>
      <trkpt lat="47.33327" lon="-1.32148">
        <ele>60.700317</ele>
        <time>2011-10-02T08:13:50Z</time>
      </trkpt>
      <trkpt lat="47.3334" lon="-1.32147">
        <ele>61.661743</ele>
        <time>2011-10-02T08:13:55Z</time>
      </trkpt>
      <trkpt lat="47.3336" lon="-1.32153">
        <ele>62.622924</ele>
        <time>2011-10-02T08:14:02Z</time>
      </trkpt>
      <trkpt lat="47.33376" lon="-1.32147">
        <ele>63.103637</ele>
        <time>2011-10-02T08:14:07Z</time>
      </trkpt>
      <trkpt lat="47.33392" lon="-1.32127">
        <ele>65.026367</ele>
        <time>2011-10-02T08:14:13Z</time>
      </trkpt>
      <trkpt lat="47.33408" lon="-1.32095">
        <ele>65.98767</ele>
        <time>2011-10-02T08:14:21Z</time>
      </trkpt>
      <trkpt lat="47.33424" lon="-1.32061">
        <ele>66.948974</ele>
        <time>2011-10-02T08:14:29Z</time>
      </trkpt>
      <trkpt lat="47.33441" lon="-1.32026">
        <ele>66.948974</ele>
        <time>2011-10-02T08:14:38Z</time>
      </trkpt>
      <trkpt lat="47.33458" lon="-1.31994">
        <ele>68.871582</ele>
        <time>2011-10-02T08:14:46Z</time>
      </trkpt>
      <trkpt lat="47.33477" lon="-1.3198">
        <ele>69.832885</ele>
        <time>2011-10-02T08:14:52Z</time>
      </trkpt>
      <trkpt lat="47.33498" lon="-1.31987">
        <ele>70.794189</ele>
        <time>2011-10-02T08:14:58Z</time>
      </trkpt>
      <trkpt lat="47.3353" lon="-1.32014">
        <ele>71.274902</ele>
        <time>2011-10-02T08:15:08Z</time>
      </trkpt>
      <trkpt lat="47.33553" lon="-1.32026">
        <ele>71.755493</ele>
        <time>2011-10-02T08:15:15Z</time>
      </trkpt>
      <trkpt lat="47.33572" lon="-1.32028">
        <ele>71.755493</ele>
        <time>2011-10-02T08:15:21Z</time>
      </trkpt>
      <trkpt lat="47.33599" lon="-1.32028">
        <ele>73.197631</ele>
        <time>2011-10-02T08:15:29Z</time>
      </trkpt>
      <trkpt lat="47.33617" lon="-1.3203">
        <ele>72.716918</ele>
        <time>2011-10-02T08:15:35Z</time>
      </trkpt>
      <trkpt lat="47.33639" lon="-1.32038">
        <ele>73.197631</ele>
        <time>2011-10-02T08:15:41Z</time>
      </trkpt>
      <trkpt lat="47.33677" lon="-1.32049">
        <ele>71.755493</ele>
        <time>2011-10-02T08:15:50Z</time>
      </trkpt>
      <trkpt lat="47.33695" lon="-1.32056">
        <ele>71.274902</ele>
        <time>2011-10-02T08:15:54Z</time>
      </trkpt>
      <trkpt lat="47.33735" lon="-1.32091">
        <ele>69.352294</ele>
        <time>2011-10-02T08:16:03Z</time>
      </trkpt>
      <trkpt lat="47.33746" lon="-1.32108">
        <ele>67.910278</ele>
        <time>2011-10-02T08:16:06Z</time>
      </trkpt>
      <trkpt lat="47.33754" lon="-1.32113">
        <ele>67.910278</ele>
        <time>2011-10-02T08:16:08Z</time>
      </trkpt>
      <trkpt lat="47.33758" lon="-1.32112">
        <ele>67.429687</ele>
        <time>2011-10-02T08:16:09Z</time>
      </trkpt>
      <trkpt lat="47.3377" lon="-1.32104">
        <ele>68.871582</ele>
        <time>2011-10-02T08:16:14Z</time>
      </trkpt>
      <trkpt lat="47.33785" lon="-1.32124">
        <ele>69.832885</ele>
        <time>2011-10-02T08:16:20Z</time>
      </trkpt>
      <trkpt lat="47.33805" lon="-1.32157">
        <ele>71.274902</ele>
        <time>2011-10-02T08:16:27Z</time>
      </trkpt>
      <trkpt lat="47.3383" lon="-1.32199">
        <ele>72.236206</ele>
        <time>2011-10-02T08:16:36Z</time>
      </trkpt>
      <trkpt lat="47.3386" lon="-1.32243">
        <ele>72.236206</ele>
        <time>2011-10-02T08:16:46Z</time>
      </trkpt>
      <trkpt lat="47.33868" lon="-1.32259">
        <ele>71.274902</ele>
        <time>2011-10-02T08:16:50Z</time>
      </trkpt>
      <trkpt lat="47.33881" lon="-1.32281">
        <ele>71.274902</ele>
        <time>2011-10-02T08:16:55Z</time>
      </trkpt>
      <trkpt lat="47.33899" lon="-1.32297">
        <ele>72.236206</ele>
        <time>2011-10-02T08:17:01Z</time>
      </trkpt>
      <trkpt lat="47.33899" lon="-1.32314">
        <ele>71.274902</ele>
        <time>2011-10-02T08:17:05Z</time>
      </trkpt>
      <trkpt lat="47.33895" lon="-1.32335">
        <ele>71.755493</ele>
        <time>2011-10-02T08:17:09Z</time>
      </trkpt>
      <trkpt lat="47.33879" lon="-1.32378">
        <ele>72.236206</ele>
        <time>2011-10-02T08:17:16Z</time>
      </trkpt>
      <trkpt lat="47.33877" lon="-1.32384">
        <ele>71.274902</ele>
        <time>2011-10-02T08:17:17Z</time>
      </trkpt>
      <trkpt lat="47.33872" lon="-1.32396">
        <ele>71.274902</ele>
        <time>2011-10-02T08:17:19Z</time>
      </trkpt>
      <trkpt lat="47.33854" lon="-1.32434">
        <ele>70.794189</ele>
        <time>2011-10-02T08:17:25Z</time>
      </trkpt>
      <trkpt lat="47.33847" lon="-1.32446">
        <ele>70.794189</ele>
        <time>2011-10-02T08:17:27Z</time>
      </trkpt>
      <trkpt lat="47.33827" lon="-1.32468">
        <ele>70.313476</ele>
        <time>2011-10-02T08:17:31Z</time>
      </trkpt>
      <trkpt lat="47.33806" lon="-1.32499">
        <ele>69.832885</ele>
        <time>2011-10-02T08:17:36Z</time>
      </trkpt>
      <trkpt lat="47.338" lon="-1.32514">
        <ele>69.352294</ele>
        <time>2011-10-02T08:17:38Z</time>
      </trkpt>
      <trkpt lat="47.33763" lon="-1.32581">
        <ele>67.910278</ele>
        <time>2011-10-02T08:17:47Z</time>
      </trkpt>
      <trkpt lat="47.33742" lon="-1.32623">
        <ele>66.468261</ele>
        <time>2011-10-02T08:17:52Z</time>
      </trkpt>
      <trkpt lat="47.33727" lon="-1.32657">
        <ele>64.065063</ele>
        <time>2011-10-02T08:17:56Z</time>
      </trkpt>
      <trkpt lat="47.33719" lon="-1.32667">
        <ele>62.622924</ele>
        <time>2011-10-02T08:17:58Z</time>
      </trkpt>
      <trkpt lat="47.33711" lon="-1.32665">
        <ele>61.18103</ele>
        <time>2011-10-02T08:18:00Z</time>
      </trkpt>
      <trkpt lat="47.33706" lon="-1.32656">
        <ele>61.661743</ele>
        <time>2011-10-02T08:18:02Z</time>
      </trkpt>
      <trkpt lat="47.33697" lon="-1.3264">
        <ele>62.142334</ele>
        <time>2011-10-02T08:18:05Z</time>
      </trkpt>
      <trkpt lat="47.33688" lon="-1.32624">
        <ele>62.622924</ele>
        <time>2011-10-02T08:18:08Z</time>
      </trkpt>
      <trkpt lat="47.33681" lon="-1.32615">
        <ele>62.622924</ele>
        <time>2011-10-02T08:18:10Z</time>
      </trkpt>
      <trkpt lat="47.33662" lon="-1.32596">
        <ele>62.142334</ele>
        <time>2011-10-02T08:18:15Z</time>
      </trkpt>
      <trkpt lat="47.33652" lon="-1.32587">
        <ele>61.18103</ele>
        <time>2011-10-02T08:18:17Z</time>
      </trkpt>
      <trkpt lat="47.33626" lon="-1.32564">
        <ele>59.739135</ele>
        <time>2011-10-02T08:18:22Z</time>
      </trkpt>
      <trkpt lat="47.33606" lon="-1.3255">
        <ele>58.297119</ele>
        <time>2011-10-02T08:18:26Z</time>
      </trkpt>
      <trkpt lat="47.33593" lon="-1.32552">
        <ele>56.374511</ele>
        <time>2011-10-02T08:18:28Z</time>
      </trkpt>
      <trkpt lat="47.33562" lon="-1.32544">
        <ele>52.529174</ele>
        <time>2011-10-02T08:18:33Z</time>
      </trkpt>
      <trkpt lat="47.33555" lon="-1.3254">
        <ele>53.009765</ele>
        <time>2011-10-02T08:18:34Z</time>
      </trkpt>
      <trkpt lat="47.3354" lon="-1.32533">
        <ele>51.567871</ele>
        <time>2011-10-02T08:18:36Z</time>
      </trkpt>
      <trkpt lat="47.33519" lon="-1.32531">
        <ele>48.203369</ele>
        <time>2011-10-02T08:18:39Z</time>
      </trkpt>
      <trkpt lat="47.33509" lon="-1.32536">
        <ele>46.76123</ele>
        <time>2011-10-02T08:18:41Z</time>
      </trkpt>
      <trkpt lat="47.33505" lon="-1.32543">
        <ele>44.358032</ele>
        <time>2011-10-02T08:18:43Z</time>
      </trkpt>
      <trkpt lat="47.3349" lon="-1.32549">
        <ele>39.551269</ele>
        <time>2011-10-02T08:18:48Z</time>
      </trkpt>
      <trkpt lat="47.33484" lon="-1.32544">
        <ele>36.186767</ele>
        <time>2011-10-02T08:18:51Z</time>
      </trkpt>
      <trkpt lat="47.33482" lon="-1.32543">
        <ele>34.744873</ele>
        <time>2011-10-02T08:18:52Z</time>
      </trkpt>
      <trkpt lat="47.33474" lon="-1.32532">
        <ele>28.496215</ele>
        <time>2011-10-02T08:18:57Z</time>
      </trkpt>
      <trkpt lat="47.33469" lon="-1.32531">
        <ele>25.612304</ele>
        <time>2011-10-02T08:19:00Z</time>
      </trkpt>
      <trkpt lat="47.33469" lon="-1.32531">
        <ele>25.612304</ele>
        <time>2011-10-02T08:19:03Z</time>
      </trkpt>
      <trkpt lat="47.33467" lon="-1.32536">
        <ele>24.651001</ele>
        <time>2011-10-02T08:19:04Z</time>
      </trkpt>
      <trkpt lat="47.33464" lon="-1.32539">
        <ele>24.170288</ele>
        <time>2011-10-02T08:19:06Z</time>
      </trkpt>
      <trkpt lat="47.33457" lon="-1.3254">
        <ele>25.131713</ele>
        <time>2011-10-02T08:19:19Z</time>
      </trkpt>
      <trkpt lat="47.33455" lon="-1.32548">
        <ele>25.131713</ele>
        <time>2011-10-02T08:19:24Z</time>
      </trkpt>
      <trkpt lat="47.33455" lon="-1.3255">
        <ele>24.170288</ele>
        <time>2011-10-02T08:19:25Z</time>
      </trkpt>
      <trkpt lat="47.33453" lon="-1.32558">
        <ele>22.728271</ele>
        <time>2011-10-02T08:19:28Z</time>
      </trkpt>
      <trkpt lat="47.33452" lon="-1.32575">
        <ele>19.84436</ele>
        <time>2011-10-02T08:19:32Z</time>
      </trkpt>
      <trkpt lat="47.3346" lon="-1.32587">
        <ele>20.324951</ele>
        <time>2011-10-02T08:19:35Z</time>
      </trkpt>
      <trkpt lat="47.33467" lon="-1.32599">
        <ele>20.805664</ele>
        <time>2011-10-02T08:19:38Z</time>
      </trkpt>
      <trkpt lat="47.33481" lon="-1.32622">
        <ele>20.324951</ele>
        <time>2011-10-02T08:19:44Z</time>
      </trkpt>
      <trkpt lat="47.33491" lon="-1.3264">
        <ele>20.805664</ele>
        <time>2011-10-02T08:19:49Z</time>
      </trkpt>
      <trkpt lat="47.33503" lon="-1.32653">
        <ele>21.766967</ele>
        <time>2011-10-02T08:19:54Z</time>
      </trkpt>
      <trkpt lat="47.33516" lon="-1.32674">
        <ele>21.286377</ele>
        <time>2011-10-02T08:20:00Z</time>
      </trkpt>
      <trkpt lat="47.33526" lon="-1.3269">
        <ele>20.805664</ele>
        <time>2011-10-02T08:20:05Z</time>
      </trkpt>
      <trkpt lat="47.3354" lon="-1.32704">
        <ele>20.805664</ele>
        <time>2011-10-02T08:20:10Z</time>
      </trkpt>
      <trkpt lat="47.33557" lon="-1.3272">
        <ele>21.766967</ele>
        <time>2011-10-02T08:20:16Z</time>
      </trkpt>
      <trkpt lat="47.33578" lon="-1.32737">
        <ele>21.766967</ele>
        <time>2011-10-02T08:20:22Z</time>
      </trkpt>
      <trkpt lat="47.33594" lon="-1.32748">
        <ele>23.208984</ele>
        <time>2011-10-02T08:20:27Z</time>
      </trkpt>
      <trkpt lat="47.33614" lon="-1.32765">
        <ele>23.689575</ele>
        <time>2011-10-02T08:20:33Z</time>
      </trkpt>
      <trkpt lat="47.33629" lon="-1.32778">
        <ele>24.651001</ele>
        <time>2011-10-02T08:20:38Z</time>
      </trkpt>
      <trkpt lat="47.33651" lon="-1.32798">
        <ele>25.131713</ele>
        <time>2011-10-02T08:20:45Z</time>
      </trkpt>
      <trkpt lat="47.33667" lon="-1.32824">
        <ele>25.131713</ele>
        <time>2011-10-02T08:20:51Z</time>
      </trkpt>
      <trkpt lat="47.33682" lon="-1.3284">
        <ele>25.131713</ele>
        <time>2011-10-02T08:20:56Z</time>
      </trkpt>
      <trkpt lat="47.33698" lon="-1.32857">
        <ele>26.092895</ele>
        <time>2011-10-02T08:21:01Z</time>
      </trkpt>
      <trkpt lat="47.33711" lon="-1.3287">
        <ele>26.092895</ele>
        <time>2011-10-02T08:21:05Z</time>
      </trkpt>
      <trkpt lat="47.33727" lon="-1.32882">
        <ele>24.651001</ele>
        <time>2011-10-02T08:21:09Z</time>
      </trkpt>
      <trkpt lat="47.33732" lon="-1.32886">
        <ele>24.651001</ele>
        <time>2011-10-02T08:21:10Z</time>
      </trkpt>
      <trkpt lat="47.33753" lon="-1.32904">
        <ele>25.131713</ele>
        <time>2011-10-02T08:21:16Z</time>
      </trkpt>
      <trkpt lat="47.33757" lon="-1.32908">
        <ele>25.131713</ele>
        <time>2011-10-02T08:21:19Z</time>
      </trkpt>
      <trkpt lat="47.33768" lon="-1.32913">
        <ele>25.612304</ele>
        <time>2011-10-02T08:21:25Z</time>
      </trkpt>
      <trkpt lat="47.33777" lon="-1.3292">
        <ele>25.612304</ele>
        <time>2011-10-02T08:21:30Z</time>
      </trkpt>
      <trkpt lat="47.33789" lon="-1.32929">
        <ele>26.092895</ele>
        <time>2011-10-02T08:21:34Z</time>
      </trkpt>
      <trkpt lat="47.33806" lon="-1.32939">
        <ele>26.573608</ele>
        <time>2011-10-02T08:21:40Z</time>
      </trkpt>
      <trkpt lat="47.33807" lon="-1.3294">
        <ele>26.092895</ele>
        <time>2011-10-02T08:21:42Z</time>
      </trkpt>
      <trkpt lat="47.33808" lon="-1.32942">
        <ele>26.573608</ele>
        <time>2011-10-02T08:21:45Z</time>
      </trkpt>
      <trkpt lat="47.33818" lon="-1.32943">
        <ele>28.015502</ele>
        <time>2011-10-02T08:21:50Z</time>
      </trkpt>
      <trkpt lat="47.33832" lon="-1.32944">
        <ele>30.899536</ele>
        <time>2011-10-02T08:21:55Z</time>
      </trkpt>
      <trkpt lat="47.3384" lon="-1.32955">
        <ele>31.860717</ele>
        <time>2011-10-02T08:22:01Z</time>
      </trkpt>
      <trkpt lat="47.33841" lon="-1.32957">
        <ele>31.860717</ele>
        <time>2011-10-02T08:22:03Z</time>
      </trkpt>
      <trkpt lat="47.33841" lon="-1.32958">
        <ele>31.380127</ele>
        <time>2011-10-02T08:22:06Z</time>
      </trkpt>
      <trkpt lat="47.33843" lon="-1.32959">
        <ele>32.341552</ele>
        <time>2011-10-02T08:22:07Z</time>
      </trkpt>
      <trkpt lat="47.3385" lon="-1.32965">
        <ele>32.341552</ele>
        <time>2011-10-02T08:22:10Z</time>
      </trkpt>
      <trkpt lat="47.33861" lon="-1.32979">
        <ele>30.899536</ele>
        <time>2011-10-02T08:22:14Z</time>
      </trkpt>
      <trkpt lat="47.33874" lon="-1.32983">
        <ele>30.899536</ele>
        <time>2011-10-02T08:22:17Z</time>
      </trkpt>
      <trkpt lat="47.33879" lon="-1.32983">
        <ele>31.380127</ele>
        <time>2011-10-02T08:22:18Z</time>
      </trkpt>
      <trkpt lat="47.33891" lon="-1.32983">
        <ele>31.860717</ele>
        <time>2011-10-02T08:22:20Z</time>
      </trkpt>
      <trkpt lat="47.33906" lon="-1.32984">
        <ele>32.341552</ele>
        <time>2011-10-02T08:22:24Z</time>
      </trkpt>
      <trkpt lat="47.33918" lon="-1.32987">
        <ele>32.822265</ele>
        <time>2011-10-02T08:22:29Z</time>
      </trkpt>
      <trkpt lat="47.33929" lon="-1.32989">
        <ele>32.822265</ele>
        <time>2011-10-02T08:22:35Z</time>
      </trkpt>
      <trkpt lat="47.33941" lon="-1.32996">
        <ele>32.822265</ele>
        <time>2011-10-02T08:22:41Z</time>
      </trkpt>
      <trkpt lat="47.3395" lon="-1.32989">
        <ele>33.302856</ele>
        <time>2011-10-02T08:22:46Z</time>
      </trkpt>
      <trkpt lat="47.33954" lon="-1.32985">
        <ele>33.783447</ele>
        <time>2011-10-02T08:22:48Z</time>
      </trkpt>
      <trkpt lat="47.33958" lon="-1.32981">
        <ele>33.302856</ele>
        <time>2011-10-02T08:22:50Z</time>
      </trkpt>
      <trkpt lat="47.3397" lon="-1.32971">
        <ele>33.302856</ele>
        <time>2011-10-02T08:22:57Z</time>
      </trkpt>
      <trkpt lat="47.33977" lon="-1.32965">
        <ele>33.302856</ele>
        <time>2011-10-02T08:23:01Z</time>
      </trkpt>
      <trkpt lat="47.3398" lon="-1.32961">
        <ele>32.822265</ele>
        <time>2011-10-02T08:23:04Z</time>
      </trkpt>
      <trkpt lat="47.33981" lon="-1.32964">
        <ele>36.186767</ele>
        <time>2011-10-02T08:23:09Z</time>
      </trkpt>
      <trkpt lat="47.3398" lon="-1.32969">
        <ele>36.66748</ele>
        <time>2011-10-02T08:23:13Z</time>
      </trkpt>
      <trkpt lat="47.33976" lon="-1.32978">
        <ele>34.744873</ele>
        <time>2011-10-02T08:23:18Z</time>
      </trkpt>
      <trkpt lat="47.33974" lon="-1.32985">
        <ele>33.783447</ele>
        <time>2011-10-02T08:23:20Z</time>
      </trkpt>
      <trkpt lat="47.33973" lon="-1.32992">
        <ele>35.706054</ele>
        <time>2011-10-02T08:23:23Z</time>
      </trkpt>
      <trkpt lat="47.33971" lon="-1.32997">
        <ele>34.26416</ele>
        <time>2011-10-02T08:23:26Z</time>
      </trkpt>
      <trkpt lat="47.33968" lon="-1.33005">
        <ele>34.26416</ele>
        <time>2011-10-02T08:23:32Z</time>
      </trkpt>
      <trkpt lat="47.33965" lon="-1.33015">
        <ele>34.26416</ele>
        <time>2011-10-02T08:23:36Z</time>
      </trkpt>
      <trkpt lat="47.33962" lon="-1.33021">
        <ele>32.822265</ele>
        <time>2011-10-02T08:23:39Z</time>
      </trkpt>
      <trkpt lat="47.33958" lon="-1.33019">
        <ele>32.341552</ele>
        <time>2011-10-02T08:23:41Z</time>
      </trkpt>
      <trkpt lat="47.33951" lon="-1.33025">
        <ele>31.380127</ele>
        <time>2011-10-02T08:23:46Z</time>
      </trkpt>
      <trkpt lat="47.33951" lon="-1.33027">
        <ele>31.380127</ele>
        <time>2011-10-02T08:23:47Z</time>
      </trkpt>
      <trkpt lat="47.33948" lon="-1.33034">
        <ele>31.380127</ele>
        <time>2011-10-02T08:23:53Z</time>
      </trkpt>
      <trkpt lat="47.33947" lon="-1.33036">
        <ele>31.860717</ele>
        <time>2011-10-02T08:23:56Z</time>
      </trkpt>
      <trkpt lat="47.33945" lon="-1.33038">
        <ele>31.860717</ele>
        <time>2011-10-02T08:23:58Z</time>
      </trkpt>
      <trkpt lat="47.33941" lon="-1.33041">
        <ele>31.860717</ele>
        <time>2011-10-02T08:24:13Z</time>
      </trkpt>
      <trkpt lat="47.33939" lon="-1.33042">
        <ele>31.860717</ele>
        <time>2011-10-02T08:24:16Z</time>
      </trkpt>
      <trkpt lat="47.33938" lon="-1.33043">
        <ele>32.341552</ele>
        <time>2011-10-02T08:24:19Z</time>
      </trkpt>
      <trkpt lat="47.33937" lon="-1.33044">
        <ele>32.341552</ele>
        <time>2011-10-02T08:24:20Z</time>
      </trkpt>
      <trkpt lat="47.33927" lon="-1.33043">
        <ele>33.783447</ele>
        <time>2011-10-02T08:24:59Z</time>
      </trkpt>
      <trkpt lat="47.33917" lon="-1.33052">
        <ele>34.744873</ele>
        <time>2011-10-02T08:25:05Z</time>
      </trkpt>
      <trkpt lat="47.33917" lon="-1.33054">
        <ele>34.26416</ele>
        <time>2011-10-02T08:25:06Z</time>
      </trkpt>
      <trkpt lat="47.33915" lon="-1.33064">
        <ele>35.225463</ele>
        <time>2011-10-02T08:25:10Z</time>
      </trkpt>
      <trkpt lat="47.33913" lon="-1.33081">
        <ele>36.66748</ele>
        <time>2011-10-02T08:25:17Z</time>
      </trkpt>
      <trkpt lat="47.3391" lon="-1.33093">
        <ele>37.628662</ele>
        <time>2011-10-02T08:25:22Z</time>
      </trkpt>
      <trkpt lat="47.33909" lon="-1.331">
        <ele>39.551269</ele>
        <time>2011-10-02T08:25:25Z</time>
      </trkpt>
      <trkpt lat="47.33908" lon="-1.33102">
        <ele>40.032104</ele>
        <time>2011-10-02T08:25:26Z</time>
      </trkpt>
      <trkpt lat="47.33903" lon="-1.33124">
        <ele>41.954711</ele>
        <time>2011-10-02T08:25:34Z</time>
      </trkpt>
      <trkpt lat="47.33898" lon="-1.33141">
        <ele>43.877319</ele>
        <time>2011-10-02T08:25:40Z</time>
      </trkpt>
      <trkpt lat="47.33891" lon="-1.33156">
        <ele>45.799926</ele>
        <time>2011-10-02T08:25:47Z</time>
      </trkpt>
      <trkpt lat="47.33886" lon="-1.33172">
        <ele>48.68396</ele>
        <time>2011-10-02T08:25:53Z</time>
      </trkpt>
      <trkpt lat="47.33881" lon="-1.33184">
        <ele>50.125976</ele>
        <time>2011-10-02T08:25:58Z</time>
      </trkpt>
      <trkpt lat="47.33877" lon="-1.332">
        <ele>51.087158</ele>
        <time>2011-10-02T08:26:05Z</time>
      </trkpt>
      <trkpt lat="47.33877" lon="-1.33202">
        <ele>52.529174</ele>
        <time>2011-10-02T08:26:06Z</time>
      </trkpt>
      <trkpt lat="47.33872" lon="-1.33218">
        <ele>54.451782</ele>
        <time>2011-10-02T08:26:13Z</time>
      </trkpt>
      <trkpt lat="47.33865" lon="-1.33239">
        <ele>55.893798</ele>
        <time>2011-10-02T08:26:21Z</time>
      </trkpt>
      <trkpt lat="47.33861" lon="-1.33255">
        <ele>58.297119</ele>
        <time>2011-10-02T08:26:27Z</time>
      </trkpt>
      <trkpt lat="47.33858" lon="-1.33263">
        <ele>59.258422</ele>
        <time>2011-10-02T08:26:30Z</time>
      </trkpt>
      <trkpt lat="47.33852" lon="-1.33279">
        <ele>61.18103</ele>
        <time>2011-10-02T08:26:36Z</time>
      </trkpt>
      <trkpt lat="47.33847" lon="-1.33295">
        <ele>62.622924</ele>
        <time>2011-10-02T08:26:42Z</time>
      </trkpt>
      <trkpt lat="47.33843" lon="-1.33311">
        <ele>63.103637</ele>
        <time>2011-10-02T08:26:47Z</time>
      </trkpt>
      <trkpt lat="47.33836" lon="-1.33332">
        <ele>65.50708</ele>
        <time>2011-10-02T08:26:53Z</time>
      </trkpt>
      <trkpt lat="47.33826" lon="-1.33359">
        <ele>67.429687</ele>
        <time>2011-10-02T08:27:00Z</time>
      </trkpt>
      <trkpt lat="47.3382" lon="-1.33381">
        <ele>68.871582</ele>
        <time>2011-10-02T08:27:06Z</time>
      </trkpt>
      <trkpt lat="47.33813" lon="-1.33404">
        <ele>69.832885</ele>
        <time>2011-10-02T08:27:12Z</time>
      </trkpt>
      <trkpt lat="47.33798" lon="-1.33437">
        <ele>72.716918</ele>
        <time>2011-10-02T08:27:21Z</time>
      </trkpt>
      <trkpt lat="47.33796" lon="-1.33441">
        <ele>72.716918</ele>
        <time>2011-10-02T08:27:22Z</time>
      </trkpt>
      <trkpt lat="47.33785" lon="-1.33468">
        <ele>74.158813</ele>
        <time>2011-10-02T08:27:29Z</time>
      </trkpt>
      <trkpt lat="47.33767" lon="-1.335">
        <ele>75.60083</ele>
        <time>2011-10-02T08:27:37Z</time>
      </trkpt>
      <trkpt lat="47.33751" lon="-1.33519">
        <ele>77.042846</ele>
        <time>2011-10-02T08:27:43Z</time>
      </trkpt>
      <trkpt lat="47.3373" lon="-1.33538">
        <ele>78.484741</ele>
        <time>2011-10-02T08:27:50Z</time>
      </trkpt>
      <trkpt lat="47.33718" lon="-1.33546">
        <ele>78.484741</ele>
        <time>2011-10-02T08:27:53Z</time>
      </trkpt>
      <trkpt lat="47.33687" lon="-1.33573">
        <ele>79.446044</ele>
        <time>2011-10-02T08:28:01Z</time>
      </trkpt>
      <trkpt lat="47.33664" lon="-1.33602">
        <ele>80.888183</ele>
        <time>2011-10-02T08:28:08Z</time>
      </trkpt>
      <trkpt lat="47.33642" lon="-1.33636">
        <ele>81.368774</ele>
        <time>2011-10-02T08:28:15Z</time>
      </trkpt>
      <trkpt lat="47.33621" lon="-1.33673">
        <ele>80.888183</ele>
        <time>2011-10-02T08:28:23Z</time>
      </trkpt>
      <trkpt lat="47.33609" lon="-1.33698">
        <ele>80.40747</ele>
        <time>2011-10-02T08:28:30Z</time>
      </trkpt>
      <trkpt lat="47.33603" lon="-1.33714">
        <ele>80.40747</ele>
        <time>2011-10-02T08:28:34Z</time>
      </trkpt>
      <trkpt lat="47.33592" lon="-1.3373">
        <ele>79.926635</ele>
        <time>2011-10-02T08:28:40Z</time>
      </trkpt>
      <trkpt lat="47.33592" lon="-1.3373">
        <ele>79.446044</ele>
        <time>2011-10-02T08:28:42Z</time>
      </trkpt>
      <trkpt lat="47.33593" lon="-1.33735">
        <ele>78.484741</ele>
        <time>2011-10-02T08:30:24Z</time>
      </trkpt>
      <trkpt lat="47.33592" lon="-1.33735">
        <ele>78.484741</ele>
        <time>2011-10-02T08:30:27Z</time>
      </trkpt>
      <trkpt lat="47.33592" lon="-1.33735">
        <ele>79.446044</ele>
        <time>2011-10-02T08:30:30Z</time>
      </trkpt>
      <trkpt lat="47.33591" lon="-1.33736">
        <ele>79.446044</ele>
        <time>2011-10-02T08:30:31Z</time>
      </trkpt>
      <trkpt lat="47.3358" lon="-1.33747">
        <ele>78.965454</ele>
        <time>2011-10-02T08:30:35Z</time>
      </trkpt>
      <trkpt lat="47.33556" lon="-1.33769">
        <ele>78.004028</ele>
        <time>2011-10-02T08:30:42Z</time>
      </trkpt>
      <trkpt lat="47.33553" lon="-1.33772">
        <ele>78.004028</ele>
        <time>2011-10-02T08:30:43Z</time>
      </trkpt>
      <trkpt lat="47.33519" lon="-1.33809">
        <ele>76.562133</ele>
        <time>2011-10-02T08:30:52Z</time>
      </trkpt>
      <trkpt lat="47.33511" lon="-1.3382">
        <ele>76.08142</ele>
        <time>2011-10-02T08:30:54Z</time>
      </trkpt>
      <trkpt lat="47.33483" lon="-1.33863">
        <ele>73.678222</ele>
        <time>2011-10-02T08:31:01Z</time>
      </trkpt>
      <trkpt lat="47.33468" lon="-1.33879">
        <ele>74.158813</ele>
        <time>2011-10-02T08:31:04Z</time>
      </trkpt>
      <trkpt lat="47.33459" lon="-1.33886">
        <ele>74.639526</ele>
        <time>2011-10-02T08:31:06Z</time>
      </trkpt>
      <trkpt lat="47.33422" lon="-1.33903">
        <ele>76.562133</ele>
        <time>2011-10-02T08:31:15Z</time>
      </trkpt>
      <trkpt lat="47.33418" lon="-1.33905">
        <ele>77.042846</ele>
        <time>2011-10-02T08:31:16Z</time>
      </trkpt>
      <trkpt lat="47.33382" lon="-1.33919">
        <ele>76.562133</ele>
        <time>2011-10-02T08:31:25Z</time>
      </trkpt>
      <trkpt lat="47.33359" lon="-1.33928">
        <ele>77.523437</ele>
        <time>2011-10-02T08:31:32Z</time>
      </trkpt>
      <trkpt lat="47.33324" lon="-1.33943">
        <ele>79.926635</ele>
        <time>2011-10-02T08:31:41Z</time>
      </trkpt>
      <trkpt lat="47.33291" lon="-1.33958">
        <ele>83.291381</ele>
        <time>2011-10-02T08:31:49Z</time>
      </trkpt>
      <trkpt lat="47.33276" lon="-1.33976">
        <ele>84.252685</ele>
        <time>2011-10-02T08:31:53Z</time>
      </trkpt>
      <trkpt lat="47.33248" lon="-1.34028">
        <ele>84.733398</ele>
        <time>2011-10-02T08:32:03Z</time>
      </trkpt>
      <trkpt lat="47.33218" lon="-1.34081">
        <ele>84.252685</ele>
        <time>2011-10-02T08:32:12Z</time>
      </trkpt>
      <trkpt lat="47.33183" lon="-1.34142">
        <ele>83.771972</ele>
        <time>2011-10-02T08:32:22Z</time>
      </trkpt>
      <trkpt lat="47.33153" lon="-1.34193">
        <ele>82.810791</ele>
        <time>2011-10-02T08:32:30Z</time>
      </trkpt>
      <trkpt lat="47.33129" lon="-1.34236">
        <ele>80.888183</ele>
        <time>2011-10-02T08:32:36Z</time>
      </trkpt>
      <trkpt lat="47.33126" lon="-1.34263">
        <ele>79.446044</ele>
        <time>2011-10-02T08:32:40Z</time>
      </trkpt>
      <trkpt lat="47.33137" lon="-1.34272">
        <ele>79.446044</ele>
        <time>2011-10-02T08:32:43Z</time>
      </trkpt>
      <trkpt lat="47.33141" lon="-1.34275">
        <ele>79.446044</ele>
        <time>2011-10-02T08:32:44Z</time>
      </trkpt>
      <trkpt lat="47.33157" lon="-1.34293">
        <ele>79.926635</ele>
        <time>2011-10-02T08:32:49Z</time>
      </trkpt>
      <trkpt lat="47.33153" lon="-1.34315">
        <ele>78.965454</ele>
        <time>2011-10-02T08:32:53Z</time>
      </trkpt>
      <trkpt lat="47.33136" lon="-1.34345">
        <ele>77.523437</ele>
        <time>2011-10-02T08:32:57Z</time>
      </trkpt>
      <trkpt lat="47.33116" lon="-1.3438">
        <ele>75.60083</ele>
        <time>2011-10-02T08:33:01Z</time>
      </trkpt>
      <trkpt lat="47.33098" lon="-1.34415">
        <ele>77.042846</ele>
        <time>2011-10-02T08:33:06Z</time>
      </trkpt>
      <trkpt lat="47.33076" lon="-1.34449">
        <ele>77.523437</ele>
        <time>2011-10-02T08:33:13Z</time>
      </trkpt>
      <trkpt lat="47.33066" lon="-1.34466">
        <ele>78.004028</ele>
        <time>2011-10-02T08:33:16Z</time>
      </trkpt>
      <trkpt lat="47.33039" lon="-1.3451">
        <ele>79.926635</ele>
        <time>2011-10-02T08:33:24Z</time>
      </trkpt>
      <trkpt lat="47.33021" lon="-1.34546">
        <ele>80.888183</ele>
        <time>2011-10-02T08:33:30Z</time>
      </trkpt>
      <trkpt lat="47.32997" lon="-1.346">
        <ele>81.849365</ele>
        <time>2011-10-02T08:33:39Z</time>
      </trkpt>
      <trkpt lat="47.32988" lon="-1.34623">
        <ele>82.810791</ele>
        <time>2011-10-02T08:33:43Z</time>
      </trkpt>
      <trkpt lat="47.32975" lon="-1.34637">
        <ele>82.330078</ele>
        <time>2011-10-02T08:33:48Z</time>
      </trkpt>
      <trkpt lat="47.32974" lon="-1.34655">
        <ele>83.771972</ele>
        <time>2011-10-02T08:33:52Z</time>
      </trkpt>
      <trkpt lat="47.32976" lon="-1.3466">
        <ele>83.291381</ele>
        <time>2011-10-02T08:33:53Z</time>
      </trkpt>
      <trkpt lat="47.32986" lon="-1.34679">
        <ele>83.291381</ele>
        <time>2011-10-02T08:33:57Z</time>
      </trkpt>
      <trkpt lat="47.33007" lon="-1.34717">
        <ele>83.771972</ele>
        <time>2011-10-02T08:34:04Z</time>
      </trkpt>
      <trkpt lat="47.33027" lon="-1.34755">
        <ele>83.771972</ele>
        <time>2011-10-02T08:34:10Z</time>
      </trkpt>
      <trkpt lat="47.33053" lon="-1.34809">
        <ele>83.771972</ele>
        <time>2011-10-02T08:34:18Z</time>
      </trkpt>
      <trkpt lat="47.33082" lon="-1.34868">
        <ele>84.252685</ele>
        <time>2011-10-02T08:34:26Z</time>
      </trkpt>
      <trkpt lat="47.33104" lon="-1.34913">
        <ele>83.771972</ele>
        <time>2011-10-02T08:34:32Z</time>
      </trkpt>
      <trkpt lat="47.33135" lon="-1.3496">
        <ele>84.252685</ele>
        <time>2011-10-02T08:34:39Z</time>
      </trkpt>
      <trkpt lat="47.33177" lon="-1.35015">
        <ele>84.252685</ele>
        <time>2011-10-02T08:34:48Z</time>
      </trkpt>
      <trkpt lat="47.33195" lon="-1.35038">
        <ele>84.252685</ele>
        <time>2011-10-02T08:34:53Z</time>
      </trkpt>
      <trkpt lat="47.33193" lon="-1.35055">
        <ele>84.733398</ele>
        <time>2011-10-02T08:34:57Z</time>
      </trkpt>
      <trkpt lat="47.33189" lon="-1.35058">
        <ele>84.252685</ele>
        <time>2011-10-02T08:34:58Z</time>
      </trkpt>
      <trkpt lat="47.33153" lon="-1.35089">
        <ele>85.213989</ele>
        <time>2011-10-02T08:35:06Z</time>
      </trkpt>
      <trkpt lat="47.33148" lon="-1.35093">
        <ele>85.213989</ele>
        <time>2011-10-02T08:35:07Z</time>
      </trkpt>
      <trkpt lat="47.33136" lon="-1.35111">
        <ele>85.213989</ele>
        <time>2011-10-02T08:35:11Z</time>
      </trkpt>
      <trkpt lat="47.33138" lon="-1.35117">
        <ele>85.213989</ele>
        <time>2011-10-02T08:35:12Z</time>
      </trkpt>
      <trkpt lat="47.33155" lon="-1.35166">
        <ele>85.69458</ele>
        <time>2011-10-02T08:35:19Z</time>
      </trkpt>
      <trkpt lat="47.33177" lon="-1.35227">
        <ele>86.175293</ele>
        <time>2011-10-02T08:35:28Z</time>
      </trkpt>
      <trkpt lat="47.33187" lon="-1.35255">
        <ele>86.175293</ele>
        <time>2011-10-02T08:35:32Z</time>
      </trkpt>
      <trkpt lat="47.33207" lon="-1.35311">
        <ele>85.69458</ele>
        <time>2011-10-02T08:35:40Z</time>
      </trkpt>
      <trkpt lat="47.33219" lon="-1.35347">
        <ele>86.175293</ele>
        <time>2011-10-02T08:35:45Z</time>
      </trkpt>
      <trkpt lat="47.33224" lon="-1.35362">
        <ele>86.175293</ele>
        <time>2011-10-02T08:35:47Z</time>
      </trkpt>
      <trkpt lat="47.33241" lon="-1.35408">
        <ele>85.69458</ele>
        <time>2011-10-02T08:35:53Z</time>
      </trkpt>
      <trkpt lat="47.33258" lon="-1.35454">
        <ele>86.175293</ele>
        <time>2011-10-02T08:35:59Z</time>
      </trkpt>
      <trkpt lat="47.33276" lon="-1.35498">
        <ele>86.175293</ele>
        <time>2011-10-02T08:36:05Z</time>
      </trkpt>
      <trkpt lat="47.33299" lon="-1.35539">
        <ele>84.733398</ele>
        <time>2011-10-02T08:36:11Z</time>
      </trkpt>
      <trkpt lat="47.33317" lon="-1.35588">
        <ele>84.733398</ele>
        <time>2011-10-02T08:36:17Z</time>
      </trkpt>
      <trkpt lat="47.33329" lon="-1.35625">
        <ele>83.291381</ele>
        <time>2011-10-02T08:36:21Z</time>
      </trkpt>
      <trkpt lat="47.33323" lon="-1.3565">
        <ele>81.849365</ele>
        <time>2011-10-02T08:36:25Z</time>
      </trkpt>
      <trkpt lat="47.33315" lon="-1.35649">
        <ele>82.330078</ele>
        <time>2011-10-02T08:36:27Z</time>
      </trkpt>
      <trkpt lat="47.33294" lon="-1.35643">
        <ele>80.888183</ele>
        <time>2011-10-02T08:36:31Z</time>
      </trkpt>
      <trkpt lat="47.33258" lon="-1.35639">
        <ele>82.330078</ele>
        <time>2011-10-02T08:36:37Z</time>
      </trkpt>
      <trkpt lat="47.33216" lon="-1.35644">
        <ele>82.810791</ele>
        <time>2011-10-02T08:36:44Z</time>
      </trkpt>
      <trkpt lat="47.33191" lon="-1.35651">
        <ele>83.291381</ele>
        <time>2011-10-02T08:36:48Z</time>
      </trkpt>
      <trkpt lat="47.33156" lon="-1.35672">
        <ele>83.771972</ele>
        <time>2011-10-02T08:36:54Z</time>
      </trkpt>
      <trkpt lat="47.33105" lon="-1.35699">
        <ele>83.291381</ele>
        <time>2011-10-02T08:37:02Z</time>
      </trkpt>
      <trkpt lat="47.33074" lon="-1.35706">
        <ele>83.771972</ele>
        <time>2011-10-02T08:37:07Z</time>
      </trkpt>
      <trkpt lat="47.33032" lon="-1.35707">
        <ele>84.252685</ele>
        <time>2011-10-02T08:37:14Z</time>
      </trkpt>
      <trkpt lat="47.33007" lon="-1.35716">
        <ele>84.733398</ele>
        <time>2011-10-02T08:37:19Z</time>
      </trkpt>
      <trkpt lat="47.33003" lon="-1.3572">
        <ele>84.733398</ele>
        <time>2011-10-02T08:37:20Z</time>
      </trkpt>
      <trkpt lat="47.32991" lon="-1.35749">
        <ele>82.810791</ele>
        <time>2011-10-02T08:37:25Z</time>
      </trkpt>
      <trkpt lat="47.32985" lon="-1.35803">
        <ele>82.810791</ele>
        <time>2011-10-02T08:37:32Z</time>
      </trkpt>
      <trkpt lat="47.3298" lon="-1.35861">
        <ele>81.368774</ele>
        <time>2011-10-02T08:37:39Z</time>
      </trkpt>
      <trkpt lat="47.3298" lon="-1.35869">
        <ele>81.849365</ele>
        <time>2011-10-02T08:37:40Z</time>
      </trkpt>
      <trkpt lat="47.32985" lon="-1.35895">
        <ele>80.40747</ele>
        <time>2011-10-02T08:37:43Z</time>
      </trkpt>
      <trkpt lat="47.33009" lon="-1.35953">
        <ele>78.484741</ele>
        <time>2011-10-02T08:37:50Z</time>
      </trkpt>
      <trkpt lat="47.33035" lon="-1.36008">
        <ele>77.523437</ele>
        <time>2011-10-02T08:37:56Z</time>
      </trkpt>
      <trkpt lat="47.33056" lon="-1.36066">
        <ele>74.639526</ele>
        <time>2011-10-02T08:38:01Z</time>
      </trkpt>
      <trkpt lat="47.33079" lon="-1.36127">
        <ele>71.755493</ele>
        <time>2011-10-02T08:38:06Z</time>
      </trkpt>
      <trkpt lat="47.3309" lon="-1.36147">
        <ele>70.794189</ele>
        <time>2011-10-02T08:38:08Z</time>
      </trkpt>
      <trkpt lat="47.331" lon="-1.36163">
        <ele>71.274902</ele>
        <time>2011-10-02T08:38:10Z</time>
      </trkpt>
      <trkpt lat="47.33108" lon="-1.3618">
        <ele>71.274902</ele>
        <time>2011-10-02T08:38:14Z</time>
      </trkpt>
      <trkpt lat="47.33102" lon="-1.36178">
        <ele>70.313476</ele>
        <time>2011-10-02T08:38:17Z</time>
      </trkpt>
      <trkpt lat="47.33093" lon="-1.36169">
        <ele>67.910278</ele>
        <time>2011-10-02T08:38:19Z</time>
      </trkpt>
      <trkpt lat="47.33079" lon="-1.36165">
        <ele>65.50708</ele>
        <time>2011-10-02T08:38:22Z</time>
      </trkpt>
      <trkpt lat="47.3307" lon="-1.36175">
        <ele>65.026367</ele>
        <time>2011-10-02T08:38:24Z</time>
      </trkpt>
      <trkpt lat="47.33041" lon="-1.36201">
        <ele>64.065063</ele>
        <time>2011-10-02T08:38:29Z</time>
      </trkpt>
      <trkpt lat="47.33001" lon="-1.36213">
        <ele>62.142334</ele>
        <time>2011-10-02T08:38:34Z</time>
      </trkpt>
      <trkpt lat="47.32985" lon="-1.36223">
        <ele>60.219726</ele>
        <time>2011-10-02T08:38:36Z</time>
      </trkpt>
      <trkpt lat="47.32957" lon="-1.3624">
        <ele>58.297119</ele>
        <time>2011-10-02T08:38:40Z</time>
      </trkpt>
      <trkpt lat="47.3295" lon="-1.36245">
        <ele>56.855102</ele>
        <time>2011-10-02T08:38:41Z</time>
      </trkpt>
      <trkpt lat="47.32938" lon="-1.36258">
        <ele>54.451782</ele>
        <time>2011-10-02T08:38:43Z</time>
      </trkpt>
      <trkpt lat="47.32925" lon="-1.36268">
        <ele>53.009765</ele>
        <time>2011-10-02T08:38:45Z</time>
      </trkpt>
      <trkpt lat="47.32908" lon="-1.36278">
        <ele>51.087158</ele>
        <time>2011-10-02T08:38:47Z</time>
      </trkpt>
      <trkpt lat="47.32882" lon="-1.36292">
        <ele>49.645263</ele>
        <time>2011-10-02T08:38:50Z</time>
      </trkpt>
      <trkpt lat="47.32867" lon="-1.36302">
        <ele>48.203369</ele>
        <time>2011-10-02T08:38:52Z</time>
      </trkpt>
      <trkpt lat="47.32834" lon="-1.36323">
        <ele>44.838623</ele>
        <time>2011-10-02T08:38:56Z</time>
      </trkpt>
      <trkpt lat="47.32824" lon="-1.36337">
        <ele>43.877319</ele>
        <time>2011-10-02T08:38:59Z</time>
      </trkpt>
      <trkpt lat="47.32833" lon="-1.3635">
        <ele>43.877319</ele>
        <time>2011-10-02T08:39:03Z</time>
      </trkpt>
      <trkpt lat="47.3284" lon="-1.36361">
        <ele>43.877319</ele>
        <time>2011-10-02T08:39:08Z</time>
      </trkpt>
      <trkpt lat="47.32843" lon="-1.36374">
        <ele>44.358032</ele>
        <time>2011-10-02T08:39:14Z</time>
      </trkpt>
      <trkpt lat="47.32844" lon="-1.36378">
        <ele>45.319213</ele>
        <time>2011-10-02T08:39:16Z</time>
      </trkpt>
      <trkpt lat="47.3285" lon="-1.36392">
        <ele>45.319213</ele>
        <time>2011-10-02T08:39:21Z</time>
      </trkpt>
      <trkpt lat="47.32853" lon="-1.36407">
        <ele>45.799926</ele>
        <time>2011-10-02T08:39:26Z</time>
      </trkpt>
      <trkpt lat="47.32858" lon="-1.36426">
        <ele>46.280639</ele>
        <time>2011-10-02T08:39:31Z</time>
      </trkpt>
      <trkpt lat="47.32859" lon="-1.36443">
        <ele>46.280639</ele>
        <time>2011-10-02T08:39:36Z</time>
      </trkpt>
      <trkpt lat="47.32864" lon="-1.36464">
        <ele>46.76123</ele>
        <time>2011-10-02T08:39:41Z</time>
      </trkpt>
      <trkpt lat="47.32875" lon="-1.3649">
        <ele>47.722534</ele>
        <time>2011-10-02T08:39:47Z</time>
      </trkpt>
      <trkpt lat="47.32891" lon="-1.36527">
        <ele>47.722534</ele>
        <time>2011-10-02T08:39:55Z</time>
      </trkpt>
      <trkpt lat="47.32894" lon="-1.3653">
        <ele>47.241821</ele>
        <time>2011-10-02T08:39:56Z</time>
      </trkpt>
      <trkpt lat="47.32911" lon="-1.36552">
        <ele>47.241821</ele>
        <time>2011-10-02T08:40:02Z</time>
      </trkpt>
      <trkpt lat="47.32926" lon="-1.36557">
        <ele>48.68396</ele>
        <time>2011-10-02T08:40:06Z</time>
      </trkpt>
      <trkpt lat="47.32938" lon="-1.36567">
        <ele>50.125976</ele>
        <time>2011-10-02T08:40:10Z</time>
      </trkpt>
      <trkpt lat="47.32953" lon="-1.36596">
        <ele>49.645263</ele>
        <time>2011-10-02T08:40:15Z</time>
      </trkpt>
      <trkpt lat="47.3297" lon="-1.36628">
        <ele>50.125976</ele>
        <time>2011-10-02T08:40:20Z</time>
      </trkpt>
      <trkpt lat="47.32973" lon="-1.36633">
        <ele>50.125976</ele>
        <time>2011-10-02T08:40:21Z</time>
      </trkpt>
      <trkpt lat="47.32993" lon="-1.36676">
        <ele>52.048584</ele>
        <time>2011-10-02T08:40:29Z</time>
      </trkpt>
      <trkpt lat="47.33005" lon="-1.367">
        <ele>52.048584</ele>
        <time>2011-10-02T08:40:33Z</time>
      </trkpt>
      <trkpt lat="47.33021" lon="-1.36722">
        <ele>52.529174</ele>
        <time>2011-10-02T08:40:38Z</time>
      </trkpt>
      <trkpt lat="47.33037" lon="-1.36737">
        <ele>53.009765</ele>
        <time>2011-10-02T08:40:42Z</time>
      </trkpt>
      <trkpt lat="47.3306" lon="-1.36748">
        <ele>53.490478</ele>
        <time>2011-10-02T08:40:47Z</time>
      </trkpt>
      <trkpt lat="47.33079" lon="-1.36762">
        <ele>53.971191</ele>
        <time>2011-10-02T08:40:52Z</time>
      </trkpt>
      <trkpt lat="47.33094" lon="-1.36774">
        <ele>53.009765</ele>
        <time>2011-10-02T08:40:56Z</time>
      </trkpt>
      <trkpt lat="47.33105" lon="-1.36779">
        <ele>53.971191</ele>
        <time>2011-10-02T08:40:59Z</time>
      </trkpt>
      <trkpt lat="47.33108" lon="-1.36783">
        <ele>53.971191</ele>
        <time>2011-10-02T08:41:00Z</time>
      </trkpt>
      <trkpt lat="47.33114" lon="-1.36792">
        <ele>54.451782</ele>
        <time>2011-10-02T08:41:02Z</time>
      </trkpt>
      <trkpt lat="47.33129" lon="-1.36813">
        <ele>55.413085</ele>
        <time>2011-10-02T08:41:07Z</time>
      </trkpt>
      <trkpt lat="47.33144" lon="-1.36835">
        <ele>55.413085</ele>
        <time>2011-10-02T08:41:12Z</time>
      </trkpt>
      <trkpt lat="47.33154" lon="-1.36852">
        <ele>55.413085</ele>
        <time>2011-10-02T08:41:16Z</time>
      </trkpt>
      <trkpt lat="47.33157" lon="-1.36862">
        <ele>55.413085</ele>
        <time>2011-10-02T08:41:18Z</time>
      </trkpt>
      <trkpt lat="47.33169" lon="-1.36891">
        <ele>53.971191</ele>
        <time>2011-10-02T08:41:23Z</time>
      </trkpt>
      <trkpt lat="47.33177" lon="-1.36908">
        <ele>54.932373</ele>
        <time>2011-10-02T08:41:29Z</time>
      </trkpt>
      <trkpt lat="47.33177" lon="-1.36909">
        <ele>55.893798</ele>
        <time>2011-10-02T08:41:33Z</time>
      </trkpt>
      <trkpt lat="47.33177" lon="-1.36908">
        <ele>55.893798</ele>
        <time>2011-10-02T08:41:34Z</time>
      </trkpt>
      <trkpt lat="47.33182" lon="-1.3692">
        <ele>55.413085</ele>
        <time>2011-10-02T08:41:39Z</time>
      </trkpt>
      <trkpt lat="47.33188" lon="-1.36924">
        <ele>55.893798</ele>
        <time>2011-10-02T08:41:42Z</time>
      </trkpt>
      <trkpt lat="47.33194" lon="-1.36932">
        <ele>56.374511</ele>
        <time>2011-10-02T08:41:51Z</time>
      </trkpt>
      <trkpt lat="47.33194" lon="-1.36933">
        <ele>55.893798</ele>
        <time>2011-10-02T08:41:52Z</time>
      </trkpt>
      <trkpt lat="47.33192" lon="-1.36938">
        <ele>56.855102</ele>
        <time>2011-10-02T08:41:57Z</time>
      </trkpt>
      <trkpt lat="47.33192" lon="-1.3694">
        <ele>56.855102</ele>
        <time>2011-10-02T08:42:00Z</time>
      </trkpt>
      <trkpt lat="47.33191" lon="-1.36941">
        <ele>57.335815</ele>
        <time>2011-10-02T08:42:01Z</time>
      </trkpt>
      <trkpt lat="47.33189" lon="-1.36951">
        <ele>58.77771</ele>
        <time>2011-10-02T08:42:05Z</time>
      </trkpt>
      <trkpt lat="47.33189" lon="-1.36953">
        <ele>59.258422</ele>
        <time>2011-10-02T08:42:08Z</time>
      </trkpt>
      <trkpt lat="47.33191" lon="-1.36954">
        <ele>59.739135</ele>
        <time>2011-10-02T08:42:15Z</time>
      </trkpt>
      <trkpt lat="47.33187" lon="-1.36957">
        <ele>60.700317</ele>
        <time>2011-10-02T08:42:20Z</time>
      </trkpt>
      <trkpt lat="47.33177" lon="-1.3697">
        <ele>63.103637</ele>
        <time>2011-10-02T08:42:27Z</time>
      </trkpt>
      <trkpt lat="47.33168" lon="-1.36983">
        <ele>66.468261</ele>
        <time>2011-10-02T08:42:34Z</time>
      </trkpt>
      <trkpt lat="47.33158" lon="-1.37003">
        <ele>66.948974</ele>
        <time>2011-10-02T08:42:42Z</time>
      </trkpt>
      <trkpt lat="47.33148" lon="-1.37022">
        <ele>69.352294</ele>
        <time>2011-10-02T08:42:49Z</time>
      </trkpt>
      <trkpt lat="47.33139" lon="-1.37037">
        <ele>70.313476</ele>
        <time>2011-10-02T08:42:55Z</time>
      </trkpt>
      <trkpt lat="47.33138" lon="-1.37047">
        <ele>71.755493</ele>
        <time>2011-10-02T08:42:58Z</time>
      </trkpt>
      <trkpt lat="47.33138" lon="-1.37049">
        <ele>71.755493</ele>
        <time>2011-10-02T08:42:59Z</time>
      </trkpt>
      <trkpt lat="47.33133" lon="-1.37062">
        <ele>72.236206</ele>
        <time>2011-10-02T08:43:05Z</time>
      </trkpt>
      <trkpt lat="47.33119" lon="-1.37086">
        <ele>73.197631</ele>
        <time>2011-10-02T08:43:14Z</time>
      </trkpt>
      <trkpt lat="47.33102" lon="-1.37119">
        <ele>74.639526</ele>
        <time>2011-10-02T08:43:26Z</time>
      </trkpt>
      <trkpt lat="47.33089" lon="-1.37146">
        <ele>75.60083</ele>
        <time>2011-10-02T08:43:35Z</time>
      </trkpt>
      <trkpt lat="47.33077" lon="-1.37171">
        <ele>77.523437</ele>
        <time>2011-10-02T08:43:43Z</time>
      </trkpt>
      <trkpt lat="47.33067" lon="-1.37192">
        <ele>78.004028</ele>
        <time>2011-10-02T08:43:49Z</time>
      </trkpt>
      <trkpt lat="47.33072" lon="-1.37204">
        <ele>78.484741</ele>
        <time>2011-10-02T08:43:53Z</time>
      </trkpt>
      <trkpt lat="47.33084" lon="-1.37208">
        <ele>78.004028</ele>
        <time>2011-10-02T08:43:57Z</time>
      </trkpt>
      <trkpt lat="47.33087" lon="-1.37209">
        <ele>78.004028</ele>
        <time>2011-10-02T08:44:00Z</time>
      </trkpt>
      <trkpt lat="47.33088" lon="-1.37209">
        <ele>78.004028</ele>
        <time>2011-10-02T08:44:14Z</time>
      </trkpt>
      <trkpt lat="47.33095" lon="-1.3721">
        <ele>77.523437</ele>
        <time>2011-10-02T08:44:16Z</time>
      </trkpt>
      <trkpt lat="47.33115" lon="-1.37218">
        <ele>77.523437</ele>
        <time>2011-10-02T08:44:23Z</time>
      </trkpt>
      <trkpt lat="47.33122" lon="-1.3722">
        <ele>77.042846</ele>
        <time>2011-10-02T08:44:25Z</time>
      </trkpt>
      <trkpt lat="47.3314" lon="-1.37226">
        <ele>76.562133</ele>
        <time>2011-10-02T08:44:29Z</time>
      </trkpt>
      <trkpt lat="47.33167" lon="-1.37234">
        <ele>74.639526</ele>
        <time>2011-10-02T08:44:34Z</time>
      </trkpt>
      <trkpt lat="47.33179" lon="-1.3723">
        <ele>74.639526</ele>
        <time>2011-10-02T08:44:36Z</time>
      </trkpt>
      <trkpt lat="47.33211" lon="-1.3722">
        <ele>71.755493</ele>
        <time>2011-10-02T08:44:41Z</time>
      </trkpt>
      <trkpt lat="47.33224" lon="-1.37217">
        <ele>69.352294</ele>
        <time>2011-10-02T08:44:43Z</time>
      </trkpt>
      <trkpt lat="47.33245" lon="-1.37212">
        <ele>65.98767</ele>
        <time>2011-10-02T08:44:46Z</time>
      </trkpt>
      <trkpt lat="47.33266" lon="-1.37192">
        <ele>63.103637</ele>
        <time>2011-10-02T08:44:51Z</time>
      </trkpt>
      <trkpt lat="47.33271" lon="-1.37189">
        <ele>62.622924</ele>
        <time>2011-10-02T08:44:52Z</time>
      </trkpt>
      <trkpt lat="47.33295" lon="-1.37178">
        <ele>61.661743</ele>
        <time>2011-10-02T08:44:57Z</time>
      </trkpt>
      <trkpt lat="47.33309" lon="-1.37162">
        <ele>60.219726</ele>
        <time>2011-10-02T08:45:00Z</time>
      </trkpt>
      <trkpt lat="47.33316" lon="-1.37157">
        <ele>59.258422</ele>
        <time>2011-10-02T08:45:02Z</time>
      </trkpt>
      <trkpt lat="47.33321" lon="-1.37151">
        <ele>59.739135</ele>
        <time>2011-10-02T08:45:04Z</time>
      </trkpt>
      <trkpt lat="47.33326" lon="-1.37149">
        <ele>60.219726</ele>
        <time>2011-10-02T08:45:06Z</time>
      </trkpt>
      <trkpt lat="47.33332" lon="-1.37163">
        <ele>60.700317</ele>
        <time>2011-10-02T08:45:10Z</time>
      </trkpt>
      <trkpt lat="47.33333" lon="-1.37167">
        <ele>60.219726</ele>
        <time>2011-10-02T08:45:11Z</time>
      </trkpt>
      <trkpt lat="47.33339" lon="-1.37187">
        <ele>60.219726</ele>
        <time>2011-10-02T08:45:17Z</time>
      </trkpt>
      <trkpt lat="47.33339" lon="-1.37191">
        <ele>60.700317</ele>
        <time>2011-10-02T08:45:18Z</time>
      </trkpt>
      <trkpt lat="47.33346" lon="-1.37213">
        <ele>61.18103</ele>
        <time>2011-10-02T08:45:25Z</time>
      </trkpt>
      <trkpt lat="47.33349" lon="-1.37233">
        <ele>60.700317</ele>
        <time>2011-10-02T08:45:30Z</time>
      </trkpt>
      <trkpt lat="47.33353" lon="-1.37259">
        <ele>61.18103</ele>
        <time>2011-10-02T08:45:36Z</time>
      </trkpt>
      <trkpt lat="47.33359" lon="-1.37281">
        <ele>62.622924</ele>
        <time>2011-10-02T08:45:40Z</time>
      </trkpt>
      <trkpt lat="47.33362" lon="-1.37287">
        <ele>62.142334</ele>
        <time>2011-10-02T08:45:41Z</time>
      </trkpt>
      <trkpt lat="47.33374" lon="-1.3732">
        <ele>63.58435</ele>
        <time>2011-10-02T08:45:47Z</time>
      </trkpt>
      <trkpt lat="47.33375" lon="-1.37325">
        <ele>63.58435</ele>
        <time>2011-10-02T08:45:48Z</time>
      </trkpt>
      <trkpt lat="47.33377" lon="-1.37356">
        <ele>61.18103</ele>
        <time>2011-10-02T08:45:52Z</time>
      </trkpt>
      <trkpt lat="47.33381" lon="-1.3738">
        <ele>61.661743</ele>
        <time>2011-10-02T08:45:55Z</time>
      </trkpt>
      <trkpt lat="47.33393" lon="-1.37402">
        <ele>63.103637</ele>
        <time>2011-10-02T08:46:00Z</time>
      </trkpt>
      <trkpt lat="47.33402" lon="-1.37414">
        <ele>63.103637</ele>
        <time>2011-10-02T08:46:03Z</time>
      </trkpt>
      <trkpt lat="47.33425" lon="-1.37443">
        <ele>63.58435</ele>
        <time>2011-10-02T08:46:11Z</time>
      </trkpt>
      <trkpt lat="47.33435" lon="-1.3746">
        <ele>65.50708</ele>
        <time>2011-10-02T08:46:15Z</time>
      </trkpt>
      <trkpt lat="47.33436" lon="-1.37464">
        <ele>65.50708</ele>
        <time>2011-10-02T08:46:16Z</time>
      </trkpt>
      <trkpt lat="47.33434" lon="-1.37484">
        <ele>66.948974</ele>
        <time>2011-10-02T08:46:20Z</time>
      </trkpt>
      <trkpt lat="47.33419" lon="-1.37511">
        <ele>69.352294</ele>
        <time>2011-10-02T08:46:26Z</time>
      </trkpt>
      <trkpt lat="47.33399" lon="-1.37546">
        <ele>72.236206</ele>
        <time>2011-10-02T08:46:34Z</time>
      </trkpt>
      <trkpt lat="47.33383" lon="-1.3758">
        <ele>74.158813</ele>
        <time>2011-10-02T08:46:41Z</time>
      </trkpt>
      <trkpt lat="47.33366" lon="-1.37621">
        <ele>74.639526</ele>
        <time>2011-10-02T08:46:50Z</time>
      </trkpt>
      <trkpt lat="47.33351" lon="-1.37665">
        <ele>75.120239</ele>
        <time>2011-10-02T08:46:58Z</time>
      </trkpt>
      <trkpt lat="47.33339" lon="-1.37712">
        <ele>76.08142</ele>
        <time>2011-10-02T08:47:06Z</time>
      </trkpt>
      <trkpt lat="47.33331" lon="-1.37751">
        <ele>77.042846</ele>
        <time>2011-10-02T08:47:13Z</time>
      </trkpt>
      <trkpt lat="47.33316" lon="-1.3779">
        <ele>77.042846</ele>
        <time>2011-10-02T08:47:21Z</time>
      </trkpt>
      <trkpt lat="47.33301" lon="-1.37809">
        <ele>78.004028</ele>
        <time>2011-10-02T08:47:27Z</time>
      </trkpt>
      <trkpt lat="47.33287" lon="-1.37823">
        <ele>78.484741</ele>
        <time>2011-10-02T08:47:32Z</time>
      </trkpt>
      <trkpt lat="47.33265" lon="-1.3784">
        <ele>79.926635</ele>
        <time>2011-10-02T08:47:39Z</time>
      </trkpt>
      <trkpt lat="47.33243" lon="-1.37848">
        <ele>79.446044</ele>
        <time>2011-10-02T08:47:45Z</time>
      </trkpt>
      <trkpt lat="47.33214" lon="-1.3786">
        <ele>79.446044</ele>
        <time>2011-10-02T08:47:53Z</time>
      </trkpt>
      <trkpt lat="47.33184" lon="-1.37876">
        <ele>79.926635</ele>
        <time>2011-10-02T08:48:01Z</time>
      </trkpt>
      <trkpt lat="47.33167" lon="-1.37886">
        <ele>79.446044</ele>
        <time>2011-10-02T08:48:06Z</time>
      </trkpt>
      <trkpt lat="47.33153" lon="-1.37896">
        <ele>80.888183</ele>
        <time>2011-10-02T08:48:11Z</time>
      </trkpt>
      <trkpt lat="47.33136" lon="-1.37907">
        <ele>80.888183</ele>
        <time>2011-10-02T08:48:16Z</time>
      </trkpt>
      <trkpt lat="47.33113" lon="-1.37928">
        <ele>81.368774</ele>
        <time>2011-10-02T08:48:23Z</time>
      </trkpt>
      <trkpt lat="47.33095" lon="-1.37958">
        <ele>81.849365</ele>
        <time>2011-10-02T08:48:30Z</time>
      </trkpt>
      <trkpt lat="47.33091" lon="-1.37961">
        <ele>81.849365</ele>
        <time>2011-10-02T08:48:31Z</time>
      </trkpt>
      <trkpt lat="47.33076" lon="-1.37957">
        <ele>81.849365</ele>
        <time>2011-10-02T08:48:35Z</time>
      </trkpt>
      <trkpt lat="47.33042" lon="-1.37927">
        <ele>81.849365</ele>
        <time>2011-10-02T08:48:43Z</time>
      </trkpt>
      <trkpt lat="47.33003" lon="-1.37898">
        <ele>82.330078</ele>
        <time>2011-10-02T08:48:51Z</time>
      </trkpt>
      <trkpt lat="47.32967" lon="-1.37866">
        <ele>82.810791</ele>
        <time>2011-10-02T08:48:58Z</time>
      </trkpt>
      <trkpt lat="47.32924" lon="-1.37832">
        <ele>83.291381</ele>
        <time>2011-10-02T08:49:06Z</time>
      </trkpt>
      <trkpt lat="47.32913" lon="-1.37824">
        <ele>83.771972</ele>
        <time>2011-10-02T08:49:08Z</time>
      </trkpt>
      <trkpt lat="47.32902" lon="-1.37817">
        <ele>83.291381</ele>
        <time>2011-10-02T08:49:10Z</time>
      </trkpt>
      <trkpt lat="47.32863" lon="-1.3779">
        <ele>84.252685</ele>
        <time>2011-10-02T08:49:17Z</time>
      </trkpt>
      <trkpt lat="47.32816" lon="-1.37755">
        <ele>84.252685</ele>
        <time>2011-10-02T08:49:25Z</time>
      </trkpt>
      <trkpt lat="47.32773" lon="-1.37724">
        <ele>83.771972</ele>
        <time>2011-10-02T08:49:32Z</time>
      </trkpt>
      <trkpt lat="47.32724" lon="-1.37684">
        <ele>83.291381</ele>
        <time>2011-10-02T08:49:40Z</time>
      </trkpt>
      <trkpt lat="47.32692" lon="-1.37658">
        <ele>82.810791</ele>
        <time>2011-10-02T08:49:45Z</time>
      </trkpt>
      <trkpt lat="47.32656" lon="-1.37629">
        <ele>83.291381</ele>
        <time>2011-10-02T08:49:51Z</time>
      </trkpt>
      <trkpt lat="47.32627" lon="-1.37607">
        <ele>82.810791</ele>
        <time>2011-10-02T08:49:57Z</time>
      </trkpt>
      <trkpt lat="47.32615" lon="-1.37608">
        <ele>82.330078</ele>
        <time>2011-10-02T08:50:01Z</time>
      </trkpt>
      <trkpt lat="47.32617" lon="-1.37615">
        <ele>82.330078</ele>
        <time>2011-10-02T08:50:03Z</time>
      </trkpt>
      <trkpt lat="47.32634" lon="-1.37651">
        <ele>82.330078</ele>
        <time>2011-10-02T08:50:11Z</time>
      </trkpt>
      <trkpt lat="47.32644" lon="-1.37666">
        <ele>82.810791</ele>
        <time>2011-10-02T08:50:15Z</time>
      </trkpt>
      <trkpt lat="47.3266" lon="-1.37696">
        <ele>82.810791</ele>
        <time>2011-10-02T08:50:21Z</time>
      </trkpt>
      <trkpt lat="47.32686" lon="-1.3775">
        <ele>83.291381</ele>
        <time>2011-10-02T08:50:30Z</time>
      </trkpt>
      <trkpt lat="47.32701" lon="-1.37789">
        <ele>83.771972</ele>
        <time>2011-10-02T08:50:36Z</time>
      </trkpt>
      <trkpt lat="47.32716" lon="-1.37847">
        <ele>84.733398</ele>
        <time>2011-10-02T08:50:44Z</time>
      </trkpt>
      <trkpt lat="47.32731" lon="-1.37913">
        <ele>83.771972</ele>
        <time>2011-10-02T08:50:53Z</time>
      </trkpt>
      <trkpt lat="47.3274" lon="-1.37967">
        <ele>83.771972</ele>
        <time>2011-10-02T08:51:00Z</time>
      </trkpt>
      <trkpt lat="47.3275" lon="-1.38041">
        <ele>83.771972</ele>
        <time>2011-10-02T08:51:09Z</time>
      </trkpt>
      <trkpt lat="47.32757" lon="-1.38097">
        <ele>84.252685</ele>
        <time>2011-10-02T08:51:16Z</time>
      </trkpt>
      <trkpt lat="47.32763" lon="-1.38149">
        <ele>84.252685</ele>
        <time>2011-10-02T08:51:23Z</time>
      </trkpt>
      <trkpt lat="47.32766" lon="-1.38196">
        <ele>84.252685</ele>
        <time>2011-10-02T08:51:30Z</time>
      </trkpt>
      <trkpt lat="47.32766" lon="-1.38202">
        <ele>83.771972</ele>
        <time>2011-10-02T08:51:31Z</time>
      </trkpt>
      <trkpt lat="47.32765" lon="-1.38249">
        <ele>83.291381</ele>
        <time>2011-10-02T08:51:37Z</time>
      </trkpt>
      <trkpt lat="47.32765" lon="-1.38328">
        <ele>82.330078</ele>
        <time>2011-10-02T08:51:46Z</time>
      </trkpt>
      <trkpt lat="47.32766" lon="-1.38404">
        <ele>81.849365</ele>
        <time>2011-10-02T08:51:55Z</time>
      </trkpt>
      <trkpt lat="47.32767" lon="-1.38475">
        <ele>82.330078</ele>
        <time>2011-10-02T08:52:04Z</time>
      </trkpt>
      <trkpt lat="47.32758" lon="-1.38496">
        <ele>82.330078</ele>
        <time>2011-10-02T08:52:08Z</time>
      </trkpt>
      <trkpt lat="47.32755" lon="-1.38498">
        <ele>82.330078</ele>
        <time>2011-10-02T08:52:09Z</time>
      </trkpt>
      <trkpt lat="47.3272" lon="-1.38512">
        <ele>82.810791</ele>
        <time>2011-10-02T08:52:18Z</time>
      </trkpt>
      <trkpt lat="47.32698" lon="-1.38522">
        <ele>83.291381</ele>
        <time>2011-10-02T08:52:25Z</time>
      </trkpt>
      <trkpt lat="47.32685" lon="-1.38528">
        <ele>83.291381</ele>
        <time>2011-10-02T08:52:30Z</time>
      </trkpt>
      <trkpt lat="47.32683" lon="-1.38528">
        <ele>83.291381</ele>
        <time>2011-10-02T08:52:33Z</time>
      </trkpt>
      <trkpt lat="47.32682" lon="-1.38526">
        <ele>83.291381</ele>
        <time>2011-10-02T08:52:49Z</time>
      </trkpt>
      <trkpt lat="47.3269" lon="-1.38523">
        <ele>83.771972</ele>
        <time>2011-10-02T08:52:54Z</time>
      </trkpt>
      <trkpt lat="47.327" lon="-1.38516">
        <ele>83.291381</ele>
        <time>2011-10-02T08:53:00Z</time>
      </trkpt>
      <trkpt lat="47.32714" lon="-1.3851">
        <ele>82.810791</ele>
        <time>2011-10-02T08:53:06Z</time>
      </trkpt>
      <trkpt lat="47.32731" lon="-1.385">
        <ele>82.810791</ele>
        <time>2011-10-02T08:53:12Z</time>
      </trkpt>
      <trkpt lat="47.32735" lon="-1.38501">
        <ele>82.810791</ele>
        <time>2011-10-02T08:53:15Z</time>
      </trkpt>
      <trkpt lat="47.32729" lon="-1.38505">
        <ele>82.810791</ele>
        <time>2011-10-02T08:53:18Z</time>
      </trkpt>
      <trkpt lat="47.32702" lon="-1.38517">
        <ele>82.810791</ele>
        <time>2011-10-02T08:53:27Z</time>
      </trkpt>
      <trkpt lat="47.32668" lon="-1.38532">
        <ele>82.810791</ele>
        <time>2011-10-02T08:53:35Z</time>
      </trkpt>
      <trkpt lat="47.32628" lon="-1.38552">
        <ele>81.849365</ele>
        <time>2011-10-02T08:53:43Z</time>
      </trkpt>
      <trkpt lat="47.3257" lon="-1.38578">
        <ele>80.888183</ele>
        <time>2011-10-02T08:53:53Z</time>
      </trkpt>
      <trkpt lat="47.32518" lon="-1.38604">
        <ele>80.888183</ele>
        <time>2011-10-02T08:54:02Z</time>
      </trkpt>
      <trkpt lat="47.32476" lon="-1.38623">
        <ele>81.368774</ele>
        <time>2011-10-02T08:54:09Z</time>
      </trkpt>
      <trkpt lat="47.3242" lon="-1.38651">
        <ele>81.368774</ele>
        <time>2011-10-02T08:54:18Z</time>
      </trkpt>
      <trkpt lat="47.32378" lon="-1.38671">
        <ele>81.368774</ele>
        <time>2011-10-02T08:54:25Z</time>
      </trkpt>
      <trkpt lat="47.32309" lon="-1.38704">
        <ele>80.888183</ele>
        <time>2011-10-02T08:54:36Z</time>
      </trkpt>
      <trkpt lat="47.32261" lon="-1.38728">
        <ele>79.926635</ele>
        <time>2011-10-02T08:54:43Z</time>
      </trkpt>
      <trkpt lat="47.32207" lon="-1.38759">
        <ele>79.446044</ele>
        <time>2011-10-02T08:54:51Z</time>
      </trkpt>
      <trkpt lat="47.32154" lon="-1.38794">
        <ele>79.926635</ele>
        <time>2011-10-02T08:54:59Z</time>
      </trkpt>
      <trkpt lat="47.32125" lon="-1.38812">
        <ele>80.40747</ele>
        <time>2011-10-02T08:55:04Z</time>
      </trkpt>
      <trkpt lat="47.32114" lon="-1.38836">
        <ele>78.965454</ele>
        <time>2011-10-02T08:55:08Z</time>
      </trkpt>
      <trkpt lat="47.3212" lon="-1.38859">
        <ele>78.965454</ele>
        <time>2011-10-02T08:55:11Z</time>
      </trkpt>
      <trkpt lat="47.32129" lon="-1.38882">
        <ele>78.484741</ele>
        <time>2011-10-02T08:55:14Z</time>
      </trkpt>
      <trkpt lat="47.32149" lon="-1.38931">
        <ele>78.004028</ele>
        <time>2011-10-02T08:55:20Z</time>
      </trkpt>
      <trkpt lat="47.3217" lon="-1.39001">
        <ele>77.523437</ele>
        <time>2011-10-02T08:55:28Z</time>
      </trkpt>
      <trkpt lat="47.32179" lon="-1.39065">
        <ele>76.08142</ele>
        <time>2011-10-02T08:55:35Z</time>
      </trkpt>
      <trkpt lat="47.3218" lon="-1.39126">
        <ele>75.60083</ele>
        <time>2011-10-02T08:55:42Z</time>
      </trkpt>
      <trkpt lat="47.3218" lon="-1.39178">
        <ele>75.120239</ele>
        <time>2011-10-02T08:55:48Z</time>
      </trkpt>
      <trkpt lat="47.3219" lon="-1.39207">
        <ele>74.639526</ele>
        <time>2011-10-02T08:55:52Z</time>
      </trkpt>
      <trkpt lat="47.32195" lon="-1.39212">
        <ele>75.120239</ele>
        <time>2011-10-02T08:55:53Z</time>
      </trkpt>
      <trkpt lat="47.32236" lon="-1.39261">
        <ele>73.678222</ele>
        <time>2011-10-02T08:56:02Z</time>
      </trkpt>
      <trkpt lat="47.32264" lon="-1.39293">
        <ele>72.716918</ele>
        <time>2011-10-02T08:56:08Z</time>
      </trkpt>
      <trkpt lat="47.32307" lon="-1.39322">
        <ele>72.716918</ele>
        <time>2011-10-02T08:56:16Z</time>
      </trkpt>
      <trkpt lat="47.32341" lon="-1.39339">
        <ele>72.716918</ele>
        <time>2011-10-02T08:56:22Z</time>
      </trkpt>
      <trkpt lat="47.32347" lon="-1.39341">
        <ele>72.716918</ele>
        <time>2011-10-02T08:56:23Z</time>
      </trkpt>
      <trkpt lat="47.32387" lon="-1.39352">
        <ele>73.197631</ele>
        <time>2011-10-02T08:56:30Z</time>
      </trkpt>
      <trkpt lat="47.32427" lon="-1.39374">
        <ele>70.794189</ele>
        <time>2011-10-02T08:56:37Z</time>
      </trkpt>
      <trkpt lat="47.32439" lon="-1.39378">
        <ele>70.313476</ele>
        <time>2011-10-02T08:56:39Z</time>
      </trkpt>
      <trkpt lat="47.32448" lon="-1.39397">
        <ele>70.313476</ele>
        <time>2011-10-02T08:56:42Z</time>
      </trkpt>
      <trkpt lat="47.32446" lon="-1.39405">
        <ele>69.832885</ele>
        <time>2011-10-02T08:56:43Z</time>
      </trkpt>
      <trkpt lat="47.32431" lon="-1.39442">
        <ele>70.313476</ele>
        <time>2011-10-02T08:56:50Z</time>
      </trkpt>
      <trkpt lat="47.32429" lon="-1.39447">
        <ele>70.794189</ele>
        <time>2011-10-02T08:56:51Z</time>
      </trkpt>
      <trkpt lat="47.32416" lon="-1.39477">
        <ele>68.390869</ele>
        <time>2011-10-02T08:56:56Z</time>
      </trkpt>
      <trkpt lat="47.32397" lon="-1.39501">
        <ele>68.390869</ele>
        <time>2011-10-02T08:57:00Z</time>
      </trkpt>
      <trkpt lat="47.32386" lon="-1.39511">
        <ele>67.910278</ele>
        <time>2011-10-02T08:57:02Z</time>
      </trkpt>
      <trkpt lat="47.32374" lon="-1.39518">
        <ele>65.98767</ele>
        <time>2011-10-02T08:57:05Z</time>
      </trkpt>
      <trkpt lat="47.3235" lon="-1.39544">
        <ele>64.545654</ele>
        <time>2011-10-02T08:57:10Z</time>
      </trkpt>
      <trkpt lat="47.32333" lon="-1.39566">
        <ele>64.065063</ele>
        <time>2011-10-02T08:57:13Z</time>
      </trkpt>
      <trkpt lat="47.32314" lon="-1.39598">
        <ele>60.700317</ele>
        <time>2011-10-02T08:57:17Z</time>
      </trkpt>
      <trkpt lat="47.32312" lon="-1.39637">
        <ele>59.258422</ele>
        <time>2011-10-02T08:57:22Z</time>
      </trkpt>
      <trkpt lat="47.32315" lon="-1.39656">
        <ele>57.816528</ele>
        <time>2011-10-02T08:57:25Z</time>
      </trkpt>
      <trkpt lat="47.32326" lon="-1.39689">
        <ele>57.335815</ele>
        <time>2011-10-02T08:57:30Z</time>
      </trkpt>
      <trkpt lat="47.32326" lon="-1.3971">
        <ele>54.932373</ele>
        <time>2011-10-02T08:57:33Z</time>
      </trkpt>
      <trkpt lat="47.32326" lon="-1.39731">
        <ele>52.529174</ele>
        <time>2011-10-02T08:57:36Z</time>
      </trkpt>
      <trkpt lat="47.32326" lon="-1.39739">
        <ele>52.529174</ele>
        <time>2011-10-02T08:57:37Z</time>
      </trkpt>
      <trkpt lat="47.32329" lon="-1.3977">
        <ele>47.722534</ele>
        <time>2011-10-02T08:57:41Z</time>
      </trkpt>
      <trkpt lat="47.32345" lon="-1.39811">
        <ele>47.722534</ele>
        <time>2011-10-02T08:57:46Z</time>
      </trkpt>
      <trkpt lat="47.32358" lon="-1.39859">
        <ele>50.125976</ele>
        <time>2011-10-02T08:57:53Z</time>
      </trkpt>
      <trkpt lat="47.32361" lon="-1.39888">
        <ele>51.087158</ele>
        <time>2011-10-02T08:57:58Z</time>
      </trkpt>
      <trkpt lat="47.32362" lon="-1.39917">
        <ele>52.048584</ele>
        <time>2011-10-02T08:58:05Z</time>
      </trkpt>
      <trkpt lat="47.32365" lon="-1.39945">
        <ele>53.490478</ele>
        <time>2011-10-02T08:58:12Z</time>
      </trkpt>
      <trkpt lat="47.32366" lon="-1.39962">
        <ele>53.490478</ele>
        <time>2011-10-02T08:58:17Z</time>
      </trkpt>
      <trkpt lat="47.32366" lon="-1.39978">
        <ele>53.971191</ele>
        <time>2011-10-02T08:58:21Z</time>
      </trkpt>
      <trkpt lat="47.32367" lon="-1.39981">
        <ele>54.451782</ele>
        <time>2011-10-02T08:58:22Z</time>
      </trkpt>
      <trkpt lat="47.32368" lon="-1.39997">
        <ele>53.971191</ele>
        <time>2011-10-02T08:58:27Z</time>
      </trkpt>
      <trkpt lat="47.32372" lon="-1.40019">
        <ele>54.932373</ele>
        <time>2011-10-02T08:58:33Z</time>
      </trkpt>
      <trkpt lat="47.32375" lon="-1.40039">
        <ele>57.335815</ele>
        <time>2011-10-02T08:58:38Z</time>
      </trkpt>
      <trkpt lat="47.32376" lon="-1.40063">
        <ele>60.219726</ele>
        <time>2011-10-02T08:58:44Z</time>
      </trkpt>
      <trkpt lat="47.32376" lon="-1.40069">
        <ele>61.18103</ele>
        <time>2011-10-02T08:58:46Z</time>
      </trkpt>
      <trkpt lat="47.32376" lon="-1.40087">
        <ele>64.065063</ele>
        <time>2011-10-02T08:58:51Z</time>
      </trkpt>
      <trkpt lat="47.32375" lon="-1.40104">
        <ele>65.98767</ele>
        <time>2011-10-02T08:58:55Z</time>
      </trkpt>
      <trkpt lat="47.32371" lon="-1.40134">
        <ele>66.948974</ele>
        <time>2011-10-02T08:59:01Z</time>
      </trkpt>
      <trkpt lat="47.32373" lon="-1.40169">
        <ele>67.429687</ele>
        <time>2011-10-02T08:59:07Z</time>
      </trkpt>
      <trkpt lat="47.32372" lon="-1.40206">
        <ele>70.313476</ele>
        <time>2011-10-02T08:59:15Z</time>
      </trkpt>
      <trkpt lat="47.32361" lon="-1.40225">
        <ele>71.274902</ele>
        <time>2011-10-02T08:59:20Z</time>
      </trkpt>
      <trkpt lat="47.32352" lon="-1.40226">
        <ele>72.236206</ele>
        <time>2011-10-02T08:59:24Z</time>
      </trkpt>
      <trkpt lat="47.32352" lon="-1.40232">
        <ele>72.236206</ele>
        <time>2011-10-02T08:59:28Z</time>
      </trkpt>
      <trkpt lat="47.32356" lon="-1.40229">
        <ele>71.755493</ele>
        <time>2011-10-02T08:59:32Z</time>
      </trkpt>
      <trkpt lat="47.32351" lon="-1.40226">
        <ele>71.274902</ele>
        <time>2011-10-02T08:59:36Z</time>
      </trkpt>
      <trkpt lat="47.32347" lon="-1.40223">
        <ele>72.236206</ele>
        <time>2011-10-02T08:59:41Z</time>
      </trkpt>
      <trkpt lat="47.32346" lon="-1.40221">
        <ele>72.236206</ele>
        <time>2011-10-02T08:59:42Z</time>
      </trkpt>
      <trkpt lat="47.32342" lon="-1.40218">
        <ele>72.236206</ele>
        <time>2011-10-02T08:59:46Z</time>
      </trkpt>
      <trkpt lat="47.32337" lon="-1.40214">
        <ele>72.236206</ele>
        <time>2011-10-02T08:59:51Z</time>
      </trkpt>
      <trkpt lat="47.32337" lon="-1.40213">
        <ele>72.236206</ele>
        <time>2011-10-02T08:59:52Z</time>
      </trkpt>
      <trkpt lat="47.3234" lon="-1.40219">
        <ele>72.716918</ele>
        <time>2011-10-02T08:59:57Z</time>
      </trkpt>
      <trkpt lat="47.32336" lon="-1.40221">
        <ele>72.236206</ele>
        <time>2011-10-02T09:00:01Z</time>
      </trkpt>
      <trkpt lat="47.3234" lon="-1.40217">
        <ele>72.236206</ele>
        <time>2011-10-02T09:00:06Z</time>
      </trkpt>
      <trkpt lat="47.3234" lon="-1.40217">
        <ele>72.236206</ele>
        <time>2011-10-02T09:00:08Z</time>
      </trkpt>
      <trkpt lat="47.32341" lon="-1.40219">
        <ele>72.236206</ele>
        <time>2011-10-02T09:00:19Z</time>
      </trkpt>
      <trkpt lat="47.32333" lon="-1.40222">
        <ele>72.716918</ele>
        <time>2011-10-02T09:00:23Z</time>
      </trkpt>
      <trkpt lat="47.32315" lon="-1.40215">
        <ele>73.197631</ele>
        <time>2011-10-02T09:00:31Z</time>
      </trkpt>
      <trkpt lat="47.32299" lon="-1.40207">
        <ele>73.197631</ele>
        <time>2011-10-02T09:00:37Z</time>
      </trkpt>
      <trkpt lat="47.32269" lon="-1.40193">
        <ele>73.678222</ele>
        <time>2011-10-02T09:00:47Z</time>
      </trkpt>
      <trkpt lat="47.32239" lon="-1.40181">
        <ele>73.197631</ele>
        <time>2011-10-02T09:00:55Z</time>
      </trkpt>
      <trkpt lat="47.32204" lon="-1.40174">
        <ele>72.716918</ele>
        <time>2011-10-02T09:01:04Z</time>
      </trkpt>
      <trkpt lat="47.32162" lon="-1.40171">
        <ele>70.794189</ele>
        <time>2011-10-02T09:01:13Z</time>
      </trkpt>
      <trkpt lat="47.32116" lon="-1.40165">
        <ele>70.313476</ele>
        <time>2011-10-02T09:01:22Z</time>
      </trkpt>
      <trkpt lat="47.32088" lon="-1.40163">
        <ele>70.794189</ele>
        <time>2011-10-02T09:01:29Z</time>
      </trkpt>
      <trkpt lat="47.32046" lon="-1.40158">
        <ele>71.274902</ele>
        <time>2011-10-02T09:01:39Z</time>
      </trkpt>
      <trkpt lat="47.32025" lon="-1.40153">
        <ele>70.794189</ele>
        <time>2011-10-02T09:01:44Z</time>
      </trkpt>
      <trkpt lat="47.32008" lon="-1.40146">
        <ele>70.794189</ele>
        <time>2011-10-02T09:01:48Z</time>
      </trkpt>
      <trkpt lat="47.31975" lon="-1.40132">
        <ele>71.274902</ele>
        <time>2011-10-02T09:01:56Z</time>
      </trkpt>
      <trkpt lat="47.31966" lon="-1.40131">
        <ele>71.274902</ele>
        <time>2011-10-02T09:01:58Z</time>
      </trkpt>
      <trkpt lat="47.31933" lon="-1.4014">
        <ele>71.755493</ele>
        <time>2011-10-02T09:02:06Z</time>
      </trkpt>
      <trkpt lat="47.31897" lon="-1.40152">
        <ele>71.755493</ele>
        <time>2011-10-02T09:02:14Z</time>
      </trkpt>
      <trkpt lat="47.31861" lon="-1.40159">
        <ele>70.313476</ele>
        <time>2011-10-02T09:02:21Z</time>
      </trkpt>
      <trkpt lat="47.31829" lon="-1.40163">
        <ele>68.871582</ele>
        <time>2011-10-02T09:02:26Z</time>
      </trkpt>
      <trkpt lat="47.31801" lon="-1.40179">
        <ele>67.429687</ele>
        <time>2011-10-02T09:02:31Z</time>
      </trkpt>
      <trkpt lat="47.31797" lon="-1.40184">
        <ele>67.910278</ele>
        <time>2011-10-02T09:02:32Z</time>
      </trkpt>
      <trkpt lat="47.31764" lon="-1.40238">
        <ele>69.832885</ele>
        <time>2011-10-02T09:02:42Z</time>
      </trkpt>
      <trkpt lat="47.31729" lon="-1.40279">
        <ele>70.313476</ele>
        <time>2011-10-02T09:02:51Z</time>
      </trkpt>
      <trkpt lat="47.31697" lon="-1.4031">
        <ele>71.274902</ele>
        <time>2011-10-02T09:02:59Z</time>
      </trkpt>
      <trkpt lat="47.31667" lon="-1.40338">
        <ele>70.794189</ele>
        <time>2011-10-02T09:03:07Z</time>
      </trkpt>
      <trkpt lat="47.31634" lon="-1.40378">
        <ele>70.313476</ele>
        <time>2011-10-02T09:03:16Z</time>
      </trkpt>
      <trkpt lat="47.31612" lon="-1.4042">
        <ele>69.352294</ele>
        <time>2011-10-02T09:03:23Z</time>
      </trkpt>
      <trkpt lat="47.31603" lon="-1.40441">
        <ele>68.390869</ele>
        <time>2011-10-02T09:03:26Z</time>
      </trkpt>
      <trkpt lat="47.31589" lon="-1.40455">
        <ele>68.390869</ele>
        <time>2011-10-02T09:03:29Z</time>
      </trkpt>
      <trkpt lat="47.31575" lon="-1.40444">
        <ele>68.390869</ele>
        <time>2011-10-02T09:03:32Z</time>
      </trkpt>
      <trkpt lat="47.31572" lon="-1.40438">
        <ele>68.871582</ele>
        <time>2011-10-02T09:03:33Z</time>
      </trkpt>
      <trkpt lat="47.31553" lon="-1.40393">
        <ele>69.352294</ele>
        <time>2011-10-02T09:03:40Z</time>
      </trkpt>
      <trkpt lat="47.31536" lon="-1.40339">
        <ele>70.313476</ele>
        <time>2011-10-02T09:03:48Z</time>
      </trkpt>
      <trkpt lat="47.31516" lon="-1.4028">
        <ele>69.832885</ele>
        <time>2011-10-02T09:03:57Z</time>
      </trkpt>
      <trkpt lat="47.31496" lon="-1.40259">
        <ele>69.832885</ele>
        <time>2011-10-02T09:04:02Z</time>
      </trkpt>
      <trkpt lat="47.31492" lon="-1.40255">
        <ele>68.871582</ele>
        <time>2011-10-02T09:04:03Z</time>
      </trkpt>
      <trkpt lat="47.31473" lon="-1.40226">
        <ele>68.871582</ele>
        <time>2011-10-02T09:04:08Z</time>
      </trkpt>
      <trkpt lat="47.31452" lon="-1.40161">
        <ele>65.50708</ele>
        <time>2011-10-02T09:04:15Z</time>
      </trkpt>
      <trkpt lat="47.31444" lon="-1.40139">
        <ele>62.142334</ele>
        <time>2011-10-02T09:04:18Z</time>
      </trkpt>
      <trkpt lat="47.31443" lon="-1.40135">
        <ele>61.18103</ele>
        <time>2011-10-02T09:04:19Z</time>
      </trkpt>
      <trkpt lat="47.31438" lon="-1.40129">
        <ele>60.219726</ele>
        <time>2011-10-02T09:04:21Z</time>
      </trkpt>
      <trkpt lat="47.3143" lon="-1.4012">
        <ele>56.374511</ele>
        <time>2011-10-02T09:04:24Z</time>
      </trkpt>
      <trkpt lat="47.31427" lon="-1.4011">
        <ele>52.529174</ele>
        <time>2011-10-02T09:04:26Z</time>
      </trkpt>
      <trkpt lat="47.3143" lon="-1.40084">
        <ele>47.722534</ele>
        <time>2011-10-02T09:04:29Z</time>
      </trkpt>
      <trkpt lat="47.31434" lon="-1.40067">
        <ele>45.319213</ele>
        <time>2011-10-02T09:04:31Z</time>
      </trkpt>
      <trkpt lat="47.31436" lon="-1.40054">
        <ele>42.435424</ele>
        <time>2011-10-02T09:04:33Z</time>
      </trkpt>
      <trkpt lat="47.31439" lon="-1.40049">
        <ele>41.473999</ele>
        <time>2011-10-02T09:04:34Z</time>
      </trkpt>
      <trkpt lat="47.31452" lon="-1.40029">
        <ele>35.225463</ele>
        <time>2011-10-02T09:04:38Z</time>
      </trkpt>
      <trkpt lat="47.31457" lon="-1.4001">
        <ele>30.899536</ele>
        <time>2011-10-02T09:04:42Z</time>
      </trkpt>
      <trkpt lat="47.31455" lon="-1.40003">
        <ele>28.015502</ele>
        <time>2011-10-02T09:04:44Z</time>
      </trkpt>
      <trkpt lat="47.31448" lon="-1.39985">
        <ele>23.689575</ele>
        <time>2011-10-02T09:04:48Z</time>
      </trkpt>
      <trkpt lat="47.3144" lon="-1.39976">
        <ele>22.728271</ele>
        <time>2011-10-02T09:04:50Z</time>
      </trkpt>
      <trkpt lat="47.31429" lon="-1.39962">
        <ele>23.208984</ele>
        <time>2011-10-02T09:04:54Z</time>
      </trkpt>
      <trkpt lat="47.31425" lon="-1.39956">
        <ele>23.208984</ele>
        <time>2011-10-02T09:04:59Z</time>
      </trkpt>
      <trkpt lat="47.31423" lon="-1.39944">
        <ele>24.170288</ele>
        <time>2011-10-02T09:05:09Z</time>
      </trkpt>
      <trkpt lat="47.31422" lon="-1.39944">
        <ele>24.170288</ele>
        <time>2011-10-02T09:05:10Z</time>
      </trkpt>
      <trkpt lat="47.31435" lon="-1.39944">
        <ele>23.689575</ele>
        <time>2011-10-02T09:13:39Z</time>
      </trkpt>
      <trkpt lat="47.31433" lon="-1.39944">
        <ele>23.208984</ele>
        <time>2011-10-02T09:13:40Z</time>
      </trkpt>
      <trkpt lat="47.31424" lon="-1.39946">
        <ele>23.208984</ele>
        <time>2011-10-02T09:14:07Z</time>
      </trkpt>
      <trkpt lat="47.3142" lon="-1.3994">
        <ele>23.689575</ele>
        <time>2011-10-02T09:14:10Z</time>
      </trkpt>
      <trkpt lat="47.31412" lon="-1.39928">
        <ele>24.651001</ele>
        <time>2011-10-02T09:14:18Z</time>
      </trkpt>
      <trkpt lat="47.31404" lon="-1.39915">
        <ele>25.612304</ele>
        <time>2011-10-02T09:14:24Z</time>
      </trkpt>
      <trkpt lat="47.31398" lon="-1.39903">
        <ele>27.054321</ele>
        <time>2011-10-02T09:14:30Z</time>
      </trkpt>
      <trkpt lat="47.31397" lon="-1.39901">
        <ele>27.054321</ele>
        <time>2011-10-02T09:14:31Z</time>
      </trkpt>
      <trkpt lat="47.31391" lon="-1.39887">
        <ele>28.015502</ele>
        <time>2011-10-02T09:14:37Z</time>
      </trkpt>
      <trkpt lat="47.31386" lon="-1.39872">
        <ele>28.976928</ele>
        <time>2011-10-02T09:14:42Z</time>
      </trkpt>
      <trkpt lat="47.31381" lon="-1.3986">
        <ele>29.93811</ele>
        <time>2011-10-02T09:14:46Z</time>
      </trkpt>
      <trkpt lat="47.31372" lon="-1.39838">
        <ele>30.899536</ele>
        <time>2011-10-02T09:14:53Z</time>
      </trkpt>
      <trkpt lat="47.31368" lon="-1.39824">
        <ele>31.860717</ele>
        <time>2011-10-02T09:14:58Z</time>
      </trkpt>
      <trkpt lat="47.3136" lon="-1.39804">
        <ele>32.822265</ele>
        <time>2011-10-02T09:15:05Z</time>
      </trkpt>
      <trkpt lat="47.31357" lon="-1.39796">
        <ele>33.302856</ele>
        <time>2011-10-02T09:15:08Z</time>
      </trkpt>
      <trkpt lat="47.31355" lon="-1.39792">
        <ele>33.302856</ele>
        <time>2011-10-02T09:15:10Z</time>
      </trkpt>
      <trkpt lat="47.31352" lon="-1.39779">
        <ele>35.225463</ele>
        <time>2011-10-02T09:15:15Z</time>
      </trkpt>
      <trkpt lat="47.31345" lon="-1.39757">
        <ele>36.66748</ele>
        <time>2011-10-02T09:15:22Z</time>
      </trkpt>
      <trkpt lat="47.31341" lon="-1.39736">
        <ele>37.628662</ele>
        <time>2011-10-02T09:15:28Z</time>
      </trkpt>
      <trkpt lat="47.31336" lon="-1.39717">
        <ele>39.070678</ele>
        <time>2011-10-02T09:15:34Z</time>
      </trkpt>
      <trkpt lat="47.31333" lon="-1.397">
        <ele>40.512817</ele>
        <time>2011-10-02T09:15:40Z</time>
      </trkpt>
      <trkpt lat="47.31331" lon="-1.3968">
        <ele>41.473999</ele>
        <time>2011-10-02T09:15:46Z</time>
      </trkpt>
      <trkpt lat="47.31325" lon="-1.3966">
        <ele>42.435424</ele>
        <time>2011-10-02T09:15:52Z</time>
      </trkpt>
      <trkpt lat="47.3132" lon="-1.39644">
        <ele>43.396606</ele>
        <time>2011-10-02T09:15:56Z</time>
      </trkpt>
      <trkpt lat="47.31315" lon="-1.39627">
        <ele>45.319213</ele>
        <time>2011-10-02T09:16:00Z</time>
      </trkpt>
      <trkpt lat="47.31311" lon="-1.39601">
        <ele>47.241821</ele>
        <time>2011-10-02T09:16:05Z</time>
      </trkpt>
      <trkpt lat="47.31304" lon="-1.39583">
        <ele>48.203369</ele>
        <time>2011-10-02T09:16:09Z</time>
      </trkpt>
      <trkpt lat="47.31297" lon="-1.39567">
        <ele>50.125976</ele>
        <time>2011-10-02T09:16:13Z</time>
      </trkpt>
      <trkpt lat="47.31293" lon="-1.39556">
        <ele>51.567871</ele>
        <time>2011-10-02T09:16:16Z</time>
      </trkpt>
      <trkpt lat="47.31287" lon="-1.39545">
        <ele>53.009765</ele>
        <time>2011-10-02T09:16:20Z</time>
      </trkpt>
      <trkpt lat="47.3128" lon="-1.39531">
        <ele>54.451782</ele>
        <time>2011-10-02T09:16:24Z</time>
      </trkpt>
      <trkpt lat="47.31277" lon="-1.39526">
        <ele>55.413085</ele>
        <time>2011-10-02T09:16:26Z</time>
      </trkpt>
      <trkpt lat="47.31269" lon="-1.39509">
        <ele>56.855102</ele>
        <time>2011-10-02T09:16:31Z</time>
      </trkpt>
      <trkpt lat="47.31257" lon="-1.39483">
        <ele>58.77771</ele>
        <time>2011-10-02T09:16:38Z</time>
      </trkpt>
      <trkpt lat="47.31247" lon="-1.39456">
        <ele>61.661743</ele>
        <time>2011-10-02T09:16:45Z</time>
      </trkpt>
      <trkpt lat="47.31239" lon="-1.39427">
        <ele>64.065063</ele>
        <time>2011-10-02T09:16:52Z</time>
      </trkpt>
      <trkpt lat="47.31234" lon="-1.39405">
        <ele>65.026367</ele>
        <time>2011-10-02T09:16:57Z</time>
      </trkpt>
      <trkpt lat="47.31228" lon="-1.39378">
        <ele>66.468261</ele>
        <time>2011-10-02T09:17:03Z</time>
      </trkpt>
      <trkpt lat="47.31218" lon="-1.39355">
        <ele>67.910278</ele>
        <time>2011-10-02T09:17:08Z</time>
      </trkpt>
      <trkpt lat="47.31216" lon="-1.39353">
        <ele>67.910278</ele>
        <time>2011-10-02T09:17:09Z</time>
      </trkpt>
      <trkpt lat="47.31212" lon="-1.39348">
        <ele>68.390869</ele>
        <time>2011-10-02T09:17:11Z</time>
      </trkpt>
      <trkpt lat="47.31207" lon="-1.39322">
        <ele>69.352294</ele>
        <time>2011-10-02T09:17:17Z</time>
      </trkpt>
      <trkpt lat="47.31202" lon="-1.39296">
        <ele>70.794189</ele>
        <time>2011-10-02T09:17:23Z</time>
      </trkpt>
      <trkpt lat="47.31201" lon="-1.39262">
        <ele>71.274902</ele>
        <time>2011-10-02T09:17:30Z</time>
      </trkpt>
      <trkpt lat="47.31197" lon="-1.39235">
        <ele>71.274902</ele>
        <time>2011-10-02T09:17:37Z</time>
      </trkpt>
      <trkpt lat="47.31198" lon="-1.39232">
        <ele>71.755493</ele>
        <time>2011-10-02T09:17:40Z</time>
      </trkpt>
      <trkpt lat="47.31193" lon="-1.39227">
        <ele>71.755493</ele>
        <time>2011-10-02T09:18:49Z</time>
      </trkpt>
      <trkpt lat="47.31185" lon="-1.39223">
        <ele>71.755493</ele>
        <time>2011-10-02T09:18:53Z</time>
      </trkpt>
      <trkpt lat="47.31179" lon="-1.3922">
        <ele>72.236206</ele>
        <time>2011-10-02T09:18:56Z</time>
      </trkpt>
      <trkpt lat="47.31163" lon="-1.39211">
        <ele>73.678222</ele>
        <time>2011-10-02T09:19:03Z</time>
      </trkpt>
      <trkpt lat="47.31135" lon="-1.39195">
        <ele>74.639526</ele>
        <time>2011-10-02T09:19:12Z</time>
      </trkpt>
      <trkpt lat="47.31103" lon="-1.39175">
        <ele>75.60083</ele>
        <time>2011-10-02T09:19:22Z</time>
      </trkpt>
      <trkpt lat="47.31081" lon="-1.39162">
        <ele>76.562133</ele>
        <time>2011-10-02T09:19:29Z</time>
      </trkpt>
      <trkpt lat="47.31066" lon="-1.39154">
        <ele>78.004028</ele>
        <time>2011-10-02T09:19:37Z</time>
      </trkpt>
      <trkpt lat="47.31058" lon="-1.39151">
        <ele>78.484741</ele>
        <time>2011-10-02T09:19:42Z</time>
      </trkpt>
      <trkpt lat="47.31053" lon="-1.39147">
        <ele>78.484741</ele>
        <time>2011-10-02T09:19:46Z</time>
      </trkpt>
      <trkpt lat="47.31051" lon="-1.39158">
        <ele>78.004028</ele>
        <time>2011-10-02T09:19:51Z</time>
      </trkpt>
      <trkpt lat="47.31053" lon="-1.39185">
        <ele>77.523437</ele>
        <time>2011-10-02T09:19:57Z</time>
      </trkpt>
      <trkpt lat="47.31058" lon="-1.39232">
        <ele>77.042846</ele>
        <time>2011-10-02T09:20:05Z</time>
      </trkpt>
      <trkpt lat="47.31059" lon="-1.39251">
        <ele>76.562133</ele>
        <time>2011-10-02T09:20:08Z</time>
      </trkpt>
      <trkpt lat="47.31052" lon="-1.39271">
        <ele>76.08142</ele>
        <time>2011-10-02T09:20:12Z</time>
      </trkpt>
      <trkpt lat="47.31045" lon="-1.39269">
        <ele>76.562133</ele>
        <time>2011-10-02T09:20:14Z</time>
      </trkpt>
      <trkpt lat="47.31014" lon="-1.39248">
        <ele>76.562133</ele>
        <time>2011-10-02T09:20:22Z</time>
      </trkpt>
      <trkpt lat="47.30993" lon="-1.39233">
        <ele>77.523437</ele>
        <time>2011-10-02T09:20:28Z</time>
      </trkpt>
      <trkpt lat="47.30963" lon="-1.3921">
        <ele>78.965454</ele>
        <time>2011-10-02T09:20:37Z</time>
      </trkpt>
      <trkpt lat="47.30943" lon="-1.39196">
        <ele>79.446044</ele>
        <time>2011-10-02T09:20:43Z</time>
      </trkpt>
      <trkpt lat="47.30912" lon="-1.39179">
        <ele>80.40747</ele>
        <time>2011-10-02T09:20:51Z</time>
      </trkpt>
      <trkpt lat="47.30899" lon="-1.39196">
        <ele>79.926635</ele>
        <time>2011-10-02T09:20:55Z</time>
      </trkpt>
      <trkpt lat="47.30894" lon="-1.39208">
        <ele>80.40747</ele>
        <time>2011-10-02T09:20:57Z</time>
      </trkpt>
      <trkpt lat="47.30881" lon="-1.39235">
        <ele>79.446044</ele>
        <time>2011-10-02T09:21:02Z</time>
      </trkpt>
      <trkpt lat="47.30867" lon="-1.39235">
        <ele>80.40747</ele>
        <time>2011-10-02T09:21:05Z</time>
      </trkpt>
      <trkpt lat="47.30863" lon="-1.39233">
        <ele>79.926635</ele>
        <time>2011-10-02T09:21:06Z</time>
      </trkpt>
      <trkpt lat="47.3083" lon="-1.39221">
        <ele>79.926635</ele>
        <time>2011-10-02T09:21:13Z</time>
      </trkpt>
      <trkpt lat="47.30789" lon="-1.39216">
        <ele>79.926635</ele>
        <time>2011-10-02T09:21:21Z</time>
      </trkpt>
      <trkpt lat="47.30739" lon="-1.39203">
        <ele>79.926635</ele>
        <time>2011-10-02T09:21:31Z</time>
      </trkpt>
      <trkpt lat="47.30708" lon="-1.39183">
        <ele>79.926635</ele>
        <time>2011-10-02T09:21:38Z</time>
      </trkpt>
      <trkpt lat="47.30701" lon="-1.39177">
        <ele>80.40747</ele>
        <time>2011-10-02T09:21:40Z</time>
      </trkpt>
      <trkpt lat="47.30685" lon="-1.39176">
        <ele>80.888183</ele>
        <time>2011-10-02T09:21:44Z</time>
      </trkpt>
      <trkpt lat="47.30659" lon="-1.39188">
        <ele>79.926635</ele>
        <time>2011-10-02T09:21:50Z</time>
      </trkpt>
      <trkpt lat="47.30642" lon="-1.39179">
        <ele>80.40747</ele>
        <time>2011-10-02T09:21:54Z</time>
      </trkpt>
      <trkpt lat="47.3064" lon="-1.39173">
        <ele>80.40747</ele>
        <time>2011-10-02T09:21:55Z</time>
      </trkpt>
      <trkpt lat="47.30631" lon="-1.39158">
        <ele>79.926635</ele>
        <time>2011-10-02T09:21:58Z</time>
      </trkpt>
      <trkpt lat="47.30618" lon="-1.39126">
        <ele>79.926635</ele>
        <time>2011-10-02T09:22:04Z</time>
      </trkpt>
      <trkpt lat="47.30594" lon="-1.39069">
        <ele>79.446044</ele>
        <time>2011-10-02T09:22:14Z</time>
      </trkpt>
      <trkpt lat="47.30572" lon="-1.39022">
        <ele>78.965454</ele>
        <time>2011-10-02T09:22:22Z</time>
      </trkpt>
      <trkpt lat="47.30553" lon="-1.38983">
        <ele>78.004028</ele>
        <time>2011-10-02T09:22:29Z</time>
      </trkpt>
      <trkpt lat="47.30529" lon="-1.38933">
        <ele>77.523437</ele>
        <time>2011-10-02T09:22:38Z</time>
      </trkpt>
      <trkpt lat="47.3051" lon="-1.38892">
        <ele>76.562133</ele>
        <time>2011-10-02T09:22:45Z</time>
      </trkpt>
      <trkpt lat="47.30492" lon="-1.38847">
        <ele>75.120239</ele>
        <time>2011-10-02T09:22:52Z</time>
      </trkpt>
      <trkpt lat="47.30479" lon="-1.38805">
        <ele>74.639526</ele>
        <time>2011-10-02T09:22:58Z</time>
      </trkpt>
      <trkpt lat="47.30463" lon="-1.38754">
        <ele>76.08142</ele>
        <time>2011-10-02T09:23:07Z</time>
      </trkpt>
      <trkpt lat="47.30446" lon="-1.38697">
        <ele>77.523437</ele>
        <time>2011-10-02T09:23:17Z</time>
      </trkpt>
      <trkpt lat="47.30427" lon="-1.38637">
        <ele>78.484741</ele>
        <time>2011-10-02T09:23:28Z</time>
      </trkpt>
      <trkpt lat="47.30423" lon="-1.38615">
        <ele>79.446044</ele>
        <time>2011-10-02T09:23:33Z</time>
      </trkpt>
      <trkpt lat="47.3043" lon="-1.38583">
        <ele>79.446044</ele>
        <time>2011-10-02T09:23:39Z</time>
      </trkpt>
      <trkpt lat="47.30438" lon="-1.38542">
        <ele>79.446044</ele>
        <time>2011-10-02T09:23:46Z</time>
      </trkpt>
      <trkpt lat="47.30447" lon="-1.38491">
        <ele>80.40747</ele>
        <time>2011-10-02T09:23:54Z</time>
      </trkpt>
      <trkpt lat="47.30451" lon="-1.38445">
        <ele>80.40747</ele>
        <time>2011-10-02T09:24:01Z</time>
      </trkpt>
      <trkpt lat="47.3045" lon="-1.38385">
        <ele>80.888183</ele>
        <time>2011-10-02T09:24:10Z</time>
      </trkpt>
      <trkpt lat="47.30447" lon="-1.38316">
        <ele>81.368774</ele>
        <time>2011-10-02T09:24:20Z</time>
      </trkpt>
      <trkpt lat="47.3045" lon="-1.38253">
        <ele>81.849365</ele>
        <time>2011-10-02T09:24:29Z</time>
      </trkpt>
      <trkpt lat="47.30455" lon="-1.38232">
        <ele>81.849365</ele>
        <time>2011-10-02T09:24:32Z</time>
      </trkpt>
      <trkpt lat="47.30476" lon="-1.382">
        <ele>81.849365</ele>
        <time>2011-10-02T09:24:38Z</time>
      </trkpt>
      <trkpt lat="47.3049" lon="-1.38192">
        <ele>81.849365</ele>
        <time>2011-10-02T09:24:41Z</time>
      </trkpt>
      <trkpt lat="47.30528" lon="-1.38174">
        <ele>80.888183</ele>
        <time>2011-10-02T09:24:49Z</time>
      </trkpt>
      <trkpt lat="47.30564" lon="-1.38132">
        <ele>80.888183</ele>
        <time>2011-10-02T09:24:58Z</time>
      </trkpt>
      <trkpt lat="47.30593" lon="-1.38092">
        <ele>79.926635</ele>
        <time>2011-10-02T09:25:06Z</time>
      </trkpt>
      <trkpt lat="47.30599" lon="-1.3808">
        <ele>80.40747</ele>
        <time>2011-10-02T09:25:08Z</time>
      </trkpt>
      <trkpt lat="47.30616" lon="-1.38019">
        <ele>78.484741</ele>
        <time>2011-10-02T09:25:16Z</time>
      </trkpt>
      <trkpt lat="47.30629" lon="-1.37953">
        <ele>77.042846</ele>
        <time>2011-10-02T09:25:24Z</time>
      </trkpt>
      <trkpt lat="47.3064" lon="-1.37901">
        <ele>75.60083</ele>
        <time>2011-10-02T09:25:31Z</time>
      </trkpt>
      <trkpt lat="47.3063" lon="-1.3789">
        <ele>75.60083</ele>
        <time>2011-10-02T09:25:35Z</time>
      </trkpt>
      <trkpt lat="47.30626" lon="-1.37888">
        <ele>75.60083</ele>
        <time>2011-10-02T09:25:36Z</time>
      </trkpt>
      <trkpt lat="47.30599" lon="-1.37875">
        <ele>74.639526</ele>
        <time>2011-10-02T09:25:42Z</time>
      </trkpt>
      <trkpt lat="47.30574" lon="-1.37871">
        <ele>74.639526</ele>
        <time>2011-10-02T09:25:48Z</time>
      </trkpt>
      <trkpt lat="47.30548" lon="-1.37854">
        <ele>74.639526</ele>
        <time>2011-10-02T09:25:55Z</time>
      </trkpt>
      <trkpt lat="47.30531" lon="-1.37831">
        <ele>74.158813</ele>
        <time>2011-10-02T09:26:01Z</time>
      </trkpt>
      <trkpt lat="47.30515" lon="-1.37818">
        <ele>73.678222</ele>
        <time>2011-10-02T09:26:05Z</time>
      </trkpt>
      <trkpt lat="47.30506" lon="-1.37814">
        <ele>73.678222</ele>
        <time>2011-10-02T09:26:07Z</time>
      </trkpt>
      <trkpt lat="47.30483" lon="-1.37805">
        <ele>73.197631</ele>
        <time>2011-10-02T09:26:12Z</time>
      </trkpt>
      <trkpt lat="47.30474" lon="-1.37813">
        <ele>73.197631</ele>
        <time>2011-10-02T09:26:15Z</time>
      </trkpt>
      <trkpt lat="47.30465" lon="-1.37821">
        <ele>73.678222</ele>
        <time>2011-10-02T09:26:18Z</time>
      </trkpt>
      <trkpt lat="47.30429" lon="-1.3781">
        <ele>73.678222</ele>
        <time>2011-10-02T09:26:25Z</time>
      </trkpt>
      <trkpt lat="47.30389" lon="-1.37791">
        <ele>74.158813</ele>
        <time>2011-10-02T09:26:33Z</time>
      </trkpt>
      <trkpt lat="47.3037" lon="-1.37765">
        <ele>73.197631</ele>
        <time>2011-10-02T09:26:38Z</time>
      </trkpt>
      <trkpt lat="47.30365" lon="-1.37762">
        <ele>72.716918</ele>
        <time>2011-10-02T09:26:39Z</time>
      </trkpt>
      <trkpt lat="47.3033" lon="-1.37742">
        <ele>71.274902</ele>
        <time>2011-10-02T09:26:46Z</time>
      </trkpt>
      <trkpt lat="47.30293" lon="-1.37722">
        <ele>71.274902</ele>
        <time>2011-10-02T09:26:53Z</time>
      </trkpt>
      <trkpt lat="47.30274" lon="-1.37711">
        <ele>71.755493</ele>
        <time>2011-10-02T09:26:57Z</time>
      </trkpt>
      <trkpt lat="47.30265" lon="-1.37692">
        <ele>71.755493</ele>
        <time>2011-10-02T09:27:01Z</time>
      </trkpt>
      <trkpt lat="47.30267" lon="-1.37685">
        <ele>71.274902</ele>
        <time>2011-10-02T09:27:02Z</time>
      </trkpt>
      <trkpt lat="47.30273" lon="-1.37669">
        <ele>70.313476</ele>
        <time>2011-10-02T09:27:04Z</time>
      </trkpt>
      <trkpt lat="47.30281" lon="-1.37653">
        <ele>69.832885</ele>
        <time>2011-10-02T09:27:06Z</time>
      </trkpt>
      <trkpt lat="47.30301" lon="-1.37602">
        <ele>65.50708</ele>
        <time>2011-10-02T09:27:11Z</time>
      </trkpt>
      <trkpt lat="47.30308" lon="-1.37579">
        <ele>62.622924</ele>
        <time>2011-10-02T09:27:13Z</time>
      </trkpt>
      <trkpt lat="47.3032" lon="-1.37556">
        <ele>60.219726</ele>
        <time>2011-10-02T09:27:16Z</time>
      </trkpt>
      <trkpt lat="47.30335" lon="-1.37546">
        <ele>58.77771</ele>
        <time>2011-10-02T09:27:20Z</time>
      </trkpt>
      <trkpt lat="47.30347" lon="-1.37534">
        <ele>57.335815</ele>
        <time>2011-10-02T09:27:24Z</time>
      </trkpt>
      <trkpt lat="47.30354" lon="-1.37517">
        <ele>53.009765</ele>
        <time>2011-10-02T09:27:28Z</time>
      </trkpt>
      <trkpt lat="47.30355" lon="-1.37509">
        <ele>52.048584</ele>
        <time>2011-10-02T09:27:32Z</time>
      </trkpt>
      <trkpt lat="47.30355" lon="-1.37507">
        <ele>51.567871</ele>
        <time>2011-10-02T09:27:34Z</time>
      </trkpt>
      <trkpt lat="47.30344" lon="-1.37502">
        <ele>50.606567</ele>
        <time>2011-10-02T09:27:40Z</time>
      </trkpt>
      <trkpt lat="47.30337" lon="-1.375">
        <ele>49.16455</ele>
        <time>2011-10-02T09:27:42Z</time>
      </trkpt>
      <trkpt lat="47.30328" lon="-1.37499">
        <ele>48.68396</ele>
        <time>2011-10-02T09:27:44Z</time>
      </trkpt>
      <trkpt lat="47.30312" lon="-1.37493">
        <ele>47.722534</ele>
        <time>2011-10-02T09:27:47Z</time>
      </trkpt>
      <trkpt lat="47.30287" lon="-1.37477">
        <ele>46.280639</ele>
        <time>2011-10-02T09:27:51Z</time>
      </trkpt>
      <trkpt lat="47.30274" lon="-1.37462">
        <ele>45.319213</ele>
        <time>2011-10-02T09:27:53Z</time>
      </trkpt>
      <trkpt lat="47.30268" lon="-1.37453">
        <ele>44.358032</ele>
        <time>2011-10-02T09:27:54Z</time>
      </trkpt>
      <trkpt lat="47.30248" lon="-1.37414">
        <ele>42.435424</ele>
        <time>2011-10-02T09:27:58Z</time>
      </trkpt>
      <trkpt lat="47.30243" lon="-1.37407">
        <ele>41.473999</ele>
        <time>2011-10-02T09:27:59Z</time>
      </trkpt>
      <trkpt lat="47.30213" lon="-1.37361">
        <ele>37.148071</ele>
        <time>2011-10-02T09:28:04Z</time>
      </trkpt>
      <trkpt lat="47.3019" lon="-1.37329">
        <ele>33.783447</ele>
        <time>2011-10-02T09:28:07Z</time>
      </trkpt>
      <trkpt lat="47.30156" lon="-1.37291">
        <ele>31.380127</ele>
        <time>2011-10-02T09:28:11Z</time>
      </trkpt>
      <trkpt lat="47.30128" lon="-1.3727">
        <ele>26.092895</ele>
        <time>2011-10-02T09:28:14Z</time>
      </trkpt>
      <trkpt lat="47.30119" lon="-1.37265">
        <ele>25.612304</ele>
        <time>2011-10-02T09:28:15Z</time>
      </trkpt>
      <trkpt lat="47.30079" lon="-1.37267">
        <ele>20.324951</ele>
        <time>2011-10-02T09:28:19Z</time>
      </trkpt>
      <trkpt lat="47.30048" lon="-1.37269">
        <ele>16.960449</ele>
        <time>2011-10-02T09:28:22Z</time>
      </trkpt>
      <trkpt lat="47.30031" lon="-1.37263">
        <ele>14.076416</ele>
        <time>2011-10-02T09:28:24Z</time>
      </trkpt>
      <trkpt lat="47.30018" lon="-1.37245">
        <ele>12.634399</ele>
        <time>2011-10-02T09:28:27Z</time>
      </trkpt>
      <trkpt lat="47.30003" lon="-1.37226">
        <ele>12.153808</ele>
        <time>2011-10-02T09:28:31Z</time>
      </trkpt>
      <trkpt lat="47.29994" lon="-1.3721">
        <ele>10.231201</ele>
        <time>2011-10-02T09:28:34Z</time>
      </trkpt>
      <trkpt lat="47.29986" lon="-1.3721">
        <ele>9.7506104</ele>
        <time>2011-10-02T09:28:37Z</time>
      </trkpt>
      <trkpt lat="47.2998" lon="-1.37206">
        <ele>9.2698975</ele>
        <time>2011-10-02T09:28:40Z</time>
      </trkpt>
      <trkpt lat="47.29973" lon="-1.372">
        <ele>9.2698975</ele>
        <time>2011-10-02T09:28:45Z</time>
      </trkpt>
      <trkpt lat="47.29975" lon="-1.372">
        <ele>10.231201</ele>
        <time>2011-10-02T09:28:47Z</time>
      </trkpt>
      <trkpt lat="47.29976" lon="-1.37199">
        <ele>9.7506104</ele>
        <time>2011-10-02T09:32:26Z</time>
      </trkpt>
      <trkpt lat="47.29985" lon="-1.37208">
        <ele>10.231201</ele>
        <time>2011-10-02T09:32:31Z</time>
      </trkpt>
      <trkpt lat="47.29995" lon="-1.37217">
        <ele>11.192504</ele>
        <time>2011-10-02T09:32:35Z</time>
      </trkpt>
      <trkpt lat="47.30003" lon="-1.37232">
        <ele>11.673217</ele>
        <time>2011-10-02T09:32:39Z</time>
      </trkpt>
      <trkpt lat="47.30006" lon="-1.37234">
        <ele>12.153808</ele>
        <time>2011-10-02T09:32:40Z</time>
      </trkpt>
      <trkpt lat="47.30018" lon="-1.37245">
        <ele>12.634399</ele>
        <time>2011-10-02T09:32:44Z</time>
      </trkpt>
      <trkpt lat="47.30031" lon="-1.37259">
        <ele>13.595825</ele>
        <time>2011-10-02T09:32:49Z</time>
      </trkpt>
      <trkpt lat="47.30043" lon="-1.37267">
        <ele>15.999023</ele>
        <time>2011-10-02T09:32:54Z</time>
      </trkpt>
      <trkpt lat="47.3006" lon="-1.37268">
        <ele>18.883056</ele>
        <time>2011-10-02T09:33:00Z</time>
      </trkpt>
      <trkpt lat="47.30075" lon="-1.3727">
        <ele>18.883056</ele>
        <time>2011-10-02T09:33:05Z</time>
      </trkpt>
      <trkpt lat="47.30095" lon="-1.37269">
        <ele>21.286377</ele>
        <time>2011-10-02T09:33:11Z</time>
      </trkpt>
      <trkpt lat="47.30109" lon="-1.37272">
        <ele>23.689575</ele>
        <time>2011-10-02T09:33:17Z</time>
      </trkpt>
      <trkpt lat="47.30119" lon="-1.37275">
        <ele>25.131713</ele>
        <time>2011-10-02T09:33:21Z</time>
      </trkpt>
      <trkpt lat="47.30128" lon="-1.37282">
        <ele>26.573608</ele>
        <time>2011-10-02T09:33:24Z</time>
      </trkpt>
      <trkpt lat="47.30144" lon="-1.37291">
        <ele>28.015502</ele>
        <time>2011-10-02T09:33:29Z</time>
      </trkpt>
      <trkpt lat="47.3016" lon="-1.37305">
        <ele>29.93811</ele>
        <time>2011-10-02T09:33:34Z</time>
      </trkpt>
      <trkpt lat="47.30172" lon="-1.37318">
        <ele>31.860717</ele>
        <time>2011-10-02T09:33:39Z</time>
      </trkpt>
      <trkpt lat="47.30186" lon="-1.3733">
        <ele>33.302856</ele>
        <time>2011-10-02T09:33:45Z</time>
      </trkpt>
      <trkpt lat="47.30198" lon="-1.37346">
        <ele>34.26416</ele>
        <time>2011-10-02T09:33:50Z</time>
      </trkpt>
      <trkpt lat="47.30208" lon="-1.37363">
        <ele>35.225463</ele>
        <time>2011-10-02T09:33:55Z</time>
      </trkpt>
      <trkpt lat="47.3022" lon="-1.37383">
        <ele>36.66748</ele>
        <time>2011-10-02T09:34:01Z</time>
      </trkpt>
      <trkpt lat="47.30225" lon="-1.37393">
        <ele>37.628662</ele>
        <time>2011-10-02T09:34:05Z</time>
      </trkpt>
      <trkpt lat="47.30234" lon="-1.37406">
        <ele>40.032104</ele>
        <time>2011-10-02T09:34:11Z</time>
      </trkpt>
      <trkpt lat="47.30236" lon="-1.37409">
        <ele>40.993408</ele>
        <time>2011-10-02T09:34:13Z</time>
      </trkpt>
      <trkpt lat="47.30247" lon="-1.37422">
        <ele>41.954711</ele>
        <time>2011-10-02T09:34:18Z</time>
      </trkpt>
      <trkpt lat="47.30257" lon="-1.37442">
        <ele>42.916015</ele>
        <time>2011-10-02T09:34:23Z</time>
      </trkpt>
      <trkpt lat="47.30271" lon="-1.37464">
        <ele>43.396606</ele>
        <time>2011-10-02T09:34:29Z</time>
      </trkpt>
      <trkpt lat="47.3028" lon="-1.37473">
        <ele>44.838623</ele>
        <time>2011-10-02T09:34:32Z</time>
      </trkpt>
      <trkpt lat="47.30289" lon="-1.37481">
        <ele>46.76123</ele>
        <time>2011-10-02T09:34:36Z</time>
      </trkpt>
      <trkpt lat="47.30307" lon="-1.3749">
        <ele>47.241821</ele>
        <time>2011-10-02T09:34:42Z</time>
      </trkpt>
      <trkpt lat="47.30319" lon="-1.37493">
        <ele>49.16455</ele>
        <time>2011-10-02T09:34:46Z</time>
      </trkpt>
      <trkpt lat="47.30332" lon="-1.37496">
        <ele>51.567871</ele>
        <time>2011-10-02T09:34:50Z</time>
      </trkpt>
      <trkpt lat="47.30348" lon="-1.37501">
        <ele>52.529174</ele>
        <time>2011-10-02T09:34:55Z</time>
      </trkpt>
      <trkpt lat="47.30369" lon="-1.37501">
        <ele>53.009765</ele>
        <time>2011-10-02T09:35:01Z</time>
      </trkpt>
      <trkpt lat="47.30383" lon="-1.37502">
        <ele>53.971191</ele>
        <time>2011-10-02T09:35:06Z</time>
      </trkpt>
      <trkpt lat="47.30398" lon="-1.37504">
        <ele>53.971191</ele>
        <time>2011-10-02T09:35:10Z</time>
      </trkpt>
      <trkpt lat="47.3042" lon="-1.37508">
        <ele>54.451782</ele>
        <time>2011-10-02T09:35:16Z</time>
      </trkpt>
      <trkpt lat="47.30437" lon="-1.37513">
        <ele>56.374511</ele>
        <time>2011-10-02T09:35:21Z</time>
      </trkpt>
      <trkpt lat="47.30453" lon="-1.37505">
        <ele>60.219726</ele>
        <time>2011-10-02T09:35:27Z</time>
      </trkpt>
      <trkpt lat="47.30454" lon="-1.37503">
        <ele>60.219726</ele>
        <time>2011-10-02T09:35:28Z</time>
      </trkpt>
      <trkpt lat="47.3046" lon="-1.37497">
        <ele>62.142334</ele>
        <time>2011-10-02T09:35:32Z</time>
      </trkpt>
      <trkpt lat="47.30463" lon="-1.37496">
        <ele>62.142334</ele>
        <time>2011-10-02T09:35:37Z</time>
      </trkpt>
    </trkseg>
  </trk>
</gpx>